Wetterdaten: Mittwoch, 19.10.2016
Datum Zeit Temp. A. Temp. A. max Feuchte A. Luftdruck Regen Wind Richtung Richtung Sonnenschein ET UV Solar Taupunkt Windböen
19.10.2016 00:00 8,0 °C 8,1 °C 92 % 1021,1 hPa 0,0 mm 0,5 km/h (0 Bft) S-SW 194 ° 0 min 0,000 mm 0,0 UV-I 0 W/m² 6,8 °C 1,6 km/h (1 Bft)
19.10.2016 00:01 8,0 °C 8,0 °C 92 % 1021,1 hPa 0,0 mm 0,1 km/h (0 Bft) S-SW 194 ° 0 min 0,000 mm 0,0 UV-I 0 W/m² 6,8 °C 1,6 km/h (1 Bft)
19.10.2016 00:02 7,9 °C 8,0 °C 92 % 1021,1 hPa 0,0 mm 1,7 km/h (1 Bft) S-SW 194 ° 0 min 0,000 mm 0,0 UV-I 0 W/m² 6,7 °C 3,2 km/h (1 Bft)
19.10.2016 00:03 7,9 °C 7,9 °C 92 % 1021,1 hPa 0,0 mm 1,6 km/h (1 Bft) S-SW 194 ° 0 min 0,000 mm 0,0 UV-I 0 W/m² 6,7 °C 3,2 km/h (1 Bft)
19.10.2016 00:04 7,9 °C 7,9 °C 92 % 1021,1 hPa 0,0 mm 1,2 km/h (1 Bft) S-SW 194 ° 0 min 0,000 mm 0,0 UV-I 0 W/m² 6,7 °C 1,6 km/h (1 Bft)
19.10.2016 00:05 7,8 °C 7,9 °C 92 % 1021,1 hPa 0,0 mm 1,0 km/h (0 Bft) S-SW 194 ° 0 min 0,000 mm 0,0 UV-I 0 W/m² 6,6 °C 1,6 km/h (1 Bft)
19.10.2016 00:06 7,8 °C 7,8 °C 92 % 1021,1 hPa 0,0 mm 0,3 km/h (0 Bft) S-SW 194 ° 0 min 0,000 mm 0,0 UV-I 0 W/m² 6,6 °C 1,6 km/h (1 Bft)
19.10.2016 00:07 7,8 °C 7,8 °C 92 % 1021,0 hPa 0,0 mm 0,0 km/h (0 Bft) S-SW 194 ° 0 min 0,000 mm 0,0 UV-I 0 W/m² 6,6 °C 0,0 km/h (0 Bft)
19.10.2016 00:08 7,7 °C 7,8 °C 93 % 1021,1 hPa 0,0 mm 0,1 km/h (0 Bft) S-SW 194 ° 0 min 0,000 mm 0,0 UV-I 0 W/m² 6,6 °C 1,6 km/h (1 Bft)
19.10.2016 00:09 7,7 °C 7,8 °C 92 % 1021,1 hPa 0,0 mm 1,9 km/h (1 Bft) S-SW 194 ° 0 min 0,000 mm 0,0 UV-I 0 W/m² 6,5 °C 3,2 km/h (1 Bft)
19.10.2016 00:10 7,7 °C 7,7 °C 92 % 1021,1 hPa 0,0 mm 2,8 km/h (1 Bft) S-SW 194 ° 0 min 0,000 mm 0,0 UV-I 0 W/m² 6,5 °C 4,8 km/h (1 Bft)
19.10.2016 00:11 7,7 °C 7,8 °C 93 % 1021,1 hPa 0,0 mm 1,6 km/h (1 Bft) S-SW 194 ° 0 min 0,000 mm 0,0 UV-I 0 W/m² 6,6 °C 3,2 km/h (1 Bft)
19.10.2016 00:12 7,7 °C 7,7 °C 93 % 1021,0 hPa 0,0 mm 1,5 km/h (1 Bft) S-SW 194 ° 0 min 0,000 mm 0,0 UV-I 0 W/m² 6,6 °C 3,2 km/h (1 Bft)
19.10.2016 00:13 7,7 °C 7,7 °C 93 % 1021,0 hPa 0,0 mm 1,0 km/h (0 Bft) S-SW 194 ° 0 min 0,000 mm 0,0 UV-I 0 W/m² 6,6 °C 1,6 km/h (1 Bft)
19.10.2016 00:14 7,7 °C 7,7 °C 93 % 1021,0 hPa 0,0 mm 1,2 km/h (1 Bft) S-SW 194 ° 0 min 0,000 mm 0,0 UV-I 0 W/m² 6,6 °C 3,2 km/h (1 Bft)
19.10.2016 00:15 7,8 °C 7,8 °C 92 % 1021,0 hPa 0,0 mm 1,3 km/h (1 Bft) S-SW 194 ° 0 min 0,000 mm 0,0 UV-I 0 W/m² 6,6 °C 3,2 km/h (1 Bft)
19.10.2016 00:16 7,8 °C 7,8 °C 93 % 1021,0 hPa 0,0 mm 0,4 km/h (0 Bft) S-SW 194 ° 0 min 0,000 mm 0,0 UV-I 0 W/m² 6,7 °C 1,6 km/h (1 Bft)
19.10.2016 00:17 7,8 °C 7,8 °C 93 % 1021,0 hPa 0,0 mm 1,7 km/h (1 Bft) S-SW 193 ° 0 min 0,000 mm 0,0 UV-I 0 W/m² 6,7 °C 4,8 km/h (1 Bft)
19.10.2016 00:18 7,8 °C 7,8 °C 92 % 1021,0 hPa 0,0 mm 3,1 km/h (1 Bft) S 190 ° 0 min 0,000 mm 0,0 UV-I 0 W/m² 6,6 °C 4,8 km/h (1 Bft)
19.10.2016 00:19 7,8 °C 7,8 °C 92 % 1021,0 hPa 0,0 mm 3,6 km/h (1 Bft) S 188 ° 0 min 0,000 mm 0,0 UV-I 0 W/m² 6,6 °C 4,8 km/h (1 Bft)
19.10.2016 00:20 7,9 °C 7,9 °C 92 % 1021,0 hPa 0,0 mm 2,8 km/h (1 Bft) S 188 ° 0 min 0,000 mm 0,0 UV-I 0 W/m² 6,7 °C 4,8 km/h (1 Bft)
19.10.2016 00:21 7,9 °C 7,9 °C 92 % 1021,0 hPa 0,0 mm 2,2 km/h (1 Bft) S 188 ° 0 min 0,000 mm 0,0 UV-I 0 W/m² 6,7 °C 4,8 km/h (1 Bft)
19.10.2016 00:22 7,9 °C 7,9 °C 92 % 1021,0 hPa 0,0 mm 0,4 km/h (0 Bft) S 188 ° 0 min 0,000 mm 0,0 UV-I 0 W/m² 6,7 °C 1,6 km/h (1 Bft)
19.10.2016 00:23 7,9 °C 8,0 °C 92 % 1021,0 hPa 0,0 mm 0,5 km/h (0 Bft) S 188 ° 0 min 0,000 mm 0,0 UV-I 0 W/m² 6,7 °C 1,6 km/h (1 Bft)
19.10.2016 00:24 8,0 °C 8,0 °C 92 % 1021,0 hPa 0,0 mm 0,2 km/h (0 Bft) S 188 ° 0 min 0,000 mm 0,0 UV-I 0 W/m² 6,8 °C 1,6 km/h (1 Bft)
19.10.2016 00:25 8,0 °C 8,0 °C 91 % 1021,0 hPa 0,0 mm 0,5 km/h (0 Bft) S 188 ° 0 min 0,000 mm 0,0 UV-I 0 W/m² 6,6 °C 1,6 km/h (1 Bft)
19.10.2016 00:26 8,1 °C 8,1 °C 91 % 1021,0 hPa 0,0 mm 0,7 km/h (0 Bft) S 188 ° 0 min 0,000 mm 0,0 UV-I 0 W/m² 6,7 °C 1,6 km/h (1 Bft)
19.10.2016 00:27 8,1 °C 8,1 °C 91 % 1021,0 hPa 0,0 mm 0,7 km/h (0 Bft) S 188 ° 0 min 0,000 mm 0,0 UV-I 0 W/m² 6,7 °C 1,6 km/h (1 Bft)
19.10.2016 00:28 8,1 °C 8,1 °C 91 % 1021,0 hPa 0,0 mm 0,5 km/h (0 Bft) S 188 ° 0 min 0,000 mm 0,0 UV-I 0 W/m² 6,7 °C 3,2 km/h (1 Bft)
19.10.2016 00:29 8,2 °C 8,2 °C 90 % 1021,0 hPa 0,0 mm 0,6 km/h (0 Bft) S 188 ° 0 min 0,000 mm 0,0 UV-I 0 W/m² 6,7 °C 1,6 km/h (1 Bft)
19.10.2016 00:30 8,2 °C 8,2 °C 90 % 1021,0 hPa 0,0 mm 0,0 km/h (0 Bft) S 188 ° 0 min 0,000 mm 0,0 UV-I 0 W/m² 6,7 °C 0,0 km/h (0 Bft)
19.10.2016 00:31 8,2 °C 8,2 °C 90 % 1021,0 hPa 0,0 mm 0,0 km/h (0 Bft) S 188 ° 0 min 0,000 mm 0,0 UV-I 0 W/m² 6,7 °C 0,0 km/h (0 Bft)
19.10.2016 00:32 8,2 °C 8,3 °C 89 % 1021,0 hPa 0,0 mm 0,0 km/h (0 Bft) S 188 ° 0 min 0,000 mm 0,0 UV-I 0 W/m² 6,5 °C 0,0 km/h (0 Bft)
19.10.2016 00:33 8,3 °C 8,3 °C 90 % 1021,0 hPa 0,0 mm 1,0 km/h (0 Bft) SW 224 ° 0 min 0,000 mm 0,0 UV-I 0 W/m² 6,8 °C 1,6 km/h (1 Bft)
19.10.2016 00:34 8,3 °C 8,3 °C 89 % 1021,0 hPa 0,0 mm 3,0 km/h (1 Bft) SW 222 ° 0 min 0,000 mm 0,0 UV-I 0 W/m² 6,6 °C 8,0 km/h (2 Bft)
19.10.2016 00:35 8,3 °C 8,3 °C 89 % 1020,9 hPa 0,0 mm 1,7 km/h (1 Bft) SW 223 ° 0 min 0,000 mm 0,0 UV-I 0 W/m² 6,6 °C 3,2 km/h (1 Bft)
19.10.2016 00:36 8,3 °C 8,3 °C 89 % 1020,9 hPa 0,0 mm 1,1 km/h (1 Bft) SW 223 ° 0 min 0,000 mm 0,0 UV-I 0 W/m² 6,6 °C 1,6 km/h (1 Bft)
19.10.2016 00:37 8,3 °C 8,3 °C 88 % 1020,9 hPa 0,0 mm 1,6 km/h (1 Bft) SW 223 ° 0 min 0,000 mm 0,0 UV-I 0 W/m² 6,4 °C 3,2 km/h (1 Bft)
19.10.2016 00:38 8,3 °C 8,3 °C 88 % 1020,9 hPa 0,0 mm 1,1 km/h (1 Bft) SW 223 ° 0 min 0,000 mm 0,0 UV-I 0 W/m² 6,4 °C 1,6 km/h (1 Bft)
19.10.2016 00:39 8,3 °C 8,4 °C 88 % 1020,9 hPa 0,0 mm 3,2 km/h (1 Bft) W-SW 242 ° 0 min 0,000 mm 0,0 UV-I 0 W/m² 6,4 °C 4,8 km/h (1 Bft)
19.10.2016 00:40 8,3 °C 8,3 °C 88 % 1020,9 hPa 0,0 mm 3,3 km/h (1 Bft) W-SW 242 ° 0 min 0,000 mm 0,0 UV-I 0 W/m² 6,4 °C 4,8 km/h (1 Bft)
19.10.2016 00:41 8,3 °C 8,3 °C 88 % 1020,9 hPa 0,0 mm 1,3 km/h (1 Bft) W-SW 242 ° 0 min 0,000 mm 0,0 UV-I 0 W/m² 6,4 °C 3,2 km/h (1 Bft)
19.10.2016 00:42 8,3 °C 8,3 °C 88 % 1020,9 hPa 0,0 mm 2,6 km/h (1 Bft) W-SW 250 ° 0 min 0,000 mm 0,0 UV-I 0 W/m² 6,4 °C 4,8 km/h (1 Bft)
19.10.2016 00:43 8,3 °C 8,3 °C 88 % 1020,9 hPa 0,0 mm 0,4 km/h (0 Bft) W-SW 250 ° 0 min 0,000 mm 0,0 UV-I 0 W/m² 6,4 °C 1,6 km/h (1 Bft)
19.10.2016 00:44 8,2 °C 8,3 °C 88 % 1020,9 hPa 0,0 mm 0,6 km/h (0 Bft) W-SW 250 ° 0 min 0,000 mm 0,0 UV-I 0 W/m² 6,3 °C 1,6 km/h (1 Bft)
19.10.2016 00:45 8,2 °C 8,3 °C 88 % 1020,9 hPa 0,0 mm 0,5 km/h (0 Bft) W-SW 250 ° 0 min 0,000 mm 0,0 UV-I 0 W/m² 6,3 °C 1,6 km/h (1 Bft)
19.10.2016 00:46 8,2 °C 8,2 °C 88 % 1020,9 hPa 0,0 mm 1,3 km/h (1 Bft) W-SW 250 ° 0 min 0,000 mm 0,0 UV-I 0 W/m² 6,3 °C 3,2 km/h (1 Bft)
19.10.2016 00:47 8,2 °C 8,2 °C 88 % 1020,9 hPa 0,0 mm 3,3 km/h (1 Bft) S-SW 206 ° 0 min 0,000 mm 0,0 UV-I 0 W/m² 6,3 °C 4,8 km/h (1 Bft)
19.10.2016 00:48 8,2 °C 8,2 °C 88 % 1020,9 hPa 0,0 mm 2,4 km/h (1 Bft) S-SW 206 ° 0 min 0,000 mm 0,0 UV-I 0 W/m² 6,3 °C 3,2 km/h (1 Bft)
19.10.2016 00:49 8,2 °C 8,2 °C 88 % 1020,9 hPa 0,0 mm 1,8 km/h (1 Bft) S-SW 206 ° 0 min 0,000 mm 0,0 UV-I 0 W/m² 6,3 °C 3,2 km/h (1 Bft)
19.10.2016 00:50 8,2 °C 8,2 °C 88 % 1020,9 hPa 0,0 mm 1,5 km/h (1 Bft) S-SW 207 ° 0 min 0,000 mm 0,0 UV-I 0 W/m² 6,3 °C 3,2 km/h (1 Bft)
19.10.2016 00:51 8,2 °C 8,2 °C 88 % 1020,9 hPa 0,0 mm 1,6 km/h (1 Bft) S-SW 207 ° 0 min 0,000 mm 0,0 UV-I 0 W/m² 6,3 °C 3,2 km/h (1 Bft)
19.10.2016 00:52 8,2 °C 8,3 °C 88 % 1020,9 hPa 0,0 mm 2,4 km/h (1 Bft) S-SW 213 ° 0 min 0,000 mm 0,0 UV-I 0 W/m² 6,3 °C 4,8 km/h (1 Bft)
19.10.2016 00:53 8,2 °C 8,2 °C 88 % 1020,9 hPa 0,0 mm 2,0 km/h (1 Bft) S-SW 213 ° 0 min 0,000 mm 0,0 UV-I 0 W/m² 6,3 °C 3,2 km/h (1 Bft)
19.10.2016 00:54 8,2 °C 8,2 °C 87 % 1020,9 hPa 0,0 mm 4,3 km/h (1 Bft) SW 236 ° 0 min 0,000 mm 0,0 UV-I 0 W/m² 6,2 °C 11,3 km/h (2 Bft)
19.10.2016 00:55 8,2 °C 8,2 °C 87 % 1020,9 hPa 0,0 mm 4,5 km/h (1 Bft) S-SW 213 ° 0 min 0,000 mm 0,0 UV-I 0 W/m² 6,2 °C 8,0 km/h (2 Bft)
19.10.2016 00:56 8,3 °C 8,3 °C 87 % 1020,9 hPa 0,0 mm 4,3 km/h (1 Bft) W-SW 239 ° 0 min 0,000 mm 0,0 UV-I 0 W/m² 6,3 °C 8,0 km/h (2 Bft)
19.10.2016 00:57 8,3 °C 8,3 °C 87 % 1020,9 hPa 0,0 mm 4,6 km/h (1 Bft) W 275 ° 0 min 0,000 mm 0,0 UV-I 0 W/m² 6,3 °C 8,0 km/h (2 Bft)
19.10.2016 00:58 8,2 °C 8,3 °C 87 % 1020,9 hPa 0,0 mm 4,0 km/h (1 Bft) W-SW 244 ° 0 min 0,000 mm 0,0 UV-I 0 W/m² 6,2 °C 6,4 km/h (2 Bft)
19.10.2016 00:59 8,2 °C 8,3 °C 87 % 1020,8 hPa 0,0 mm 1,9 km/h (1 Bft) W-SW 244 ° 0 min 0,000 mm 0,0 UV-I 0 W/m² 6,2 °C 3,2 km/h (1 Bft)
19.10.2016 01:00 8,3 °C 8,3 °C 86 % 1020,8 hPa 0,0 mm 1,7 km/h (1 Bft) S-SW 213 ° 0 min 0,000 mm 0,0 UV-I 0 W/m² 6,1 °C 3,2 km/h (1 Bft)
19.10.2016 01:01 8,3 °C 8,3 °C 86 % 1020,8 hPa 0,0 mm 1,4 km/h (1 Bft) S-SW 213 ° 0 min 0,000 mm 0,0 UV-I 0 W/m² 6,1 °C 3,2 km/h (1 Bft)
19.10.2016 01:02 8,3 °C 8,3 °C 86 % 1020,8 hPa 0,0 mm 2,0 km/h (1 Bft) SW 226 ° 0 min 0,000 mm 0,0 UV-I 0 W/m² 6,1 °C 4,8 km/h (1 Bft)
19.10.2016 01:03 8,3 °C 8,3 °C 86 % 1020,8 hPa 0,0 mm 2,7 km/h (1 Bft) SW 235 ° 0 min 0,000 mm 0,0 UV-I 0 W/m² 6,1 °C 6,4 km/h (2 Bft)
19.10.2016 01:04 8,3 °C 8,3 °C 85 % 1020,8 hPa 0,0 mm 3,5 km/h (1 Bft) S-SW 200 ° 0 min 0,000 mm 0,0 UV-I 0 W/m² 5,9 °C 6,4 km/h (2 Bft)
19.10.2016 01:05 8,4 °C 8,4 °C 85 % 1020,8 hPa 0,0 mm 2,6 km/h (1 Bft) S-SW 200 ° 0 min 0,000 mm 0,0 UV-I 0 W/m² 6,0 °C 4,8 km/h (1 Bft)
19.10.2016 01:06 8,4 °C 8,4 °C 85 % 1020,8 hPa 0,0 mm 3,6 km/h (1 Bft) S-SW 212 ° 0 min 0,000 mm 0,0 UV-I 0 W/m² 6,0 °C 4,8 km/h (1 Bft)
19.10.2016 01:07 8,4 °C 8,4 °C 85 % 1020,8 hPa 0,0 mm 2,7 km/h (1 Bft) S-SW 205 ° 0 min 0,000 mm 0,0 UV-I 0 W/m² 6,0 °C 4,8 km/h (1 Bft)
19.10.2016 01:08 8,4 °C 8,4 °C 84 % 1020,8 hPa 0,0 mm 2,1 km/h (1 Bft) S 186 ° 0 min 0,000 mm 0,0 UV-I 0 W/m² 5,9 °C 3,2 km/h (1 Bft)
19.10.2016 01:09 8,6 °C 8,6 °C 84 % 1020,7 hPa 0,0 mm 3,0 km/h (1 Bft) S-SW 198 ° 0 min 0,000 mm 0,0 UV-I 0 W/m² 6,1 °C 6,4 km/h (2 Bft)
19.10.2016 01:10 8,5 °C 8,6 °C 85 % 1020,7 hPa 0,0 mm 1,5 km/h (1 Bft) S-SW 198 ° 0 min 0,000 mm 0,0 UV-I 0 W/m² 6,1 °C 4,8 km/h (1 Bft)
19.10.2016 01:11 8,6 °C 8,6 °C 85 % 1020,7 hPa 0,0 mm 1,1 km/h (1 Bft) SW 229 ° 0 min 0,000 mm 0,0 UV-I 0 W/m² 6,2 °C 3,2 km/h (1 Bft)
19.10.2016 01:12 8,6 °C 8,6 °C 84 % 1020,7 hPa 0,0 mm 1,0 km/h (0 Bft) SW 225 ° 0 min 0,000 mm 0,0 UV-I 0 W/m² 6,1 °C 1,6 km/h (1 Bft)
19.10.2016 01:13 8,6 °C 8,6 °C 84 % 1020,7 hPa 0,0 mm 1,7 km/h (1 Bft) SW 227 ° 0 min 0,000 mm 0,0 UV-I 0 W/m² 6,1 °C 3,2 km/h (1 Bft)
19.10.2016 01:14 8,6 °C 8,6 °C 84 % 1020,7 hPa 0,0 mm 0,9 km/h (0 Bft) SW 227 ° 0 min 0,000 mm 0,0 UV-I 0 W/m² 6,1 °C 1,6 km/h (1 Bft)
19.10.2016 01:15 8,6 °C 8,6 °C 84 % 1020,6 hPa 0,0 mm 1,2 km/h (1 Bft) W-SW 244 ° 0 min 0,000 mm 0,0 UV-I 0 W/m² 6,1 °C 4,8 km/h (1 Bft)
19.10.2016 01:16 8,6 °C 8,6 °C 84 % 1020,6 hPa 0,0 mm 3,2 km/h (1 Bft) W-SW 237 ° 0 min 0,000 mm 0,0 UV-I 0 W/m² 6,1 °C 6,4 km/h (2 Bft)
19.10.2016 01:17 8,6 °C 8,6 °C 84 % 1020,7 hPa 0,0 mm 2,7 km/h (1 Bft) W-SW 241 ° 0 min 0,000 mm 0,0 UV-I 0 W/m² 6,1 °C 4,8 km/h (1 Bft)
19.10.2016 01:18 8,6 °C 8,6 °C 84 % 1020,7 hPa 0,0 mm 3,2 km/h (1 Bft) W-SW 247 ° 0 min 0,000 mm 0,0 UV-I 0 W/m² 6,1 °C 4,8 km/h (1 Bft)
19.10.2016 01:19 8,6 °C 8,6 °C 84 % 1020,6 hPa 0,0 mm 1,3 km/h (1 Bft) W-SW 247 ° 0 min 0,000 mm 0,0 UV-I 0 W/m² 6,1 °C 3,2 km/h (1 Bft)
19.10.2016 01:20 8,5 °C 8,6 °C 84 % 1020,6 hPa 0,0 mm 1,2 km/h (1 Bft) W-SW 246 ° 0 min 0,000 mm 0,0 UV-I 0 W/m² 6,0 °C 3,2 km/h (1 Bft)
19.10.2016 01:21 8,4 °C 8,5 °C 84 % 1020,6 hPa 0,0 mm 2,1 km/h (1 Bft) W-SW 246 ° 0 min 0,000 mm 0,0 UV-I 0 W/m² 5,9 °C 3,2 km/h (1 Bft)
19.10.2016 01:22 8,4 °C 8,5 °C 84 % 1020,6 hPa 0,0 mm 3,4 km/h (1 Bft) W-SW 257 ° 0 min 0,000 mm 0,0 UV-I 0 W/m² 5,9 °C 4,8 km/h (1 Bft)
19.10.2016 01:23 8,5 °C 8,5 °C 84 % 1020,6 hPa 0,0 mm 3,4 km/h (1 Bft) W-SW 237 ° 0 min 0,000 mm 0,0 UV-I 0 W/m² 6,0 °C 6,4 km/h (2 Bft)
19.10.2016 01:24 8,5 °C 8,5 °C 84 % 1020,6 hPa 0,0 mm 3,5 km/h (1 Bft) S-SW 204 ° 0 min 0,000 mm 0,0 UV-I 0 W/m² 6,0 °C 6,4 km/h (2 Bft)
19.10.2016 01:25 8,4 °C 8,5 °C 84 % 1020,6 hPa 0,0 mm 2,1 km/h (1 Bft) W-SW 239 ° 0 min 0,000 mm 0,0 UV-I 0 W/m² 5,9 °C 4,8 km/h (1 Bft)
19.10.2016 01:26 8,4 °C 8,5 °C 84 % 1020,5 hPa 0,0 mm 3,7 km/h (1 Bft) SW 217 ° 0 min 0,000 mm 0,0 UV-I 0 W/m² 5,9 °C 6,4 km/h (2 Bft)
19.10.2016 01:27 8,4 °C 8,4 °C 84 % 1020,6 hPa 0,0 mm 2,1 km/h (1 Bft) SW 217 ° 0 min 0,000 mm 0,0 UV-I 0 W/m² 5,9 °C 3,2 km/h (1 Bft)
19.10.2016 01:28 8,4 °C 8,4 °C 84 % 1020,6 hPa 0,0 mm 2,8 km/h (1 Bft) SW 215 ° 0 min 0,000 mm 0,0 UV-I 0 W/m² 5,9 °C 6,4 km/h (2 Bft)
19.10.2016 01:29 8,4 °C 8,4 °C 84 % 1020,6 hPa 0,0 mm 3,5 km/h (1 Bft) SW 234 ° 0 min 0,000 mm 0,0 UV-I 0 W/m² 5,9 °C 6,4 km/h (2 Bft)
19.10.2016 01:30 8,4 °C 8,4 °C 84 % 1020,6 hPa 0,0 mm 2,7 km/h (1 Bft) W-SW 252 ° 0 min 0,000 mm 0,0 UV-I 0 W/m² 5,9 °C 4,8 km/h (1 Bft)
19.10.2016 01:31 8,4 °C 8,4 °C 84 % 1020,6 hPa 0,0 mm 2,3 km/h (1 Bft) W-SW 251 ° 0 min 0,000 mm 0,0 UV-I 0 W/m² 5,9 °C 3,2 km/h (1 Bft)
19.10.2016 01:32 8,4 °C 8,4 °C 84 % 1020,6 hPa 0,0 mm 1,9 km/h (1 Bft) W-SW 244 ° 0 min 0,000 mm 0,0 UV-I 0 W/m² 5,9 °C 3,2 km/h (1 Bft)
19.10.2016 01:33 8,3 °C 8,4 °C 85 % 1020,6 hPa 0,0 mm 2,6 km/h (1 Bft) S-SW 193 ° 0 min 0,000 mm 0,0 UV-I 0 W/m² 5,9 °C 3,2 km/h (1 Bft)
19.10.2016 01:34 8,3 °C 8,3 °C 85 % 1020,6 hPa 0,0 mm 1,6 km/h (1 Bft) S-SW 198 ° 0 min 0,000 mm 0,0 UV-I 0 W/m² 5,9 °C 3,2 km/h (1 Bft)
19.10.2016 01:35 8,3 °C 8,3 °C 85 % 1020,6 hPa 0,0 mm 2,4 km/h (1 Bft) S-SW 198 ° 0 min 0,000 mm 0,0 UV-I 0 W/m² 5,9 °C 4,8 km/h (1 Bft)
19.10.2016 01:36 8,3 °C 8,3 °C 85 % 1020,6 hPa 0,0 mm 3,6 km/h (1 Bft) SW 228 ° 0 min 0,000 mm 0,0 UV-I 0 W/m² 5,9 °C 4,8 km/h (1 Bft)
19.10.2016 01:37 8,3 °C 8,3 °C 85 % 1020,5 hPa 0,0 mm 2,1 km/h (1 Bft) S 182 ° 0 min 0,000 mm 0,0 UV-I 0 W/m² 5,9 °C 3,2 km/h (1 Bft)
19.10.2016 01:38 8,3 °C 8,3 °C 85 % 1020,5 hPa 0,0 mm 0,6 km/h (0 Bft) S 182 ° 0 min 0,000 mm 0,0 UV-I 0 W/m² 5,9 °C 3,2 km/h (1 Bft)
19.10.2016 01:39 8,3 °C 8,3 °C 85 % 1020,5 hPa 0,0 mm 4,1 km/h (1 Bft) SW 225 ° 0 min 0,000 mm 0,0 UV-I 0 W/m² 5,9 °C 6,4 km/h (2 Bft)
19.10.2016 01:40 8,3 °C 8,3 °C 85 % 1020,5 hPa 0,0 mm 3,0 km/h (1 Bft) S-SO 150 ° 0 min 0,000 mm 0,0 UV-I 0 W/m² 5,9 °C 6,4 km/h (2 Bft)
19.10.2016 01:41 8,3 °C 8,3 °C 85 % 1020,5 hPa 0,0 mm 3,1 km/h (1 Bft) W-SW 237 ° 0 min 0,000 mm 0,0 UV-I 0 W/m² 5,9 °C 4,8 km/h (1 Bft)
19.10.2016 01:42 8,3 °C 8,3 °C 85 % 1020,5 hPa 0,0 mm 2,4 km/h (1 Bft) W 264 ° 0 min 0,000 mm 0,0 UV-I 0 W/m² 5,9 °C 4,8 km/h (1 Bft)
19.10.2016 01:43 8,3 °C 8,3 °C 85 % 1020,5 hPa 0,0 mm 4,2 km/h (1 Bft) W-SW 249 ° 0 min 0,000 mm 0,0 UV-I 0 W/m² 5,9 °C 4,8 km/h (1 Bft)
19.10.2016 01:44 8,3 °C 8,3 °C 85 % 1020,5 hPa 0,0 mm 2,8 km/h (1 Bft) S-SW 213 ° 0 min 0,000 mm 0,0 UV-I 0 W/m² 5,9 °C 4,8 km/h (1 Bft)
19.10.2016 01:45 8,3 °C 8,3 °C 85 % 1020,5 hPa 0,0 mm 2,1 km/h (1 Bft) W-SW 258 ° 0 min 0,000 mm 0,0 UV-I 0 W/m² 5,9 °C 3,2 km/h (1 Bft)
19.10.2016 01:46 8,3 °C 8,3 °C 85 % 1020,5 hPa 0,0 mm 3,1 km/h (1 Bft) W-SW 257 ° 0 min 0,000 mm 0,0 UV-I 0 W/m² 5,9 °C 4,8 km/h (1 Bft)
19.10.2016 01:47 8,3 °C 8,3 °C 85 % 1020,4 hPa 0,0 mm 1,4 km/h (1 Bft) S-SW 200 ° 0 min 0,000 mm 0,0 UV-I 0 W/m² 5,9 °C 3,2 km/h (1 Bft)
19.10.2016 01:48 8,3 °C 8,3 °C 85 % 1020,4 hPa 0,0 mm 4,7 km/h (1 Bft) W 259 ° 0 min 0,000 mm 0,0 UV-I 0 W/m² 5,9 °C 6,4 km/h (2 Bft)
19.10.2016 01:49 8,3 °C 8,3 °C 85 % 1020,4 hPa 0,0 mm 4,7 km/h (1 Bft) W-SW 253 ° 0 min 0,000 mm 0,0 UV-I 0 W/m² 5,9 °C 6,4 km/h (2 Bft)
19.10.2016 01:50 8,3 °C 8,3 °C 85 % 1020,4 hPa 0,0 mm 3,5 km/h (1 Bft) W-SW 243 ° 0 min 0,000 mm 0,0 UV-I 0 W/m² 5,9 °C 4,8 km/h (1 Bft)
19.10.2016 01:51 8,3 °C 8,3 °C 85 % 1020,4 hPa 0,0 mm 4,4 km/h (1 Bft) W-SW 249 ° 0 min 0,000 mm 0,0 UV-I 0 W/m² 5,9 °C 6,4 km/h (2 Bft)
19.10.2016 01:52 8,3 °C 8,3 °C 86 % 1020,4 hPa 0,0 mm 4,4 km/h (1 Bft) W-SW 252 ° 0 min 0,000 mm 0,0 UV-I 0 W/m² 6,1 °C 9,7 km/h (2 Bft)
19.10.2016 01:53 8,3 °C 8,3 °C 85 % 1020,4 hPa 0,0 mm 3,8 km/h (1 Bft) W 263 ° 0 min 0,000 mm 0,0 UV-I 0 W/m² 5,9 °C 6,4 km/h (2 Bft)
19.10.2016 01:54 8,3 °C 8,3 °C 86 % 1020,4 hPa 0,0 mm 4,8 km/h (1 Bft) W-SW 246 ° 0 min 0,000 mm 0,0 UV-I 0 W/m² 6,1 °C 6,4 km/h (2 Bft)
19.10.2016 01:55 8,3 °C 8,3 °C 87 % 1020,4 hPa 0,0 mm 4,6 km/h (1 Bft) W 269 ° 0 min 0,000 mm 0,0 UV-I 0 W/m² 6,3 °C 6,4 km/h (2 Bft)
19.10.2016 01:56 8,2 °C 8,3 °C 86 % 1020,4 hPa 0,0 mm 3,4 km/h (1 Bft) SW 234 ° 0 min 0,000 mm 0,0 UV-I 0 W/m² 6,0 °C 4,8 km/h (1 Bft)
19.10.2016 01:57 8,2 °C 8,2 °C 86 % 1020,4 hPa 0,0 mm 3,6 km/h (1 Bft) W-SW 242 ° 0 min 0,000 mm 0,0 UV-I 0 W/m² 6,0 °C 6,4 km/h (2 Bft)
19.10.2016 01:58 8,2 °C 8,2 °C 86 % 1020,4 hPa 0,0 mm 3,4 km/h (1 Bft) W-SW 247 ° 0 min 0,000 mm 0,0 UV-I 0 W/m² 6,0 °C 6,4 km/h (2 Bft)
19.10.2016 01:59 8,2 °C 8,2 °C 86 % 1020,4 hPa 0,0 mm 1,8 km/h (1 Bft) W-SW 247 ° 0 min 0,000 mm 0,0 UV-I 0 W/m² 6,0 °C 3,2 km/h (1 Bft)
19.10.2016 02:00 8,2 °C 8,2 °C 86 % 1020,4 hPa 0,0 mm 2,6 km/h (1 Bft) W-SW 257 ° 0 min 0,025 mm 0,0 UV-I 0 W/m² 6,0 °C 4,8 km/h (1 Bft)
19.10.2016 02:01 8,2 °C 8,2 °C 86 % 1020,4 hPa 0,0 mm 3,5 km/h (1 Bft) W-SW 257 ° 0 min 0,000 mm 0,0 UV-I 0 W/m² 6,0 °C 4,8 km/h (1 Bft)
19.10.2016 02:02 8,2 °C 8,2 °C 87 % 1020,4 hPa 0,0 mm 2,7 km/h (1 Bft) W-SW 257 ° 0 min 0,000 mm 0,0 UV-I 0 W/m² 6,2 °C 4,8 km/h (1 Bft)
19.10.2016 02:03 8,2 °C 8,2 °C 87 % 1020,4 hPa 0,0 mm 2,3 km/h (1 Bft) W-SW 257 ° 0 min 0,000 mm 0,0 UV-I 0 W/m² 6,2 °C 4,8 km/h (1 Bft)
19.10.2016 02:04 8,2 °C 8,2 °C 87 % 1020,4 hPa 0,0 mm 2,4 km/h (1 Bft) W-SW 257 ° 0 min 0,000 mm 0,0 UV-I 0 W/m² 6,2 °C 3,2 km/h (1 Bft)
19.10.2016 02:05 8,2 °C 8,2 °C 87 % 1020,4 hPa 0,0 mm 3,8 km/h (1 Bft) W-SW 257 ° 0 min 0,000 mm 0,0 UV-I 0 W/m² 6,2 °C 4,8 km/h (1 Bft)
19.10.2016 02:06 8,1 °C 8,2 °C 88 % 1020,4 hPa 0,0 mm 3,8 km/h (1 Bft) W-SW 257 ° 0 min 0,000 mm 0,0 UV-I 0 W/m² 6,2 °C 4,8 km/h (1 Bft)
19.10.2016 02:07 8,1 °C 8,1 °C 87 % 1020,4 hPa 0,0 mm 3,5 km/h (1 Bft) W-SW 257 ° 0 min 0,000 mm 0,0 UV-I 0 W/m² 6,1 °C 4,8 km/h (1 Bft)
19.10.2016 02:08 8,1 °C 8,1 °C 87 % 1020,4 hPa 0,0 mm 2,1 km/h (1 Bft) W-SW 257 ° 0 min 0,000 mm 0,0 UV-I 0 W/m² 6,1 °C 4,8 km/h (1 Bft)
19.10.2016 02:09 8,1 °C 8,1 °C 87 % 1020,4 hPa 0,0 mm 2,5 km/h (1 Bft) W-SW 257 ° 0 min 0,000 mm 0,0 UV-I 0 W/m² 6,1 °C 3,2 km/h (1 Bft)
19.10.2016 02:10 8,1 °C 8,1 °C 87 % 1020,4 hPa 0,0 mm 2,1 km/h (1 Bft) W-SW 257 ° 0 min 0,000 mm 0,0 UV-I 0 W/m² 6,1 °C 3,2 km/h (1 Bft)
19.10.2016 02:11 8,1 °C 8,1 °C 87 % 1020,4 hPa 0,0 mm 2,5 km/h (1 Bft) W-SW 257 ° 0 min 0,000 mm 0,0 UV-I 0 W/m² 6,1 °C 3,2 km/h (1 Bft)
19.10.2016 02:12 8,1 °C 8,1 °C 87 % 1020,3 hPa 0,0 mm 3,4 km/h (1 Bft) W-SW 250 ° 0 min 0,000 mm 0,0 UV-I 0 W/m² 6,1 °C 4,8 km/h (1 Bft)
19.10.2016 02:13 8,1 °C 8,1 °C 88 % 1020,3 hPa 0,0 mm 3,8 km/h (1 Bft) W-SW 252 ° 0 min 0,000 mm 0,0 UV-I 0 W/m² 6,2 °C 4,8 km/h (1 Bft)
19.10.2016 02:14 8,1 °C 8,1 °C 88 % 1020,3 hPa 0,0 mm 2,2 km/h (1 Bft) W-SW 252 ° 0 min 0,000 mm 0,0 UV-I 0 W/m² 6,2 °C 4,8 km/h (1 Bft)
19.10.2016 02:15 8,1 °C 8,1 °C 87 % 1020,3 hPa 0,0 mm 1,4 km/h (1 Bft) W-SW 252 ° 0 min 0,000 mm 0,0 UV-I 0 W/m² 6,1 °C 3,2 km/h (1 Bft)
19.10.2016 02:16 8,1 °C 8,1 °C 87 % 1020,3 hPa 0,0 mm 4,2 km/h (1 Bft) W-SW 248 ° 0 min 0,000 mm 0,0 UV-I 0 W/m² 6,1 °C 6,4 km/h (2 Bft)
19.10.2016 02:17 8,1 °C 8,1 °C 87 % 1020,3 hPa 0,0 mm 3,2 km/h (1 Bft) W-SW 244 ° 0 min 0,000 mm 0,0 UV-I 0 W/m² 6,1 °C 4,8 km/h (1 Bft)
19.10.2016 02:18 8,1 °C 8,1 °C 87 % 1020,3 hPa 0,0 mm 0,8 km/h (0 Bft) W-SW 244 ° 0 min 0,000 mm 0,0 UV-I 0 W/m² 6,1 °C 1,6 km/h (1 Bft)
19.10.2016 02:19 8,1 °C 8,1 °C 88 % 1020,2 hPa 0,0 mm 1,1 km/h (1 Bft) W-SW 244 ° 0 min 0,000 mm 0,0 UV-I 0 W/m² 6,2 °C 3,2 km/h (1 Bft)
19.10.2016 02:20 8,1 °C 8,1 °C 88 % 1020,1 hPa 0,0 mm 0,1 km/h (0 Bft) W-SW 244 ° 0 min 0,000 mm 0,0 UV-I 0 W/m² 6,2 °C 1,6 km/h (1 Bft)
19.10.2016 02:21 8,0 °C 8,1 °C 88 % 1020,3 hPa 0,0 mm 1,2 km/h (1 Bft) W-SW 244 ° 0 min 0,000 mm 0,0 UV-I 0 W/m² 6,1 °C 3,2 km/h (1 Bft)
19.10.2016 02:22 8,1 °C 8,1 °C 87 % 1020,1 hPa 0,0 mm 2,6 km/h (1 Bft) SW 231 ° 0 min 0,000 mm 0,0 UV-I 0 W/m² 6,1 °C 4,8 km/h (1 Bft)
19.10.2016 02:23 8,1 °C 8,1 °C 87 % 1020,1 hPa 0,0 mm 2,3 km/h (1 Bft) SW 231 ° 0 min 0,000 mm 0,0 UV-I 0 W/m² 6,1 °C 3,2 km/h (1 Bft)
19.10.2016 02:24 8,0 °C 8,1 °C 87 % 1020,1 hPa 0,0 mm 1,5 km/h (1 Bft) SW 231 ° 0 min 0,000 mm 0,0 UV-I 0 W/m² 6,0 °C 1,6 km/h (1 Bft)
19.10.2016 02:25 8,1 °C 8,1 °C 87 % 1020,1 hPa 0,0 mm 1,4 km/h (1 Bft) SW 231 ° 0 min 0,000 mm 0,0 UV-I 0 W/m² 6,1 °C 1,6 km/h (1 Bft)
19.10.2016 02:26 8,1 °C 8,1 °C 87 % 1020,1 hPa 0,0 mm 0,6 km/h (0 Bft) SW 231 ° 0 min 0,000 mm 0,0 UV-I 0 W/m² 6,1 °C 1,6 km/h (1 Bft)
19.10.2016 02:27 8,1 °C 8,1 °C 87 % 1020,1 hPa 0,0 mm 1,7 km/h (1 Bft) SW 231 ° 0 min 0,000 mm 0,0 UV-I 0 W/m² 6,1 °C 4,8 km/h (1 Bft)
19.10.2016 02:28 8,1 °C 8,1 °C 86 % 1020,1 hPa 0,0 mm 2,7 km/h (1 Bft) SW 229 ° 0 min 0,000 mm 0,0 UV-I 0 W/m² 5,9 °C 4,8 km/h (1 Bft)
19.10.2016 02:29 8,1 °C 8,2 °C 86 % 1020,0 hPa 0,0 mm 2,7 km/h (1 Bft) SW 229 ° 0 min 0,000 mm 0,0 UV-I 0 W/m² 5,9 °C 3,2 km/h (1 Bft)
19.10.2016 02:30 8,1 °C 8,2 °C 86 % 1020,1 hPa 0,0 mm 2,2 km/h (1 Bft) SW 229 ° 0 min 0,000 mm 0,0 UV-I 0 W/m² 5,9 °C 3,2 km/h (1 Bft)
19.10.2016 02:31 8,1 °C 8,2 °C 86 % 1020,0 hPa 0,0 mm 1,5 km/h (1 Bft) SW 229 ° 0 min 0,000 mm 0,0 UV-I 0 W/m² 5,9 °C 3,2 km/h (1 Bft)
19.10.2016 02:32 8,1 °C 8,2 °C 86 % 1020,0 hPa 0,0 mm 1,5 km/h (1 Bft) SW 229 ° 0 min 0,000 mm 0,0 UV-I 0 W/m² 5,9 °C 3,2 km/h (1 Bft)
19.10.2016 02:33 8,1 °C 8,2 °C 86 % 1020,0 hPa 0,0 mm 1,1 km/h (1 Bft) SW 229 ° 0 min 0,000 mm 0,0 UV-I 0 W/m² 5,9 °C 3,2 km/h (1 Bft)
19.10.2016 02:34 8,2 °C 8,2 °C 85 % 1020,0 hPa 0,0 mm 1,5 km/h (1 Bft) SW 229 ° 0 min 0,000 mm 0,0 UV-I 0 W/m² 5,8 °C 3,2 km/h (1 Bft)
19.10.2016 02:35 8,2 °C 8,2 °C 85 % 1019,9 hPa 0,0 mm 0,9 km/h (0 Bft) SW 229 ° 0 min 0,000 mm 0,0 UV-I 0 W/m² 5,8 °C 1,6 km/h (1 Bft)
19.10.2016 02:36 8,2 °C 8,2 °C 85 % 1019,9 hPa 0,0 mm 1,2 km/h (1 Bft) SW 229 ° 0 min 0,000 mm 0,0 UV-I 0 W/m² 5,8 °C 3,2 km/h (1 Bft)
19.10.2016 02:37 8,2 °C 8,2 °C 85 % 1019,9 hPa 0,0 mm 0,9 km/h (0 Bft) SW 229 ° 0 min 0,000 mm 0,0 UV-I 0 W/m² 5,8 °C 1,6 km/h (1 Bft)
19.10.2016 02:38 8,2 °C 8,2 °C 85 % 1019,9 hPa 0,0 mm 2,1 km/h (1 Bft) SW 216 ° 0 min 0,000 mm 0,0 UV-I 0 W/m² 5,8 °C 4,8 km/h (1 Bft)
19.10.2016 02:39 8,2 °C 8,3 °C 85 % 1019,9 hPa 0,0 mm 3,9 km/h (1 Bft) S-SW 192 ° 0 min 0,000 mm 0,0 UV-I 0 W/m² 5,8 °C 4,8 km/h (1 Bft)
19.10.2016 02:40 8,3 °C 8,3 °C 84 % 1019,9 hPa 0,0 mm 3,8 km/h (1 Bft) S 186 ° 0 min 0,000 mm 0,0 UV-I 0 W/m² 5,8 °C 6,4 km/h (2 Bft)
19.10.2016 02:41 8,3 °C 8,3 °C 84 % 1019,9 hPa 0,0 mm 5,1 km/h (1 Bft) S 176 ° 0 min 0,000 mm 0,0 UV-I 0 W/m² 5,8 °C 8,0 km/h (2 Bft)
19.10.2016 02:42 8,4 °C 8,4 °C 84 % 1019,9 hPa 0,0 mm 4,8 km/h (1 Bft) S 177 ° 0 min 0,000 mm 0,0 UV-I 0 W/m² 5,9 °C 6,4 km/h (2 Bft)
19.10.2016 02:43 8,4 °C 8,4 °C 83 % 1019,8 hPa 0,0 mm 4,1 km/h (1 Bft) S 186 ° 0 min 0,000 mm 0,0 UV-I 0 W/m² 5,7 °C 6,4 km/h (2 Bft)
19.10.2016 02:44 8,5 °C 8,5 °C 83 % 1019,9 hPa 0,0 mm 4,2 km/h (1 Bft) S-SW 197 ° 0 min 0,000 mm 0,0 UV-I 0 W/m² 5,8 °C 6,4 km/h (2 Bft)
19.10.2016 02:45 8,5 °C 8,5 °C 84 % 1019,9 hPa 0,0 mm 2,9 km/h (1 Bft) S-SW 197 ° 0 min 0,000 mm 0,0 UV-I 0 W/m² 6,0 °C 6,4 km/h (2 Bft)
19.10.2016 02:46 8,5 °C 8,5 °C 84 % 1019,8 hPa 0,0 mm 2,9 km/h (1 Bft) S-SW 192 ° 0 min 0,000 mm 0,0 UV-I 0 W/m² 6,0 °C 4,8 km/h (1 Bft)
19.10.2016 02:47 8,5 °C 8,5 °C 84 % 1019,8 hPa 0,0 mm 1,9 km/h (1 Bft) S-SW 192 ° 0 min 0,000 mm 0,0 UV-I 0 W/m² 6,0 °C 3,2 km/h (1 Bft)
19.10.2016 02:48 8,4 °C 8,5 °C 84 % 1019,9 hPa 0,0 mm 1,3 km/h (1 Bft) SO 146 ° 0 min 0,000 mm 0,0 UV-I 0 W/m² 5,9 °C 3,2 km/h (1 Bft)
19.10.2016 02:49 8,4 °C 8,4 °C 85 % 1019,9 hPa 0,0 mm 0,0 km/h (0 Bft) SO 146 ° 0 min 0,000 mm 0,0 UV-I 0 W/m² 6,0 °C 0,0 km/h (0 Bft)
19.10.2016 02:50 8,3 °C 8,4 °C 85 % 1019,9 hPa 0,0 mm 1,6 km/h (1 Bft) S-SO 159 ° 0 min 0,000 mm 0,0 UV-I 0 W/m² 5,9 °C 6,4 km/h (2 Bft)
19.10.2016 02:51 8,3 °C 8,3 °C 85 % 1019,9 hPa 0,0 mm 4,2 km/h (1 Bft) S 188 ° 0 min 0,000 mm 0,0 UV-I 0 W/m² 5,9 °C 8,0 km/h (2 Bft)
19.10.2016 02:52 8,2 °C 8,3 °C 86 % 1019,9 hPa 0,0 mm 6,6 km/h (2 Bft) S 187 ° 0 min 0,000 mm 0,0 UV-I 0 W/m² 6,0 °C 9,7 km/h (2 Bft)
19.10.2016 02:53 8,2 °C 8,2 °C 86 % 1019,9 hPa 0,0 mm 4,1 km/h (1 Bft) S 178 ° 0 min 0,000 mm 0,0 UV-I 0 W/m² 6,0 °C 6,4 km/h (2 Bft)
19.10.2016 02:54 8,1 °C 8,2 °C 86 % 1019,9 hPa 0,0 mm 4,4 km/h (1 Bft) S 189 ° 0 min 0,000 mm 0,0 UV-I 0 W/m² 5,9 °C 6,4 km/h (2 Bft)
19.10.2016 02:55 8,1 °C 8,1 °C 86 % 1019,9 hPa 0,0 mm 2,6 km/h (1 Bft) S-SW 207 ° 0 min 0,000 mm 0,0 UV-I 0 W/m² 5,9 °C 6,4 km/h (2 Bft)
19.10.2016 02:56 8,0 °C 8,1 °C 87 % 1019,8 hPa 0,0 mm 3,6 km/h (1 Bft) S 173 ° 0 min 0,000 mm 0,0 UV-I 0 W/m² 6,0 °C 4,8 km/h (1 Bft)
19.10.2016 02:57 7,9 °C 8,0 °C 87 % 1019,9 hPa 0,0 mm 5,1 km/h (1 Bft) S 190 ° 0 min 0,000 mm 0,0 UV-I 0 W/m² 5,9 °C 8,0 km/h (2 Bft)
19.10.2016 02:58 7,9 °C 8,0 °C 87 % 1019,9 hPa 0,0 mm 6,7 km/h (2 Bft) S-SW 197 ° 0 min 0,000 mm 0,0 UV-I 0 W/m² 5,9 °C 8,0 km/h (2 Bft)
19.10.2016 02:59 7,9 °C 7,9 °C 88 % 1019,8 hPa 0,0 mm 5,8 km/h (2 Bft) S-SW 195 ° 0 min 0,000 mm 0,0 UV-I 0 W/m² 6,0 °C 8,0 km/h (2 Bft)
19.10.2016 03:00 7,8 °C 7,9 °C 88 % 1019,8 hPa 0,0 mm 4,3 km/h (1 Bft) S 173 ° 0 min 0,000 mm 0,0 UV-I 0 W/m² 5,9 °C 8,0 km/h (2 Bft)
19.10.2016 03:01 7,8 °C 7,8 °C 88 % 1019,9 hPa 0,0 mm 2,7 km/h (1 Bft) S 173 ° 0 min 0,000 mm 0,0 UV-I 0 W/m² 5,9 °C 4,8 km/h (1 Bft)
19.10.2016 03:02 7,8 °C 7,8 °C 88 % 1019,8 hPa 0,0 mm 2,1 km/h (1 Bft) S 173 ° 0 min 0,000 mm 0,0 UV-I 0 W/m² 5,9 °C 3,2 km/h (1 Bft)
19.10.2016 03:03 7,7 °C 7,8 °C 89 % 1019,9 hPa 0,0 mm 3,6 km/h (1 Bft) S-SW 193 ° 0 min 0,000 mm 0,0 UV-I 0 W/m² 6,0 °C 6,4 km/h (2 Bft)
19.10.2016 03:04 7,6 °C 7,7 °C 89 % 1019,8 hPa 0,0 mm 4,4 km/h (1 Bft) S-SW 196 ° 0 min 0,000 mm 0,0 UV-I 0 W/m² 5,9 °C 6,4 km/h (2 Bft)
19.10.2016 03:05 7,6 °C 7,6 °C 89 % 1019,8 hPa 0,0 mm 3,0 km/h (1 Bft) S-SW 195 ° 0 min 0,000 mm 0,0 UV-I 0 W/m² 5,9 °C 4,8 km/h (1 Bft)
19.10.2016 03:06 7,6 °C 7,6 °C 89 % 1019,7 hPa 0,0 mm 2,5 km/h (1 Bft) S 180 ° 0 min 0,000 mm 0,0 UV-I 0 W/m² 5,9 °C 4,8 km/h (1 Bft)
19.10.2016 03:07 7,5 °C 7,6 °C 90 % 1019,7 hPa 0,0 mm 2,1 km/h (1 Bft) S 180 ° 0 min 0,000 mm 0,0 UV-I 0 W/m² 6,0 °C 3,2 km/h (1 Bft)
19.10.2016 03:08 7,4 °C 7,5 °C 90 % 1019,7 hPa 0,0 mm 1,7 km/h (1 Bft) S 180 ° 0 min 0,000 mm 0,0 UV-I 0 W/m² 5,9 °C 3,2 km/h (1 Bft)
19.10.2016 03:09 7,4 °C 7,5 °C 90 % 1019,7 hPa 0,0 mm 3,4 km/h (1 Bft) S 189 ° 0 min 0,000 mm 0,0 UV-I 0 W/m² 5,9 °C 4,8 km/h (1 Bft)
19.10.2016 03:10 7,4 °C 7,4 °C 90 % 1019,7 hPa 0,0 mm 3,2 km/h (1 Bft) S 189 ° 0 min 0,000 mm 0,0 UV-I 0 W/m² 5,9 °C 4,8 km/h (1 Bft)
19.10.2016 03:11 7,4 °C 7,4 °C 90 % 1019,7 hPa 0,0 mm 1,5 km/h (1 Bft) S 189 ° 0 min 0,000 mm 0,0 UV-I 0 W/m² 5,9 °C 3,2 km/h (1 Bft)
19.10.2016 03:12 7,4 °C 7,4 °C 90 % 1019,7 hPa 0,0 mm 2,3 km/h (1 Bft) S 189 ° 0 min 0,000 mm 0,0 UV-I 0 W/m² 5,9 °C 3,2 km/h (1 Bft)
19.10.2016 03:13 7,4 °C 7,4 °C 90 % 1019,7 hPa 0,0 mm 2,4 km/h (1 Bft) S 189 ° 0 min 0,000 mm 0,0 UV-I 0 W/m² 5,9 °C 3,2 km/h (1 Bft)
19.10.2016 03:14 7,4 °C 7,4 °C 90 % 1019,7 hPa 0,0 mm 2,6 km/h (1 Bft) S-SW 192 ° 0 min 0,000 mm 0,0 UV-I 0 W/m² 5,9 °C 4,8 km/h (1 Bft)
19.10.2016 03:15 7,4 °C 7,4 °C 90 % 1019,7 hPa 0,0 mm 1,5 km/h (1 Bft) S-SW 192 ° 0 min 0,000 mm 0,0 UV-I 0 W/m² 5,9 °C 3,2 km/h (1 Bft)
19.10.2016 03:16 7,4 °C 7,4 °C 91 % 1019,7 hPa 0,0 mm 2,7 km/h (1 Bft) S 189 ° 0 min 0,000 mm 0,0 UV-I 0 W/m² 6,0 °C 3,2 km/h (1 Bft)
19.10.2016 03:17 7,4 °C 7,4 °C 91 % 1019,6 hPa 0,0 mm 2,1 km/h (1 Bft) S 189 ° 0 min 0,000 mm 0,0 UV-I 0 W/m² 6,0 °C 3,2 km/h (1 Bft)
19.10.2016 03:18 7,4 °C 7,4 °C 91 % 1019,6 hPa 0,0 mm 2,0 km/h (1 Bft) S 189 ° 0 min 0,000 mm 0,0 UV-I 0 W/m² 6,0 °C 3,2 km/h (1 Bft)
19.10.2016 03:19 7,4 °C 7,4 °C 91 % 1019,7 hPa 0,0 mm 5,5 km/h (1 Bft) S 178 ° 0 min 0,000 mm 0,0 UV-I 0 W/m² 6,0 °C 8,0 km/h (2 Bft)
19.10.2016 03:20 7,4 °C 7,4 °C 91 % 1019,7 hPa 0,0 mm 4,4 km/h (1 Bft) S-SW 205 ° 0 min 0,000 mm 0,0 UV-I 0 W/m² 6,0 °C 6,4 km/h (2 Bft)
19.10.2016 03:21 7,4 °C 7,4 °C 91 % 1019,7 hPa 0,0 mm 3,4 km/h (1 Bft) S-SW 205 ° 0 min 0,000 mm 0,0 UV-I 0 W/m² 6,0 °C 4,8 km/h (1 Bft)
19.10.2016 03:22 7,3 °C 7,4 °C 91 % 1019,7 hPa 0,0 mm 1,2 km/h (1 Bft) S-SW 205 ° 0 min 0,000 mm 0,0 UV-I 0 W/m² 5,9 °C 3,2 km/h (1 Bft)
19.10.2016 03:23 7,4 °C 7,4 °C 91 % 1019,7 hPa 0,0 mm 1,8 km/h (1 Bft) S-SW 213 ° 0 min 0,000 mm 0,0 UV-I 0 W/m² 6,0 °C 3,2 km/h (1 Bft)
19.10.2016 03:24 7,4 °C 7,4 °C 91 % 1019,7 hPa 0,0 mm 3,8 km/h (1 Bft) S-SW 201 ° 0 min 0,000 mm 0,0 UV-I 0 W/m² 6,0 °C 6,4 km/h (2 Bft)
19.10.2016 03:25 7,4 °C 7,4 °C 90 % 1019,7 hPa 0,0 mm 5,4 km/h (1 Bft) S 190 ° 0 min 0,000 mm 0,0 UV-I 0 W/m² 5,9 °C 8,0 km/h (2 Bft)
19.10.2016 03:26 7,5 °C 7,5 °C 90 % 1019,8 hPa 0,0 mm 4,2 km/h (1 Bft) S-SW 196 ° 0 min 0,000 mm 0,0 UV-I 0 W/m² 6,0 °C 4,8 km/h (1 Bft)
19.10.2016 03:27 7,6 °C 7,6 °C 90 % 1019,7 hPa 0,0 mm 5,4 km/h (1 Bft) S-SW 207 ° 0 min 0,000 mm 0,0 UV-I 0 W/m² 6,1 °C 8,0 km/h (2 Bft)
19.10.2016 03:28 7,6 °C 7,6 °C 90 % 1019,7 hPa 0,0 mm 4,6 km/h (1 Bft) S-SW 198 ° 0 min 0,000 mm 0,0 UV-I 0 W/m² 6,1 °C 6,4 km/h (2 Bft)
19.10.2016 03:29 7,7 °C 7,7 °C 89 % 1019,7 hPa 0,0 mm 2,6 km/h (1 Bft) S-SW 197 ° 0 min 0,000 mm 0,0 UV-I 0 W/m² 6,0 °C 4,8 km/h (1 Bft)
19.10.2016 03:30 7,7 °C 7,7 °C 89 % 1019,7 hPa 0,0 mm 2,3 km/h (1 Bft) S-SW 196 ° 0 min 0,000 mm 0,0 UV-I 0 W/m² 6,0 °C 4,8 km/h (1 Bft)
19.10.2016 03:31 7,7 °C 7,7 °C 89 % 1019,8 hPa 0,0 mm 3,6 km/h (1 Bft) SW 232 ° 0 min 0,000 mm 0,0 UV-I 0 W/m² 6,0 °C 6,4 km/h (2 Bft)
19.10.2016 03:32 7,8 °C 7,8 °C 89 % 1019,8 hPa 0,0 mm 2,5 km/h (1 Bft) W 262 ° 0 min 0,000 mm 0,0 UV-I 0 W/m² 6,1 °C 4,8 km/h (1 Bft)
19.10.2016 03:33 7,8 °C 7,8 °C 89 % 1019,7 hPa 0,0 mm 4,4 km/h (1 Bft) W-SW 244 ° 0 min 0,000 mm 0,0 UV-I 0 W/m² 6,1 °C 4,8 km/h (1 Bft)
19.10.2016 03:34 7,8 °C 7,8 °C 89 % 1019,7 hPa 0,0 mm 3,8 km/h (1 Bft) W-SW 238 ° 0 min 0,000 mm 0,0 UV-I 0 W/m² 6,1 °C 4,8 km/h (1 Bft)
19.10.2016 03:35 7,8 °C 7,8 °C 89 % 1019,6 hPa 0,0 mm 4,2 km/h (1 Bft) W-SW 258 ° 0 min 0,000 mm 0,0 UV-I 0 W/m² 6,1 °C 4,8 km/h (1 Bft)
19.10.2016 03:36 7,8 °C 7,8 °C 89 % 1019,7 hPa 0,0 mm 4,1 km/h (1 Bft) W-SW 250 ° 0 min 0,000 mm 0,0 UV-I 0 W/m² 6,1 °C 6,4 km/h (2 Bft)
19.10.2016 03:37 7,8 °C 7,8 °C 89 % 1019,6 hPa 0,0 mm 3,7 km/h (1 Bft) W-SW 256 ° 0 min 0,000 mm 0,0 UV-I 0 W/m² 6,1 °C 6,4 km/h (2 Bft)
19.10.2016 03:38 7,8 °C 7,8 °C 89 % 1019,6 hPa 0,0 mm 4,8 km/h (1 Bft) W-SW 243 ° 0 min 0,000 mm 0,0 UV-I 0 W/m² 6,1 °C 6,4 km/h (2 Bft)
19.10.2016 03:39 7,8 °C 7,8 °C 89 % 1019,6 hPa 0,0 mm 3,6 km/h (1 Bft) W-SW 250 ° 0 min 0,000 mm 0,0 UV-I 0 W/m² 6,1 °C 4,8 km/h (1 Bft)
19.10.2016 03:40 7,9 °C 7,9 °C 89 % 1019,6 hPa 0,0 mm 2,6 km/h (1 Bft) S-SW 213 ° 0 min 0,000 mm 0,0 UV-I 0 W/m² 6,2 °C 4,8 km/h (1 Bft)
19.10.2016 03:41 7,9 °C 7,9 °C 89 % 1019,6 hPa 0,0 mm 3,8 km/h (1 Bft) W-SW 239 ° 0 min 0,000 mm 0,0 UV-I 0 W/m² 6,2 °C 6,4 km/h (2 Bft)
19.10.2016 03:42 7,9 °C 7,9 °C 89 % 1019,5 hPa 0,0 mm 3,4 km/h (1 Bft) W-SW 252 ° 0 min 0,000 mm 0,0 UV-I 0 W/m² 6,2 °C 4,8 km/h (1 Bft)
19.10.2016 03:43 7,9 °C 7,9 °C 89 % 1019,6 hPa 0,0 mm 4,4 km/h (1 Bft) W-SW 253 ° 0 min 0,000 mm 0,0 UV-I 0 W/m² 6,2 °C 6,4 km/h (2 Bft)
19.10.2016 03:44 7,9 °C 7,9 °C 89 % 1019,6 hPa 0,0 mm 3,5 km/h (1 Bft) W-NW 288 ° 0 min 0,000 mm 0,0 UV-I 0 W/m² 6,2 °C 6,4 km/h (2 Bft)
19.10.2016 03:45 7,9 °C 7,9 °C 89 % 1019,6 hPa 0,0 mm 3,8 km/h (1 Bft) W-SW 244 ° 0 min 0,000 mm 0,0 UV-I 0 W/m² 6,2 °C 8,0 km/h (2 Bft)
19.10.2016 03:46 7,9 °C 7,9 °C 90 % 1019,6 hPa 0,0 mm 4,8 km/h (1 Bft) W 271 ° 0 min 0,000 mm 0,0 UV-I 0 W/m² 6,4 °C 6,4 km/h (2 Bft)
19.10.2016 03:47 7,9 °C 7,9 °C 90 % 1019,5 hPa 0,0 mm 3,0 km/h (1 Bft) W-NW 285 ° 0 min 0,000 mm 0,0 UV-I 0 W/m² 6,4 °C 4,8 km/h (1 Bft)
19.10.2016 03:48 7,8 °C 7,9 °C 90 % 1019,5 hPa 0,0 mm 3,1 km/h (1 Bft) W 261 ° 0 min 0,000 mm 0,0 UV-I 0 W/m² 6,3 °C 4,8 km/h (1 Bft)
19.10.2016 03:49 7,8 °C 7,9 °C 90 % 1019,6 hPa 0,0 mm 3,8 km/h (1 Bft) W 261 ° 0 min 0,000 mm 0,0 UV-I 0 W/m² 6,3 °C 4,8 km/h (1 Bft)
19.10.2016 03:50 7,8 °C 7,8 °C 90 % 1019,5 hPa 0,0 mm 5,6 km/h (1 Bft) W-SW 255 ° 0 min 0,000 mm 0,0 UV-I 0 W/m² 6,3 °C 9,7 km/h (2 Bft)
19.10.2016 03:51 7,8 °C 7,8 °C 91 % 1019,5 hPa 0,0 mm 4,6 km/h (1 Bft) W 264 ° 0 min 0,000 mm 0,0 UV-I 0 W/m² 6,4 °C 6,4 km/h (2 Bft)
19.10.2016 03:52 7,8 °C 7,8 °C 91 % 1019,5 hPa 0,2 mm 2,4 km/h (1 Bft) W 264 ° 0 min 0,000 mm 0,0 UV-I 0 W/m² 6,4 °C 4,8 km/h (1 Bft)
19.10.2016 03:53 7,7 °C 7,8 °C 91 % 1019,5 hPa 0,0 mm 6,6 km/h (2 Bft) W 266 ° 0 min 0,000 mm 0,0 UV-I 0 W/m² 6,3 °C 12,9 km/h (3 Bft)
19.10.2016 03:54 7,7 °C 7,8 °C 90 % 1019,4 hPa 0,0 mm 6,9 km/h (2 Bft) W 271 ° 0 min 0,000 mm 0,0 UV-I 0 W/m² 6,2 °C 11,3 km/h (2 Bft)
19.10.2016 03:55 7,8 °C 7,8 °C 90 % 1019,4 hPa 0,0 mm 6,0 km/h (2 Bft) W 263 ° 0 min 0,000 mm 0,0 UV-I 0 W/m² 6,3 °C 9,7 km/h (2 Bft)
19.10.2016 03:56 7,8 °C 7,8 °C 90 % 1019,4 hPa 0,0 mm 4,8 km/h (1 Bft) W-SW 250 ° 0 min 0,000 mm 0,0 UV-I 0 W/m² 6,3 °C 8,0 km/h (2 Bft)
19.10.2016 03:57 7,8 °C 7,8 °C 90 % 1019,4 hPa 0,0 mm 5,1 km/h (1 Bft) W-SW 252 ° 0 min 0,000 mm 0,0 UV-I 0 W/m² 6,3 °C 8,0 km/h (2 Bft)
19.10.2016 03:58 7,8 °C 7,8 °C 90 % 1019,4 hPa 0,0 mm 4,7 km/h (1 Bft) W-SW 248 ° 0 min 0,000 mm 0,0 UV-I 0 W/m² 6,3 °C 6,4 km/h (2 Bft)
19.10.2016 03:59 7,8 °C 7,8 °C 90 % 1019,4 hPa 0,0 mm 8,4 km/h (2 Bft) W-SW 242 ° 0 min 0,000 mm 0,0 UV-I 0 W/m² 6,3 °C 11,3 km/h (2 Bft)
19.10.2016 04:00 7,7 °C 7,8 °C 91 % 1019,3 hPa 0,0 mm 4,2 km/h (1 Bft) W-SW 255 ° 0 min 0,000 mm 0,0 UV-I 0 W/m² 6,3 °C 6,4 km/h (2 Bft)
19.10.2016 04:01 7,7 °C 7,8 °C 91 % 1019,3 hPa 0,0 mm 4,1 km/h (1 Bft) W-SW 252 ° 0 min 0,000 mm 0,0 UV-I 0 W/m² 6,3 °C 8,0 km/h (2 Bft)
19.10.2016 04:02 7,7 °C 7,7 °C 91 % 1019,3 hPa 0,0 mm 6,2 km/h (2 Bft) W 279 ° 0 min 0,000 mm 0,0 UV-I 0 W/m² 6,3 °C 12,9 km/h (3 Bft)
19.10.2016 04:03 7,7 °C 7,7 °C 91 % 1019,3 hPa 0,0 mm 4,4 km/h (1 Bft) S 171 ° 0 min 0,000 mm 0,0 UV-I 0 W/m² 6,3 °C 11,3 km/h (2 Bft)
19.10.2016 04:04 7,7 °C 7,7 °C 91 % 1019,3 hPa 0,0 mm 3,4 km/h (1 Bft) W-SW 242 ° 0 min 0,000 mm 0,0 UV-I 0 W/m² 6,3 °C 8,0 km/h (2 Bft)
19.10.2016 04:05 7,7 °C 7,7 °C 91 % 1019,2 hPa 0,0 mm 6,0 km/h (2 Bft) W-SW 257 ° 0 min 0,000 mm 0,0 UV-I 0 W/m² 6,3 °C 9,7 km/h (2 Bft)
19.10.2016 04:06 7,7 °C 7,7 °C 91 % 1019,3 hPa 0,0 mm 5,2 km/h (1 Bft) SW 228 ° 0 min 0,000 mm 0,0 UV-I 0 W/m² 6,3 °C 8,0 km/h (2 Bft)
19.10.2016 04:07 7,7 °C 7,7 °C 91 % 1019,3 hPa 0,0 mm 2,1 km/h (1 Bft) S-SW 197 ° 0 min 0,000 mm 0,0 UV-I 0 W/m² 6,3 °C 4,8 km/h (1 Bft)
19.10.2016 04:08 7,7 °C 7,7 °C 90 % 1019,2 hPa 0,0 mm 3,1 km/h (1 Bft) W 275 ° 0 min 0,000 mm 0,0 UV-I 0 W/m² 6,2 °C 6,4 km/h (2 Bft)
19.10.2016 04:09 7,7 °C 7,7 °C 90 % 1019,2 hPa 0,0 mm 2,9 km/h (1 Bft) S-SW 213 ° 0 min 0,000 mm 0,0 UV-I 0 W/m² 6,2 °C 6,4 km/h (2 Bft)
19.10.2016 04:10 7,7 °C 7,7 °C 90 % 1019,2 hPa 0,0 mm 3,2 km/h (1 Bft) W-SW 248 ° 0 min 0,000 mm 0,0 UV-I 0 W/m² 6,2 °C 14,5 km/h (3 Bft)
19.10.2016 04:11 7,8 °C 7,8 °C 90 % 1019,2 hPa 0,0 mm 9,2 km/h (2 Bft) SW 227 ° 0 min 0,000 mm 0,0 UV-I 0 W/m² 6,3 °C 12,9 km/h (3 Bft)
19.10.2016 04:12 7,7 °C 7,8 °C 90 % 1019,1 hPa 0,0 mm 4,5 km/h (1 Bft) S-SW 205 ° 0 min 0,000 mm 0,0 UV-I 0 W/m² 6,2 °C 6,4 km/h (2 Bft)
19.10.2016 04:13 7,8 °C 7,8 °C 90 % 1019,1 hPa 0,0 mm 2,3 km/h (1 Bft) S 186 ° 0 min 0,000 mm 0,0 UV-I 0 W/m² 6,3 °C 3,2 km/h (1 Bft)
19.10.2016 04:14 7,8 °C 7,8 °C 89 % 1019,1 hPa 0,0 mm 2,7 km/h (1 Bft) S 187 ° 0 min 0,000 mm 0,0 UV-I 0 W/m² 6,1 °C 4,8 km/h (1 Bft)
19.10.2016 04:15 7,8 °C 7,8 °C 89 % 1019,1 hPa 0,0 mm 1,5 km/h (1 Bft) S-SW 213 ° 0 min 0,000 mm 0,0 UV-I 0 W/m² 6,1 °C 3,2 km/h (1 Bft)
19.10.2016 04:16 7,8 °C 7,8 °C 89 % 1019,1 hPa 0,0 mm 3,6 km/h (1 Bft) W 263 ° 0 min 0,000 mm 0,0 UV-I 0 W/m² 6,1 °C 4,8 km/h (1 Bft)
19.10.2016 04:17 7,8 °C 7,8 °C 89 % 1019,1 hPa 0,0 mm 3,7 km/h (1 Bft) S-SW 213 ° 0 min 0,000 mm 0,0 UV-I 0 W/m² 6,1 °C 6,4 km/h (2 Bft)
19.10.2016 04:18 7,8 °C 7,8 °C 89 % 1019,1 hPa 0,0 mm 1,3 km/h (1 Bft) S-SW 200 ° 0 min 0,000 mm 0,0 UV-I 0 W/m² 6,1 °C 4,8 km/h (1 Bft)
19.10.2016 04:19 7,8 °C 7,8 °C 89 % 1019,0 hPa 0,0 mm 3,0 km/h (1 Bft) S 169 ° 0 min 0,000 mm 0,0 UV-I 0 W/m² 6,1 °C 8,0 km/h (2 Bft)
19.10.2016 04:20 7,8 °C 7,8 °C 89 % 1019,1 hPa 0,0 mm 1,9 km/h (1 Bft) SW 235 ° 0 min 0,000 mm 0,0 UV-I 0 W/m² 6,1 °C 3,2 km/h (1 Bft)
19.10.2016 04:21 7,8 °C 7,8 °C 89 % 1019,0 hPa 0,0 mm 3,4 km/h (1 Bft) W-SW 240 ° 0 min 0,000 mm 0,0 UV-I 0 W/m² 6,1 °C 6,4 km/h (2 Bft)
19.10.2016 04:22 7,8 °C 7,8 °C 89 % 1019,0 hPa 0,0 mm 3,6 km/h (1 Bft) W-SW 242 ° 0 min 0,000 mm 0,0 UV-I 0 W/m² 6,1 °C 8,0 km/h (2 Bft)
19.10.2016 04:23 7,7 °C 7,8 °C 89 % 1019,0 hPa 0,0 mm 2,8 km/h (1 Bft) W-SW 254 ° 0 min 0,000 mm 0,0 UV-I 0 W/m² 6,0 °C 6,4 km/h (2 Bft)
19.10.2016 04:24 7,7 °C 7,8 °C 89 % 1019,0 hPa 0,0 mm 2,7 km/h (1 Bft) S-SW 194 ° 0 min 0,000 mm 0,0 UV-I 0 W/m² 6,0 °C 4,8 km/h (1 Bft)
19.10.2016 04:25 7,7 °C 7,7 °C 89 % 1019,0 hPa 0,0 mm 3,2 km/h (1 Bft) S-SW 202 ° 0 min 0,000 mm 0,0 UV-I 0 W/m² 6,0 °C 4,8 km/h (1 Bft)
19.10.2016 04:26 7,7 °C 7,7 °C 89 % 1019,0 hPa 0,0 mm 3,4 km/h (1 Bft) SW 216 ° 0 min 0,000 mm 0,0 UV-I 0 W/m² 6,0 °C 4,8 km/h (1 Bft)
19.10.2016 04:27 7,7 °C 7,7 °C 89 % 1019,0 hPa 0,0 mm 1,9 km/h (1 Bft) S-SW 208 ° 0 min 0,000 mm 0,0 UV-I 0 W/m² 6,0 °C 3,2 km/h (1 Bft)
19.10.2016 04:28 7,7 °C 7,8 °C 89 % 1019,0 hPa 0,0 mm 2,1 km/h (1 Bft) S-SW 208 ° 0 min 0,000 mm 0,0 UV-I 0 W/m² 6,0 °C 3,2 km/h (1 Bft)
19.10.2016 04:29 7,8 °C 7,8 °C 89 % 1018,9 hPa 0,0 mm 3,6 km/h (1 Bft) SW 235 ° 0 min 0,000 mm 0,0 UV-I 0 W/m² 6,1 °C 6,4 km/h (2 Bft)
19.10.2016 04:30 7,8 °C 7,8 °C 89 % 1018,9 hPa 0,0 mm 6,3 km/h (2 Bft) W-SW 249 ° 0 min 0,000 mm 0,0 UV-I 0 W/m² 6,1 °C 11,3 km/h (2 Bft)
19.10.2016 04:31 7,8 °C 7,8 °C 88 % 1018,9 hPa 0,0 mm 4,0 km/h (1 Bft) W-SW 246 ° 0 min 0,000 mm 0,0 UV-I 0 W/m² 5,9 °C 8,0 km/h (2 Bft)
19.10.2016 04:32 7,8 °C 7,8 °C 88 % 1019,0 hPa 0,0 mm 6,6 km/h (2 Bft) SW 235 ° 0 min 0,000 mm 0,0 UV-I 0 W/m² 5,9 °C 9,7 km/h (2 Bft)
19.10.2016 04:33 7,8 °C 7,8 °C 88 % 1018,9 hPa 0,0 mm 1,2 km/h (1 Bft) SW 236 ° 0 min 0,000 mm 0,0 UV-I 0 W/m² 5,9 °C 3,2 km/h (1 Bft)
19.10.2016 04:34 7,8 °C 7,8 °C 88 % 1018,9 hPa 0,0 mm 1,8 km/h (1 Bft) SW 236 ° 0 min 0,000 mm 0,0 UV-I 0 W/m² 5,9 °C 3,2 km/h (1 Bft)
19.10.2016 04:35 7,8 °C 7,8 °C 88 % 1018,9 hPa 0,0 mm 4,6 km/h (1 Bft) S-SW 205 ° 0 min 0,000 mm 0,0 UV-I 0 W/m² 5,9 °C 9,7 km/h (2 Bft)
19.10.2016 04:36 7,7 °C 7,8 °C 88 % 1018,9 hPa 0,0 mm 1,3 km/h (1 Bft) S-SW 196 ° 0 min 0,000 mm 0,0 UV-I 0 W/m² 5,8 °C 3,2 km/h (1 Bft)
19.10.2016 04:37 7,7 °C 7,8 °C 88 % 1018,9 hPa 0,0 mm 3,2 km/h (1 Bft) S 182 ° 0 min 0,000 mm 0,0 UV-I 0 W/m² 5,8 °C 6,4 km/h (2 Bft)
19.10.2016 04:38 7,8 °C 7,8 °C 88 % 1018,9 hPa 0,0 mm 4,8 km/h (1 Bft) SW 236 ° 0 min 0,000 mm 0,0 UV-I 0 W/m² 5,9 °C 8,0 km/h (2 Bft)
19.10.2016 04:39 7,8 °C 7,8 °C 88 % 1018,9 hPa 0,0 mm 3,4 km/h (1 Bft) W-SW 238 ° 0 min 0,000 mm 0,0 UV-I 0 W/m² 5,9 °C 8,0 km/h (2 Bft)
19.10.2016 04:40 7,8 °C 7,8 °C 88 % 1018,9 hPa 0,0 mm 3,6 km/h (1 Bft) W-SW 254 ° 0 min 0,000 mm 0,0 UV-I 0 W/m² 5,9 °C 6,4 km/h (2 Bft)
19.10.2016 04:41 7,8 °C 7,8 °C 88 % 1018,9 hPa 0,0 mm 3,4 km/h (1 Bft) W-SW 255 ° 0 min 0,000 mm 0,0 UV-I 0 W/m² 5,9 °C 4,8 km/h (1 Bft)
19.10.2016 04:42 7,8 °C 7,8 °C 88 % 1018,9 hPa 0,0 mm 1,8 km/h (1 Bft) W-SW 254 ° 0 min 0,000 mm 0,0 UV-I 0 W/m² 5,9 °C 3,2 km/h (1 Bft)
19.10.2016 04:43 7,8 °C 7,8 °C 88 % 1018,9 hPa 0,0 mm 2,7 km/h (1 Bft) W-SW 255 ° 0 min 0,000 mm 0,0 UV-I 0 W/m² 5,9 °C 4,8 km/h (1 Bft)
19.10.2016 04:44 7,8 °C 7,8 °C 88 % 1018,9 hPa 0,0 mm 4,9 km/h (1 Bft) SW 229 ° 0 min 0,000 mm 0,0 UV-I 0 W/m² 5,9 °C 9,7 km/h (2 Bft)
19.10.2016 04:45 7,8 °C 7,8 °C 88 % 1018,9 hPa 0,0 mm 3,6 km/h (1 Bft) W-SW 245 ° 0 min 0,000 mm 0,0 UV-I 0 W/m² 5,9 °C 6,4 km/h (2 Bft)
19.10.2016 04:46 7,8 °C 7,8 °C 88 % 1018,9 hPa 0,0 mm 3,0 km/h (1 Bft) W 261 ° 0 min 0,000 mm 0,0 UV-I 0 W/m² 5,9 °C 6,4 km/h (2 Bft)
19.10.2016 04:47 7,8 °C 7,8 °C 88 % 1018,8 hPa 0,0 mm 3,6 km/h (1 Bft) SW 223 ° 0 min 0,000 mm 0,0 UV-I 0 W/m² 5,9 °C 4,8 km/h (1 Bft)
19.10.2016 04:48 7,8 °C 7,8 °C 88 % 1018,8 hPa 0,0 mm 2,9 km/h (1 Bft) SW 224 ° 0 min 0,000 mm 0,0 UV-I 0 W/m² 5,9 °C 4,8 km/h (1 Bft)
19.10.2016 04:49 7,8 °C 7,8 °C 88 % 1018,8 hPa 0,0 mm 4,4 km/h (1 Bft) W-SW 257 ° 0 min 0,000 mm 0,0 UV-I 0 W/m² 5,9 °C 8,0 km/h (2 Bft)
19.10.2016 04:50 7,8 °C 7,8 °C 88 % 1018,7 hPa 0,0 mm 4,7 km/h (1 Bft) W-SW 250 ° 0 min 0,000 mm 0,0 UV-I 0 W/m² 5,9 °C 6,4 km/h (2 Bft)
19.10.2016 04:51 7,8 °C 7,8 °C 88 % 1018,8 hPa 0,0 mm 5,1 km/h (1 Bft) W-SW 258 ° 0 min 0,000 mm 0,0 UV-I 0 W/m² 5,9 °C 8,0 km/h (2 Bft)
19.10.2016 04:52 7,8 °C 7,8 °C 88 % 1018,7 hPa 0,0 mm 3,6 km/h (1 Bft) W-SW 255 ° 0 min 0,000 mm 0,0 UV-I 0 W/m² 5,9 °C 4,8 km/h (1 Bft)
19.10.2016 04:53 7,8 °C 7,8 °C 88 % 1018,8 hPa 0,0 mm 2,5 km/h (1 Bft) S-SW 204 ° 0 min 0,000 mm 0,0 UV-I 0 W/m² 5,9 °C 4,8 km/h (1 Bft)
19.10.2016 04:54 7,9 °C 7,9 °C 88 % 1018,7 hPa 0,0 mm 1,6 km/h (1 Bft) S-SW 209 ° 0 min 0,000 mm 0,0 UV-I 0 W/m² 6,0 °C 3,2 km/h (1 Bft)
19.10.2016 04:55 7,9 °C 7,9 °C 88 % 1018,7 hPa 0,0 mm 5,6 km/h (1 Bft) SW 220 ° 0 min 0,000 mm 0,0 UV-I 0 W/m² 6,0 °C 9,7 km/h (2 Bft)
19.10.2016 04:56 7,9 °C 7,9 °C 88 % 1018,7 hPa 0,0 mm 6,4 km/h (2 Bft) SW 221 ° 0 min 0,000 mm 0,0 UV-I 0 W/m² 6,0 °C 9,7 km/h (2 Bft)
19.10.2016 04:57 7,9 °C 7,9 °C 88 % 1018,6 hPa 0,0 mm 1,2 km/h (1 Bft) SW 221 ° 0 min 0,000 mm 0,0 UV-I 0 W/m² 6,0 °C 1,6 km/h (1 Bft)
19.10.2016 04:58 7,9 °C 7,9 °C 88 % 1018,6 hPa 0,0 mm 6,2 km/h (2 Bft) W-SW 255 ° 0 min 0,000 mm 0,0 UV-I 0 W/m² 6,0 °C 12,9 km/h (3 Bft)
19.10.2016 04:59 7,9 °C 7,9 °C 88 % 1018,6 hPa 0,0 mm 5,5 km/h (1 Bft) W-SW 254 ° 0 min 0,000 mm 0,0 UV-I 0 W/m² 6,0 °C 9,7 km/h (2 Bft)
19.10.2016 05:00 7,8 °C 7,9 °C 88 % 1018,6 hPa 0,0 mm 8,0 km/h (2 Bft) W-SW 256 ° 0 min 0,000 mm 0,0 UV-I 0 W/m² 5,9 °C 14,5 km/h (3 Bft)
19.10.2016 05:01 7,8 °C 7,8 °C 88 % 1018,6 hPa 0,0 mm 9,6 km/h (2 Bft) SW 226 ° 0 min 0,000 mm 0,0 UV-I 0 W/m² 5,9 °C 16,1 km/h (3 Bft)
19.10.2016 05:02 7,8 °C 7,8 °C 88 % 1018,6 hPa 0,0 mm 8,6 km/h (2 Bft) W-SW 257 ° 0 min 0,000 mm 0,0 UV-I 0 W/m² 5,9 °C 11,3 km/h (2 Bft)
19.10.2016 05:03 7,8 °C 7,8 °C 88 % 1018,5 hPa 0,0 mm 6,9 km/h (2 Bft) W-SW 258 ° 0 min 0,000 mm 0,0 UV-I 0 W/m² 5,9 °C 12,9 km/h (3 Bft)
19.10.2016 05:04 7,8 °C 7,8 °C 89 % 1018,6 hPa 0,0 mm 5,6 km/h (1 Bft) W-SW 253 ° 0 min 0,000 mm 0,0 UV-I 0 W/m² 6,1 °C 9,7 km/h (2 Bft)
19.10.2016 05:05 7,8 °C 7,8 °C 89 % 1018,6 hPa 0,0 mm 5,7 km/h (1 Bft) W-SW 239 ° 0 min 0,000 mm 0,0 UV-I 0 W/m² 6,1 °C 6,4 km/h (2 Bft)
19.10.2016 05:06 7,8 °C 7,8 °C 89 % 1018,6 hPa 0,0 mm 4,4 km/h (1 Bft) W-SW 257 ° 0 min 0,000 mm 0,0 UV-I 0 W/m² 6,1 °C 6,4 km/h (2 Bft)
19.10.2016 05:07 7,8 °C 7,8 °C 89 % 1018,6 hPa 0,0 mm 3,1 km/h (1 Bft) W-SW 256 ° 0 min 0,000 mm 0,0 UV-I 0 W/m² 6,1 °C 6,4 km/h (2 Bft)
19.10.2016 05:08 7,7 °C 7,8 °C 89 % 1018,6 hPa 0,0 mm 4,1 km/h (1 Bft) W-SW 249 ° 0 min 0,000 mm 0,0 UV-I 0 W/m² 6,0 °C 8,0 km/h (2 Bft)
19.10.2016 05:09 7,7 °C 7,8 °C 89 % 1018,6 hPa 0,0 mm 7,4 km/h (2 Bft) W-SW 245 ° 0 min 0,000 mm 0,0 UV-I 0 W/m² 6,0 °C 11,3 km/h (2 Bft)
19.10.2016 05:10 7,7 °C 7,7 °C 89 % 1018,6 hPa 0,0 mm 4,2 km/h (1 Bft) W-SW 247 ° 0 min 0,000 mm 0,0 UV-I 0 W/m² 6,0 °C 8,0 km/h (2 Bft)
19.10.2016 05:11 7,7 °C 7,7 °C 89 % 1018,6 hPa 0,0 mm 3,6 km/h (1 Bft) W-SW 243 ° 0 min 0,000 mm 0,0 UV-I 0 W/m² 6,0 °C 8,0 km/h (2 Bft)
19.10.2016 05:12 7,7 °C 7,7 °C 89 % 1018,7 hPa 0,0 mm 2,7 km/h (1 Bft) W 269 ° 0 min 0,000 mm 0,0 UV-I 0 W/m² 6,0 °C 4,8 km/h (1 Bft)
19.10.2016 05:13 7,7 °C 7,7 °C 89 % 1018,6 hPa 0,0 mm 4,4 km/h (1 Bft) SW 236 ° 0 min 0,000 mm 0,0 UV-I 0 W/m² 6,0 °C 8,0 km/h (2 Bft)
19.10.2016 05:14 7,7 °C 7,7 °C 89 % 1018,6 hPa 0,0 mm 1,4 km/h (1 Bft) SW 236 ° 0 min 0,000 mm 0,0 UV-I 0 W/m² 6,0 °C 3,2 km/h (1 Bft)
19.10.2016 05:15 7,7 °C 7,7 °C 89 % 1018,6 hPa 0,0 mm 0,7 km/h (0 Bft) SW 236 ° 0 min 0,000 mm 0,0 UV-I 0 W/m² 6,0 °C 1,6 km/h (1 Bft)
19.10.2016 05:16 7,7 °C 7,7 °C 89 % 1018,6 hPa 0,0 mm 1,1 km/h (1 Bft) SW 236 ° 0 min 0,000 mm 0,0 UV-I 0 W/m² 6,0 °C 3,2 km/h (1 Bft)
19.10.2016 05:17 7,7 °C 7,7 °C 89 % 1018,6 hPa 0,0 mm 5,6 km/h (1 Bft) W-SW 252 ° 0 min 0,000 mm 0,0 UV-I 0 W/m² 6,0 °C 11,3 km/h (2 Bft)
19.10.2016 05:18 7,8 °C 7,8 °C 89 % 1018,6 hPa 0,0 mm 5,0 km/h (1 Bft) W-SW 254 ° 0 min 0,000 mm 0,0 UV-I 0 W/m² 6,1 °C 8,0 km/h (2 Bft)
19.10.2016 05:19 7,8 °C 7,8 °C 88 % 1018,5 hPa 0,0 mm 3,2 km/h (1 Bft) W-SW 258 ° 0 min 0,000 mm 0,0 UV-I 0 W/m² 5,9 °C 4,8 km/h (1 Bft)
19.10.2016 05:20 7,8 °C 7,8 °C 88 % 1018,6 hPa 0,0 mm 4,5 km/h (1 Bft) W-SW 245 ° 0 min 0,000 mm 0,0 UV-I 0 W/m² 5,9 °C 6,4 km/h (2 Bft)
19.10.2016 05:21 7,8 °C 7,8 °C 89 % 1018,5 hPa 0,0 mm 4,0 km/h (1 Bft) W-SW 238 ° 0 min 0,000 mm 0,0 UV-I 0 W/m² 6,1 °C 6,4 km/h (2 Bft)
19.10.2016 05:22 7,8 °C 7,8 °C 89 % 1018,6 hPa 0,0 mm 4,0 km/h (1 Bft) W-SW 254 ° 0 min 0,000 mm 0,0 UV-I 0 W/m² 6,1 °C 6,4 km/h (2 Bft)
19.10.2016 05:23 7,7 °C 7,8 °C 89 % 1018,5 hPa 0,0 mm 4,1 km/h (1 Bft) W-SW 246 ° 0 min 0,000 mm 0,0 UV-I 0 W/m² 6,0 °C 6,4 km/h (2 Bft)
19.10.2016 05:24 7,7 °C 7,7 °C 89 % 1018,5 hPa 0,0 mm 3,7 km/h (1 Bft) W-SW 246 ° 0 min 0,000 mm 0,0 UV-I 0 W/m² 6,0 °C 4,8 km/h (1 Bft)
19.10.2016 05:25 7,7 °C 7,7 °C 89 % 1018,5 hPa 0,0 mm 4,1 km/h (1 Bft) W 276 ° 0 min 0,000 mm 0,0 UV-I 0 W/m² 6,0 °C 6,4 km/h (2 Bft)
19.10.2016 05:26 7,7 °C 7,7 °C 89 % 1018,6 hPa 0,0 mm 4,0 km/h (1 Bft) W 275 ° 0 min 0,000 mm 0,0 UV-I 0 W/m² 6,0 °C 4,8 km/h (1 Bft)
19.10.2016 05:27 7,7 °C 7,7 °C 89 % 1018,6 hPa 0,0 mm 4,0 km/h (1 Bft) W-SW 258 ° 0 min 0,000 mm 0,0 UV-I 0 W/m² 6,0 °C 6,4 km/h (2 Bft)
19.10.2016 05:28 7,6 °C 7,7 °C 89 % 1018,5 hPa 0,0 mm 5,4 km/h (1 Bft) W-SW 244 ° 0 min 0,000 mm 0,0 UV-I 0 W/m² 5,9 °C 8,0 km/h (2 Bft)
19.10.2016 05:29 7,6 °C 7,6 °C 89 % 1018,5 hPa 0,0 mm 1,9 km/h (1 Bft) W-SW 244 ° 0 min 0,000 mm 0,0 UV-I 0 W/m² 5,9 °C 3,2 km/h (1 Bft)
19.10.2016 05:30 7,6 °C 7,6 °C 90 % 1018,5 hPa 0,0 mm 2,5 km/h (1 Bft) W-SW 244 ° 0 min 0,000 mm 0,0 UV-I 0 W/m² 6,1 °C 4,8 km/h (1 Bft)
19.10.2016 05:31 7,6 °C 7,6 °C 89 % 1018,5 hPa 0,0 mm 0,9 km/h (0 Bft) W-SW 244 ° 0 min 0,000 mm 0,0 UV-I 0 W/m² 5,9 °C 3,2 km/h (1 Bft)
19.10.2016 05:32 7,6 °C 7,7 °C 89 % 1018,5 hPa 0,0 mm 4,0 km/h (1 Bft) S-SW 213 ° 0 min 0,000 mm 0,0 UV-I 0 W/m² 5,9 °C 6,4 km/h (2 Bft)
19.10.2016 05:33 7,6 °C 7,6 °C 89 % 1018,5 hPa 0,0 mm 4,3 km/h (1 Bft) W-SW 255 ° 0 min 0,000 mm 0,0 UV-I 0 W/m² 5,9 °C 9,7 km/h (2 Bft)
19.10.2016 05:34 7,7 °C 7,7 °C 89 % 1018,5 hPa 0,0 mm 2,3 km/h (1 Bft) SW 220 ° 0 min 0,000 mm 0,0 UV-I 0 W/m² 6,0 °C 4,8 km/h (1 Bft)
19.10.2016 05:35 7,7 °C 7,7 °C 89 % 1018,5 hPa 0,0 mm 2,3 km/h (1 Bft) W-SW 254 ° 0 min 0,000 mm 0,0 UV-I 0 W/m² 6,0 °C 4,8 km/h (1 Bft)
19.10.2016 05:36 7,8 °C 7,8 °C 89 % 1018,5 hPa 0,0 mm 2,3 km/h (1 Bft) S-SW 198 ° 0 min 0,000 mm 0,0 UV-I 0 W/m² 6,1 °C 4,8 km/h (1 Bft)
19.10.2016 05:37 7,7 °C 7,8 °C 89 % 1018,6 hPa 0,0 mm 1,4 km/h (1 Bft) S-SW 198 ° 0 min 0,000 mm 0,0 UV-I 0 W/m² 6,0 °C 3,2 km/h (1 Bft)
19.10.2016 05:38 7,8 °C 7,8 °C 89 % 1018,5 hPa 0,0 mm 4,2 km/h (1 Bft) S-SW 196 ° 0 min 0,000 mm 0,0 UV-I 0 W/m² 6,1 °C 6,4 km/h (2 Bft)
19.10.2016 05:39 7,8 °C 7,8 °C 89 % 1018,5 hPa 0,0 mm 4,7 km/h (1 Bft) W-SW 240 ° 0 min 0,000 mm 0,0 UV-I 0 W/m² 6,1 °C 6,4 km/h (2 Bft)
19.10.2016 05:40 7,8 °C 7,8 °C 89 % 1018,5 hPa 0,0 mm 4,4 km/h (1 Bft) W-SW 248 ° 0 min 0,000 mm 0,0 UV-I 0 W/m² 6,1 °C 8,0 km/h (2 Bft)
19.10.2016 05:41 7,8 °C 7,8 °C 88 % 1018,5 hPa 0,0 mm 4,3 km/h (1 Bft) SW 221 ° 0 min 0,000 mm 0,0 UV-I 0 W/m² 5,9 °C 4,8 km/h (1 Bft)
19.10.2016 05:42 7,8 °C 7,8 °C 88 % 1018,5 hPa 0,0 mm 3,1 km/h (1 Bft) W-SW 248 ° 0 min 0,000 mm 0,0 UV-I 0 W/m² 5,9 °C 4,8 km/h (1 Bft)
19.10.2016 05:43 7,8 °C 7,8 °C 88 % 1018,5 hPa 0,0 mm 4,3 km/h (1 Bft) SW 226 ° 0 min 0,000 mm 0,0 UV-I 0 W/m² 5,9 °C 6,4 km/h (2 Bft)
19.10.2016 05:44 7,8 °C 7,8 °C 88 % 1018,6 hPa 0,0 mm 7,3 km/h (2 Bft) S-SW 212 ° 0 min 0,000 mm 0,0 UV-I 0 W/m² 5,9 °C 12,9 km/h (3 Bft)
19.10.2016 05:45 7,8 °C 7,8 °C 89 % 1018,5 hPa 0,0 mm 3,4 km/h (1 Bft) SW 215 ° 0 min 0,000 mm 0,0 UV-I 0 W/m² 6,1 °C 4,8 km/h (1 Bft)
19.10.2016 05:46 7,8 °C 7,8 °C 88 % 1018,6 hPa 0,0 mm 2,7 km/h (1 Bft) S-SW 205 ° 0 min 0,000 mm 0,0 UV-I 0 W/m² 5,9 °C 4,8 km/h (1 Bft)
19.10.2016 05:47 7,8 °C 7,8 °C 88 % 1018,5 hPa 0,0 mm 3,9 km/h (1 Bft) W-SW 238 ° 0 min 0,000 mm 0,0 UV-I 0 W/m² 5,9 °C 6,4 km/h (2 Bft)
19.10.2016 05:48 7,8 °C 7,8 °C 88 % 1018,5 hPa 0,0 mm 2,8 km/h (1 Bft) SW 236 ° 0 min 0,000 mm 0,0 UV-I 0 W/m² 5,9 °C 4,8 km/h (1 Bft)
19.10.2016 05:49 7,8 °C 7,8 °C 89 % 1018,5 hPa 0,0 mm 4,6 km/h (1 Bft) W-SW 243 ° 0 min 0,000 mm 0,0 UV-I 0 W/m² 6,1 °C 6,4 km/h (2 Bft)
19.10.2016 05:50 7,8 °C 7,8 °C 89 % 1018,5 hPa 0,0 mm 6,2 km/h (2 Bft) W-SW 241 ° 0 min 0,000 mm 0,0 UV-I 0 W/m² 6,1 °C 11,3 km/h (2 Bft)
19.10.2016 05:51 7,8 °C 7,8 °C 89 % 1018,5 hPa 0,0 mm 3,0 km/h (1 Bft) W-SW 251 ° 0 min 0,000 mm 0,0 UV-I 0 W/m² 6,1 °C 4,8 km/h (1 Bft)
19.10.2016 05:52 7,8 °C 7,8 °C 89 % 1018,5 hPa 0,0 mm 2,8 km/h (1 Bft) SW 228 ° 0 min 0,000 mm 0,0 UV-I 0 W/m² 6,1 °C 4,8 km/h (1 Bft)
19.10.2016 05:53 7,8 °C 7,8 °C 89 % 1018,5 hPa 0,0 mm 3,5 km/h (1 Bft) S-SW 207 ° 0 min 0,000 mm 0,0 UV-I 0 W/m² 6,1 °C 6,4 km/h (2 Bft)
19.10.2016 05:54 7,8 °C 7,8 °C 89 % 1018,5 hPa 0,0 mm 2,9 km/h (1 Bft) SW 215 ° 0 min 0,000 mm 0,0 UV-I 0 W/m² 6,1 °C 6,4 km/h (2 Bft)
19.10.2016 05:55 7,8 °C 7,8 °C 89 % 1018,5 hPa 0,0 mm 3,0 km/h (1 Bft) W 259 ° 0 min 0,000 mm 0,0 UV-I 0 W/m² 6,1 °C 6,4 km/h (2 Bft)
19.10.2016 05:56 7,8 °C 7,8 °C 89 % 1018,5 hPa 0,0 mm 5,9 km/h (2 Bft) W 269 ° 0 min 0,000 mm 0,0 UV-I 0 W/m² 6,1 °C 12,9 km/h (3 Bft)
19.10.2016 05:57 7,7 °C 7,8 °C 89 % 1018,6 hPa 0,0 mm 6,1 km/h (2 Bft) W 281 ° 0 min 0,000 mm 0,0 UV-I 0 W/m² 6,0 °C 12,9 km/h (3 Bft)
19.10.2016 05:58 7,7 °C 7,7 °C 89 % 1018,6 hPa 0,0 mm 4,0 km/h (1 Bft) S-SW 194 ° 0 min 0,000 mm 0,0 UV-I 0 W/m² 6,0 °C 6,4 km/h (2 Bft)
19.10.2016 05:59 7,7 °C 7,7 °C 89 % 1018,5 hPa 0,0 mm 6,4 km/h (2 Bft) SW 235 ° 0 min 0,000 mm 0,0 UV-I 0 W/m² 6,0 °C 11,3 km/h (2 Bft)
19.10.2016 06:00 7,7 °C 7,7 °C 89 % 1018,5 hPa 0,0 mm 2,4 km/h (1 Bft) SW 234 ° 0 min 0,000 mm 0,0 UV-I 0 W/m² 6,0 °C 3,2 km/h (1 Bft)
19.10.2016 06:01 7,7 °C 7,7 °C 89 % 1018,6 hPa 0,0 mm 6,1 km/h (2 Bft) W-SW 250 ° 0 min 0,000 mm 0,0 UV-I 0 W/m² 6,0 °C 12,9 km/h (3 Bft)
19.10.2016 06:02 7,7 °C 7,7 °C 89 % 1018,5 hPa 0,0 mm 4,3 km/h (1 Bft) W-SW 258 ° 0 min 0,000 mm 0,0 UV-I 0 W/m² 6,0 °C 9,7 km/h (2 Bft)
19.10.2016 06:03 7,7 °C 7,7 °C 89 % 1018,5 hPa 0,0 mm 4,8 km/h (1 Bft) SW 215 ° 0 min 0,000 mm 0,0 UV-I 0 W/m² 6,0 °C 6,4 km/h (2 Bft)
19.10.2016 06:04 7,7 °C 7,7 °C 89 % 1018,5 hPa 0,0 mm 3,2 km/h (1 Bft) S-SW 213 ° 0 min 0,000 mm 0,0 UV-I 0 W/m² 6,0 °C 4,8 km/h (1 Bft)
19.10.2016 06:05 7,7 °C 7,7 °C 89 % 1018,5 hPa 0,0 mm 3,5 km/h (1 Bft) W 263 ° 0 min 0,000 mm 0,0 UV-I 0 W/m² 6,0 °C 6,4 km/h (2 Bft)
19.10.2016 06:06 7,8 °C 7,8 °C 89 % 1018,6 hPa 0,0 mm 3,3 km/h (1 Bft) W-SW 244 ° 0 min 0,000 mm 0,0 UV-I 0 W/m² 6,1 °C 4,8 km/h (1 Bft)
19.10.2016 06:07 7,7 °C 7,8 °C 89 % 1018,5 hPa 0,0 mm 3,2 km/h (1 Bft) W-SW 239 ° 0 min 0,000 mm 0,0 UV-I 0 W/m² 6,0 °C 6,4 km/h (2 Bft)
19.10.2016 06:08 7,7 °C 7,7 °C 89 % 1018,5 hPa 0,0 mm 4,4 km/h (1 Bft) W-SW 246 ° 0 min 0,000 mm 0,0 UV-I 0 W/m² 6,0 °C 8,0 km/h (2 Bft)
19.10.2016 06:09 7,7 °C 7,7 °C 89 % 1018,6 hPa 0,0 mm 1,1 km/h (1 Bft) SW 215 ° 0 min 0,000 mm 0,0 UV-I 0 W/m² 6,0 °C 4,8 km/h (1 Bft)
19.10.2016 06:10 7,7 °C 7,7 °C 90 % 1018,5 hPa 0,0 mm 3,6 km/h (1 Bft) W 259 ° 0 min 0,000 mm 0,0 UV-I 0 W/m² 6,2 °C 6,4 km/h (2 Bft)
19.10.2016 06:11 7,7 °C 7,7 °C 90 % 1018,6 hPa 0,0 mm 2,9 km/h (1 Bft) W 265 ° 0 min 0,000 mm 0,0 UV-I 0 W/m² 6,2 °C 6,4 km/h (2 Bft)
19.10.2016 06:12 7,7 °C 7,7 °C 90 % 1018,6 hPa 0,0 mm 5,7 km/h (1 Bft) S 175 ° 0 min 0,000 mm 0,0 UV-I 0 W/m² 6,2 °C 9,7 km/h (2 Bft)
19.10.2016 06:13 7,6 °C 7,7 °C 90 % 1018,6 hPa 0,0 mm 2,4 km/h (1 Bft) SW 228 ° 0 min 0,000 mm 0,0 UV-I 0 W/m² 6,1 °C 3,2 km/h (1 Bft)
19.10.2016 06:14 7,6 °C 7,7 °C 90 % 1018,5 hPa 0,0 mm 5,4 km/h (1 Bft) W-NW 286 ° 0 min 0,000 mm 0,0 UV-I 0 W/m² 6,1 °C 11,3 km/h (2 Bft)
19.10.2016 06:15 7,7 °C 7,7 °C 90 % 1018,5 hPa 0,0 mm 2,4 km/h (1 Bft) W 264 ° 0 min 0,000 mm 0,0 UV-I 0 W/m² 6,2 °C 4,8 km/h (1 Bft)
19.10.2016 06:16 7,7 °C 7,7 °C 90 % 1018,5 hPa 0,0 mm 3,6 km/h (1 Bft) SW 214 ° 0 min 0,000 mm 0,0 UV-I 0 W/m² 6,2 °C 6,4 km/h (2 Bft)
19.10.2016 06:17 7,7 °C 7,7 °C 90 % 1018,5 hPa 0,0 mm 4,8 km/h (1 Bft) W-SW 255 ° 0 min 0,000 mm 0,0 UV-I 0 W/m² 6,2 °C 9,7 km/h (2 Bft)
19.10.2016 06:18 7,6 °C 7,7 °C 90 % 1018,5 hPa 0,0 mm 4,4 km/h (1 Bft) SW 230 ° 0 min 0,000 mm 0,0 UV-I 0 W/m² 6,1 °C 8,0 km/h (2 Bft)
19.10.2016 06:19 7,6 °C 7,6 °C 90 % 1018,5 hPa 0,0 mm 5,8 km/h (2 Bft) W-SW 248 ° 0 min 0,000 mm 0,0 UV-I 0 W/m² 6,1 °C 8,0 km/h (2 Bft)
19.10.2016 06:20 7,6 °C 7,6 °C 90 % 1018,5 hPa 0,0 mm 5,2 km/h (1 Bft) SW 234 ° 0 min 0,000 mm 0,0 UV-I 0 W/m² 6,1 °C 6,4 km/h (2 Bft)
19.10.2016 06:21 7,6 °C 7,6 °C 90 % 1018,5 hPa 0,0 mm 4,1 km/h (1 Bft) S-SW 207 ° 0 min 0,000 mm 0,0 UV-I 0 W/m² 6,1 °C 4,8 km/h (1 Bft)
19.10.2016 06:22 7,6 °C 7,6 °C 90 % 1018,6 hPa 0,0 mm 6,0 km/h (2 Bft) SW 221 ° 0 min 0,000 mm 0,0 UV-I 0 W/m² 6,1 °C 8,0 km/h (2 Bft)
19.10.2016 06:23 7,6 °C 7,6 °C 90 % 1018,5 hPa 0,0 mm 3,2 km/h (1 Bft) SW 219 ° 0 min 0,000 mm 0,0 UV-I 0 W/m² 6,1 °C 6,4 km/h (2 Bft)
19.10.2016 06:24 7,6 °C 7,6 °C 90 % 1018,5 hPa 0,0 mm 1,6 km/h (1 Bft) SW 219 ° 0 min 0,000 mm 0,0 UV-I 0 W/m² 6,1 °C 3,2 km/h (1 Bft)
19.10.2016 06:25 7,6 °C 7,6 °C 90 % 1018,5 hPa 0,0 mm 2,0 km/h (1 Bft) SW 221 ° 0 min 0,000 mm 0,0 UV-I 0 W/m² 6,1 °C 4,8 km/h (1 Bft)
19.10.2016 06:26 7,6 °C 7,6 °C 90 % 1018,5 hPa 0,0 mm 4,8 km/h (1 Bft) SW 214 ° 0 min 0,000 mm 0,0 UV-I 0 W/m² 6,1 °C 11,3 km/h (2 Bft)
19.10.2016 06:27 7,6 °C 7,6 °C 90 % 1018,5 hPa 0,0 mm 1,8 km/h (1 Bft) S-SW 198 ° 0 min 0,000 mm 0,0 UV-I 0 W/m² 6,1 °C 3,2 km/h (1 Bft)
19.10.2016 06:28 7,6 °C 7,6 °C 90 % 1018,5 hPa 0,0 mm 3,4 km/h (1 Bft) SW 233 ° 0 min 0,000 mm 0,0 UV-I 0 W/m² 6,1 °C 4,8 km/h (1 Bft)
19.10.2016 06:29 7,6 °C 7,6 °C 91 % 1018,5 hPa 0,0 mm 2,9 km/h (1 Bft) SW 236 ° 0 min 0,000 mm 0,0 UV-I 0 W/m² 6,2 °C 4,8 km/h (1 Bft)
19.10.2016 06:30 7,6 °C 7,6 °C 91 % 1018,5 hPa 0,0 mm 2,7 km/h (1 Bft) SW 236 ° 0 min 0,000 mm 0,0 UV-I 0 W/m² 6,2 °C 4,8 km/h (1 Bft)
19.10.2016 06:31 7,6 °C 7,6 °C 91 % 1018,5 hPa 0,0 mm 1,5 km/h (1 Bft) W-SW 249 ° 0 min 0,000 mm 0,0 UV-I 0 W/m² 6,2 °C 4,8 km/h (1 Bft)
19.10.2016 06:32 7,6 °C 7,6 °C 91 % 1018,5 hPa 0,0 mm 2,5 km/h (1 Bft) W-SW 249 ° 0 min 0,000 mm 0,0 UV-I 0 W/m² 6,2 °C 3,2 km/h (1 Bft)
19.10.2016 06:33 7,6 °C 7,6 °C 91 % 1018,5 hPa 0,0 mm 2,7 km/h (1 Bft) W 263 ° 0 min 0,000 mm 0,0 UV-I 0 W/m² 6,2 °C 6,4 km/h (2 Bft)
19.10.2016 06:34 7,6 °C 7,6 °C 90 % 1018,5 hPa 0,0 mm 4,0 km/h (1 Bft) SW 225 ° 0 min 0,000 mm 0,0 UV-I 0 W/m² 6,1 °C 6,4 km/h (2 Bft)
19.10.2016 06:35 7,6 °C 7,6 °C 91 % 1018,6 hPa 0,0 mm 2,8 km/h (1 Bft) SW 225 ° 0 min 0,000 mm 0,0 UV-I 0 W/m² 6,2 °C 3,2 km/h (1 Bft)
19.10.2016 06:36 7,6 °C 7,7 °C 91 % 1018,6 hPa 0,0 mm 4,6 km/h (1 Bft) S-SW 202 ° 0 min 0,000 mm 0,0 UV-I 0 W/m² 6,2 °C 4,8 km/h (1 Bft)
19.10.2016 06:37 7,6 °C 7,6 °C 91 % 1018,5 hPa 0,0 mm 3,4 km/h (1 Bft) S-SW 202 ° 0 min 0,000 mm 0,0 UV-I 0 W/m² 6,2 °C 6,4 km/h (2 Bft)
19.10.2016 06:38 7,6 °C 7,7 °C 91 % 1018,5 hPa 0,0 mm 3,9 km/h (1 Bft) W-SW 257 ° 0 min 0,000 mm 0,0 UV-I 0 W/m² 6,2 °C 4,8 km/h (1 Bft)
19.10.2016 06:39 7,6 °C 7,6 °C 91 % 1018,5 hPa 0,0 mm 6,8 km/h (2 Bft) W-SW 249 ° 0 min 0,000 mm 0,0 UV-I 0 W/m² 6,2 °C 9,7 km/h (2 Bft)
19.10.2016 06:40 7,7 °C 7,7 °C 91 % 1018,6 hPa 0,0 mm 6,6 km/h (2 Bft) W 267 ° 0 min 0,000 mm 0,0 UV-I 0 W/m² 6,3 °C 9,7 km/h (2 Bft)
19.10.2016 06:41 7,6 °C 7,7 °C 91 % 1018,6 hPa 0,0 mm 4,9 km/h (1 Bft) W-SW 252 ° 0 min 0,000 mm 0,0 UV-I 0 W/m² 6,2 °C 6,4 km/h (2 Bft)
19.10.2016 06:42 7,7 °C 7,7 °C 91 % 1018,6 hPa 0,0 mm 8,6 km/h (2 Bft) SW 221 ° 0 min 0,000 mm 0,0 UV-I 0 W/m² 6,3 °C 12,9 km/h (3 Bft)
19.10.2016 06:43 7,6 °C 7,7 °C 91 % 1018,6 hPa 0,0 mm 4,0 km/h (1 Bft) W-SW 238 ° 0 min 0,000 mm 0,0 UV-I 0 W/m² 6,2 °C 8,0 km/h (2 Bft)
19.10.2016 06:44 7,6 °C 7,7 °C 91 % 1018,6 hPa 0,0 mm 5,6 km/h (1 Bft) SW 234 ° 0 min 0,000 mm 0,0 UV-I 0 W/m² 6,2 °C 9,7 km/h (2 Bft)
19.10.2016 06:45 7,7 °C 7,7 °C 91 % 1018,6 hPa 0,0 mm 5,3 km/h (1 Bft) W-SW 250 ° 0 min 0,000 mm 0,0 UV-I 0 W/m² 6,3 °C 8,0 km/h (2 Bft)
19.10.2016 06:46 7,7 °C 7,7 °C 91 % 1018,6 hPa 0,0 mm 6,0 km/h (2 Bft) W-SW 257 ° 0 min 0,000 mm 0,0 UV-I 0 W/m² 6,3 °C 9,7 km/h (2 Bft)
19.10.2016 06:47 7,7 °C 7,7 °C 91 % 1018,6 hPa 0,0 mm 6,9 km/h (2 Bft) SW 226 ° 0 min 0,000 mm 0,0 UV-I 0 W/m² 6,3 °C 11,3 km/h (2 Bft)
19.10.2016 06:48 7,7 °C 7,7 °C 91 % 1018,6 hPa 0,0 mm 7,6 km/h (2 Bft) W 259 ° 0 min 0,000 mm 0,0 UV-I 0 W/m² 6,3 °C 14,5 km/h (3 Bft)
19.10.2016 06:49 7,7 °C 7,7 °C 91 % 1018,6 hPa 0,0 mm 9,7 km/h (2 Bft) W-SW 252 ° 0 min 0,000 mm 0,0 UV-I 0 W/m² 6,3 °C 14,5 km/h (3 Bft)
19.10.2016 06:50 7,7 °C 7,7 °C 91 % 1018,6 hPa 0,0 mm 8,1 km/h (2 Bft) W-SW 248 ° 0 min 0,000 mm 0,0 UV-I 0 W/m² 6,3 °C 17,7 km/h (3 Bft)
19.10.2016 06:51 7,7 °C 7,7 °C 91 % 1018,6 hPa 0,0 mm 8,4 km/h (2 Bft) SW 231 ° 0 min 0,000 mm 0,0 UV-I 0 W/m² 6,3 °C 16,1 km/h (3 Bft)
19.10.2016 06:52 7,7 °C 7,7 °C 91 % 1018,6 hPa 0,0 mm 8,2 km/h (2 Bft) W-SW 253 ° 0 min 0,000 mm 0,0 UV-I 0 W/m² 6,3 °C 12,9 km/h (3 Bft)
19.10.2016 06:53 7,7 °C 7,7 °C 91 % 1018,6 hPa 0,0 mm 7,4 km/h (2 Bft) W-SW 256 ° 0 min 0,000 mm 0,0 UV-I 0 W/m² 6,3 °C 11,3 km/h (2 Bft)
19.10.2016 06:54 7,7 °C 7,7 °C 91 % 1018,6 hPa 0,0 mm 3,0 km/h (1 Bft) W-SW 252 ° 0 min 0,000 mm 0,0 UV-I 0 W/m² 6,3 °C 6,4 km/h (2 Bft)
19.10.2016 06:55 7,7 °C 7,7 °C 91 % 1018,6 hPa 0,0 mm 3,4 km/h (1 Bft) SW 236 ° 0 min 0,000 mm 0,0 UV-I 0 W/m² 6,3 °C 6,4 km/h (2 Bft)
19.10.2016 06:56 7,7 °C 7,7 °C 91 % 1018,6 hPa 0,0 mm 12,1 km/h (2 Bft) W 266 ° 0 min 0,000 mm 0,0 UV-I 0 W/m² 6,3 °C 19,3 km/h (3 Bft)
19.10.2016 06:57 7,7 °C 7,7 °C 91 % 1018,5 hPa 0,0 mm 10,7 km/h (2 Bft) W-SW 253 ° 0 min 0,000 mm 0,0 UV-I 0 W/m² 6,3 °C 17,7 km/h (3 Bft)
19.10.2016 06:58 7,7 °C 7,7 °C 91 % 1018,6 hPa 0,0 mm 9,9 km/h (2 Bft) W 265 ° 0 min 0,000 mm 0,0 UV-I 0 W/m² 6,3 °C 16,1 km/h (3 Bft)
19.10.2016 06:59 7,7 °C 7,7 °C 91 % 1018,5 hPa 0,0 mm 4,0 km/h (1 Bft) W-SW 238 ° 0 min 0,000 mm 0,0 UV-I 0 W/m² 6,3 °C 6,4 km/h (2 Bft)
19.10.2016 07:00 7,7 °C 7,7 °C 91 % 1018,5 hPa 0,0 mm 8,6 km/h (2 Bft) W-SW 250 ° 0 min 0,000 mm 0,0 UV-I 0 W/m² 6,3 °C 12,9 km/h (3 Bft)
19.10.2016 07:01 7,7 °C 7,7 °C 91 % 1018,6 hPa 0,0 mm 8,3 km/h (2 Bft) W-SW 238 ° 0 min 0,000 mm 0,0 UV-I 0 W/m² 6,3 °C 11,3 km/h (2 Bft)
19.10.2016 07:02 7,7 °C 7,7 °C 91 % 1018,5 hPa 0,0 mm 8,0 km/h (2 Bft) W-SW 257 ° 0 min 0,000 mm 0,0 UV-I 0 W/m² 6,3 °C 11,3 km/h (2 Bft)
19.10.2016 07:03 7,7 °C 7,7 °C 91 % 1018,6 hPa 0,0 mm 4,8 km/h (1 Bft) SW 226 ° 0 min 0,000 mm 0,0 UV-I 0 W/m² 6,3 °C 8,0 km/h (2 Bft)
19.10.2016 07:04 7,7 °C 7,7 °C 91 % 1018,6 hPa 0,0 mm 5,9 km/h (2 Bft) W-SW 244 ° 0 min 0,000 mm 0,0 UV-I 0 W/m² 6,3 °C 11,3 km/h (2 Bft)
19.10.2016 07:05 7,7 °C 7,7 °C 91 % 1018,6 hPa 0,0 mm 6,6 km/h (2 Bft) W-SW 250 ° 0 min 0,000 mm 0,0 UV-I 0 W/m² 6,3 °C 9,7 km/h (2 Bft)
19.10.2016 07:06 7,6 °C 7,7 °C 92 % 1018,6 hPa 0,0 mm 9,8 km/h (2 Bft) W 274 ° 0 min 0,000 mm 0,0 UV-I 0 W/m² 6,4 °C 16,1 km/h (3 Bft)
19.10.2016 07:07 7,7 °C 7,7 °C 92 % 1018,6 hPa 0,0 mm 6,4 km/h (2 Bft) SW 236 ° 0 min 0,000 mm 0,0 UV-I 0 W/m² 6,5 °C 9,7 km/h (2 Bft)
19.10.2016 07:08 7,6 °C 7,7 °C 92 % 1018,6 hPa 0,0 mm 4,9 km/h (1 Bft) W-SW 256 ° 0 min 0,000 mm 0,0 UV-I 0 W/m² 6,4 °C 8,0 km/h (2 Bft)
19.10.2016 07:09 7,6 °C 7,6 °C 92 % 1018,6 hPa 0,0 mm 5,4 km/h (1 Bft) W 262 ° 0 min 0,000 mm 0,0 UV-I 0 W/m² 6,4 °C 8,0 km/h (2 Bft)
19.10.2016 07:10 7,6 °C 7,6 °C 92 % 1018,6 hPa 0,0 mm 6,6 km/h (2 Bft) W-SW 253 ° 0 min 0,000 mm 0,0 UV-I 0 W/m² 6,4 °C 12,9 km/h (3 Bft)
19.10.2016 07:11 7,6 °C 7,6 °C 92 % 1018,7 hPa 0,0 mm 4,5 km/h (1 Bft) W 276 ° 0 min 0,000 mm 0,0 UV-I 0 W/m² 6,4 °C 6,4 km/h (2 Bft)
19.10.2016 07:12 7,6 °C 7,6 °C 92 % 1018,7 hPa 0,0 mm 10,3 km/h (2 Bft) SW 226 ° 0 min 0,000 mm 0,0 UV-I 0 W/m² 6,4 °C 14,5 km/h (3 Bft)
19.10.2016 07:13 7,6 °C 7,6 °C 91 % 1018,7 hPa 0,0 mm 6,4 km/h (2 Bft) W-SW 254 ° 0 min 0,000 mm 0,0 UV-I 0 W/m² 6,2 °C 12,9 km/h (3 Bft)
19.10.2016 07:14 7,7 °C 7,7 °C 92 % 1018,7 hPa 0,0 mm 8,6 km/h (2 Bft) W 260 ° 0 min 0,000 mm 0,0 UV-I 0 W/m² 6,5 °C 16,1 km/h (3 Bft)
19.10.2016 07:15 7,7 °C 7,7 °C 91 % 1018,7 hPa 0,0 mm 6,8 km/h (2 Bft) W 277 ° 0 min 0,000 mm 0,0 UV-I 0 W/m² 6,3 °C 11,3 km/h (2 Bft)
19.10.2016 07:16 7,7 °C 7,7 °C 91 % 1018,7 hPa 0,0 mm 8,5 km/h (2 Bft) W-SW 245 ° 0 min 0,000 mm 0,0 UV-I 0 W/m² 6,3 °C 12,9 km/h (3 Bft)
19.10.2016 07:17 7,7 °C 7,7 °C 91 % 1018,7 hPa 0,0 mm 9,4 km/h (2 Bft) W 263 ° 0 min 0,000 mm 0,0 UV-I 0 W/m² 6,3 °C 12,9 km/h (3 Bft)
19.10.2016 07:18 7,7 °C 7,7 °C 91 % 1018,7 hPa 0,0 mm 7,3 km/h (2 Bft) W-SW 249 ° 0 min 0,000 mm 0,0 UV-I 0 W/m² 6,3 °C 16,1 km/h (3 Bft)
19.10.2016 07:19 7,7 °C 7,7 °C 91 % 1018,7 hPa 0,0 mm 9,0 km/h (2 Bft) S-SW 195 ° 0 min 0,000 mm 0,0 UV-I 0 W/m² 6,3 °C 16,1 km/h (3 Bft)
19.10.2016 07:20 7,7 °C 7,7 °C 91 % 1018,7 hPa 0,0 mm 4,8 km/h (1 Bft) W 274 ° 0 min 0,000 mm 0,0 UV-I 0 W/m² 6,3 °C 9,7 km/h (2 Bft)
19.10.2016 07:21 7,7 °C 7,7 °C 91 % 1018,8 hPa 0,0 mm 3,1 km/h (1 Bft) W-SW 255 ° 0 min 0,000 mm 0,0 UV-I 0 W/m² 6,3 °C 6,4 km/h (2 Bft)
19.10.2016 07:22 7,7 °C 7,7 °C 91 % 1018,8 hPa 0,0 mm 5,6 km/h (1 Bft) W-NW 288 ° 0 min 0,000 mm 0,0 UV-I 0 W/m² 6,3 °C 9,7 km/h (2 Bft)
19.10.2016 07:23 7,7 °C 7,7 °C 91 % 1018,8 hPa 0,0 mm 11,5 km/h (2 Bft) W-SW 252 ° 0 min 0,000 mm 0,0 UV-I 0 W/m² 6,3 °C 17,7 km/h (3 Bft)
19.10.2016 07:24 7,7 °C 7,7 °C 91 % 1018,7 hPa 0,0 mm 4,2 km/h (1 Bft) W 261 ° 0 min 0,000 mm 0,0 UV-I 0 W/m² 6,3 °C 6,4 km/h (2 Bft)
19.10.2016 07:25 7,7 °C 7,7 °C 91 % 1018,7 hPa 0,0 mm 2,7 km/h (1 Bft) W-SW 240 ° 0 min 0,000 mm 0,0 UV-I 0 W/m² 6,3 °C 4,8 km/h (1 Bft)
19.10.2016 07:26 7,7 °C 7,7 °C 91 % 1018,7 hPa 0,0 mm 4,4 km/h (1 Bft) SW 227 ° 0 min 0,000 mm 0,0 UV-I 0 W/m² 6,3 °C 8,0 km/h (2 Bft)
19.10.2016 07:27 7,7 °C 7,7 °C 90 % 1018,7 hPa 0,0 mm 7,3 km/h (2 Bft) W 259 ° 0 min 0,000 mm 0,0 UV-I 0 W/m² 6,2 °C 12,9 km/h (3 Bft)
19.10.2016 07:28 7,7 °C 7,7 °C 91 % 1018,7 hPa 0,0 mm 8,2 km/h (2 Bft) W-SW 248 ° 0 min 0,000 mm 0,0 UV-I 0 W/m² 6,3 °C 11,3 km/h (2 Bft)
19.10.2016 07:29 7,7 °C 7,7 °C 90 % 1018,6 hPa 0,0 mm 3,4 km/h (1 Bft) S-SW 213 ° 0 min 0,000 mm 0,0 UV-I 0 W/m² 6,2 °C 6,4 km/h (2 Bft)
19.10.2016 07:30 7,7 °C 7,7 °C 90 % 1018,6 hPa 0,0 mm 3,2 km/h (1 Bft) W 265 ° 0 min 0,000 mm 0,0 UV-I 0 W/m² 6,2 °C 4,8 km/h (1 Bft)
19.10.2016 07:31 7,7 °C 7,7 °C 90 % 1018,6 hPa 0,0 mm 4,1 km/h (1 Bft) W-SW 248 ° 0 min 0,000 mm 0,0 UV-I 0 W/m² 6,2 °C 6,4 km/h (2 Bft)
19.10.2016 07:32 7,7 °C 7,7 °C 90 % 1018,6 hPa 0,0 mm 3,4 km/h (1 Bft) W-SW 250 ° 0 min 0,000 mm 0,0 UV-I 0 W/m² 6,2 °C 4,8 km/h (1 Bft)
19.10.2016 07:33 7,7 °C 7,7 °C 90 % 1018,7 hPa 0,0 mm 2,3 km/h (1 Bft) W-SW 250 ° 0 min 0,000 mm 0,0 UV-I 0 W/m² 6,2 °C 3,2 km/h (1 Bft)
19.10.2016 07:34 7,7 °C 7,7 °C 90 % 1018,7 hPa 0,0 mm 2,7 km/h (1 Bft) W-SW 252 ° 0 min 0,000 mm 0,0 UV-I 0 W/m² 6,2 °C 4,8 km/h (1 Bft)
19.10.2016 07:35 7,7 °C 7,7 °C 90 % 1018,8 hPa 0,0 mm 3,5 km/h (1 Bft) W 265 ° 0 min 0,000 mm 0,0 UV-I 0 W/m² 6,2 °C 4,8 km/h (1 Bft)
19.10.2016 07:36 7,7 °C 7,7 °C 91 % 1018,7 hPa 0,0 mm 4,8 km/h (1 Bft) W 259 ° 0 min 0,000 mm 0,0 UV-I 0 W/m² 6,3 °C 11,3 km/h (2 Bft)
19.10.2016 07:37 7,7 °C 7,7 °C 91 % 1018,7 hPa 0,0 mm 5,5 km/h (1 Bft) W-SW 250 ° 0 min 0,000 mm 0,0 UV-I 0 W/m² 6,3 °C 11,3 km/h (2 Bft)
19.10.2016 07:38 7,7 °C 7,7 °C 91 % 1018,7 hPa 0,0 mm 7,1 km/h (2 Bft) W 281 ° 0 min 0,000 mm 0,0 UV-I 0 W/m² 6,3 °C 11,3 km/h (2 Bft)
19.10.2016 07:39 7,6 °C 7,7 °C 91 % 1018,7 hPa 0,0 mm 6,4 km/h (2 Bft) SW 234 ° 0 min 0,000 mm 0,0 UV-I 0 W/m² 6,2 °C 11,3 km/h (2 Bft)
19.10.2016 07:40 7,6 °C 7,6 °C 90 % 1018,6 hPa 0,0 mm 6,3 km/h (2 Bft) W-SW 254 ° 0 min 0,000 mm 0,0 UV-I 0 W/m² 6,1 °C 11,3 km/h (2 Bft)
19.10.2016 07:41 7,6 °C 7,6 °C 91 % 1018,6 hPa 0,0 mm 5,1 km/h (1 Bft) W-SW 253 ° 0 min 0,000 mm 0,0 UV-I 0 W/m² 6,2 °C 9,7 km/h (2 Bft)
19.10.2016 07:42 7,6 °C 7,6 °C 90 % 1018,7 hPa 0,0 mm 5,4 km/h (1 Bft) W-SW 252 ° 0 min 0,000 mm 0,0 UV-I 0 W/m² 6,1 °C 8,0 km/h (2 Bft)
19.10.2016 07:43 7,6 °C 7,6 °C 90 % 1018,7 hPa 0,0 mm 6,0 km/h (2 Bft) W-SW 250 ° 0 min 0,000 mm 0,0 UV-I 0 W/m² 6,1 °C 8,0 km/h (2 Bft)
19.10.2016 07:44 7,6 °C 7,6 °C 90 % 1018,6 hPa 0,0 mm 4,6 km/h (1 Bft) W-SW 254 ° 0 min 0,000 mm 0,0 UV-I 0 W/m² 6,1 °C 6,4 km/h (2 Bft)
19.10.2016 07:45 7,6 °C 7,6 °C 90 % 1018,6 hPa 0,0 mm 4,6 km/h (1 Bft) W-SW 253 ° 0 min 0,000 mm 0,0 UV-I 0 W/m² 6,1 °C 8,0 km/h (2 Bft)
19.10.2016 07:46 7,5 °C 7,6 °C 90 % 1018,6 hPa 0,0 mm 4,5 km/h (1 Bft) SW 217 ° 0 min 0,000 mm 0,0 UV-I 0 W/m² 6,0 °C 8,0 km/h (2 Bft)
19.10.2016 07:47 7,6 °C 7,6 °C 90 % 1018,6 hPa 0,0 mm 3,8 km/h (1 Bft) S-SW 207 ° 0 min 0,000 mm 0,0 UV-I 0 W/m² 6,1 °C 4,8 km/h (1 Bft)
19.10.2016 07:48 7,5 °C 7,6 °C 90 % 1018,6 hPa 0,0 mm 2,2 km/h (1 Bft) S-SW 207 ° 0 min 0,000 mm 0,0 UV-I 0 W/m² 6,0 °C 4,8 km/h (1 Bft)
19.10.2016 07:49 7,5 °C 7,6 °C 90 % 1018,6 hPa 0,0 mm 5,0 km/h (1 Bft) W-SW 240 ° 0 min 0,000 mm 0,0 UV-I 0 W/m² 6,0 °C 11,3 km/h (2 Bft)
19.10.2016 07:50 7,6 °C 7,6 °C 90 % 1018,6 hPa 0,0 mm 4,1 km/h (1 Bft) W 259 ° 0 min 0,000 mm 0,0 UV-I 0 W/m² 6,1 °C 6,4 km/h (2 Bft)
19.10.2016 07:51 7,5 °C 7,6 °C 90 % 1018,6 hPa 0,0 mm 1,5 km/h (1 Bft) W 259 ° 0 min 0,000 mm 0,0 UV-I 0 W/m² 6,0 °C 3,2 km/h (1 Bft)
19.10.2016 07:52 7,5 °C 7,5 °C 90 % 1018,6 hPa 0,0 mm 2,5 km/h (1 Bft) W 259 ° 0 min 0,000 mm 0,0 UV-I 0 W/m² 6,0 °C 4,8 km/h (1 Bft)
19.10.2016 07:53 7,5 °C 7,6 °C 90 % 1018,6 hPa 0,0 mm 4,1 km/h (1 Bft) W 259 ° 0 min 0,000 mm 0,0 UV-I 0 W/m² 6,0 °C 6,4 km/h (2 Bft)
19.10.2016 07:54 7,4 °C 7,5 °C 90 % 1018,5 hPa 0,0 mm 3,0 km/h (1 Bft) W 267 ° 0 min 0,000 mm 0,0 UV-I 0 W/m² 5,9 °C 4,8 km/h (1 Bft)
19.10.2016 07:55 7,4 °C 7,5 °C 90 % 1018,5 hPa 0,0 mm 6,4 km/h (2 Bft) W-SW 247 ° 0 min 0,000 mm 0,0 UV-I 0 W/m² 5,9 °C 12,9 km/h (3 Bft)
19.10.2016 07:56 7,4 °C 7,4 °C 90 % 1018,5 hPa 0,0 mm 9,0 km/h (2 Bft) W-SW 256 ° 0 min 0,000 mm 0,0 UV-I 0 W/m² 5,9 °C 12,9 km/h (3 Bft)
19.10.2016 07:57 7,4 °C 7,4 °C 90 % 1018,5 hPa 0,0 mm 5,0 km/h (1 Bft) W 266 ° 0 min 0,000 mm 0,0 UV-I 5 W/m² 5,9 °C 6,4 km/h (2 Bft)
19.10.2016 07:58 7,4 °C 7,4 °C 90 % 1018,5 hPa 0,0 mm 5,2 km/h (1 Bft) W 281 ° 0 min 0,000 mm 0,0 UV-I 5 W/m² 5,9 °C 9,7 km/h (2 Bft)
19.10.2016 07:59 7,4 °C 7,4 °C 90 % 1018,6 hPa 0,0 mm 2,9 km/h (1 Bft) W 271 ° 0 min 0,000 mm 0,0 UV-I 5 W/m² 5,9 °C 4,8 km/h (1 Bft)
19.10.2016 08:00 7,4 °C 7,4 °C 90 % 1018,6 hPa 0,0 mm 4,5 km/h (1 Bft) W-SW 252 ° 0 min 0,000 mm 0,0 UV-I 5 W/m² 5,9 °C 6,4 km/h (2 Bft)
19.10.2016 08:01 7,4 °C 7,4 °C 90 % 1018,5 hPa 0,0 mm 7,4 km/h (2 Bft) W-NW 284 ° 0 min 0,000 mm 0,0 UV-I 5 W/m² 5,9 °C 11,3 km/h (2 Bft)
19.10.2016 08:02 7,5 °C 7,5 °C 90 % 1018,6 hPa 0,0 mm 5,2 km/h (1 Bft) NW 320 ° 0 min 0,000 mm 0,0 UV-I 5 W/m² 6,0 °C 8,0 km/h (2 Bft)
19.10.2016 08:03 7,5 °C 7,5 °C 90 % 1018,5 hPa 0,0 mm 4,9 km/h (1 Bft) S-SW 211 ° 0 min 0,000 mm 0,0 UV-I 5 W/m² 6,0 °C 8,0 km/h (2 Bft)
19.10.2016 08:04 7,6 °C 7,6 °C 90 % 1018,6 hPa 0,0 mm 8,1 km/h (2 Bft) W-SW 244 ° 0 min 0,000 mm 0,0 UV-I 5 W/m² 6,1 °C 12,9 km/h (3 Bft)
19.10.2016 08:05 7,6 °C 7,6 °C 89 % 1018,6 hPa 0,0 mm 4,0 km/h (1 Bft) W 266 ° 0 min 0,000 mm 0,0 UV-I 5 W/m² 5,9 °C 4,8 km/h (1 Bft)
19.10.2016 08:06 7,7 °C 7,7 °C 90 % 1018,6 hPa 0,0 mm 8,3 km/h (2 Bft) W 276 ° 0 min 0,000 mm 0,0 UV-I 0 W/m² 6,2 °C 11,3 km/h (2 Bft)
19.10.2016 08:07 7,7 °C 7,7 °C 89 % 1018,6 hPa 0,0 mm 4,3 km/h (1 Bft) W-NW 282 ° 0 min 0,000 mm 0,0 UV-I 0 W/m² 6,0 °C 6,4 km/h (2 Bft)
19.10.2016 08:08 7,7 °C 7,7 °C 90 % 1018,6 hPa 0,0 mm 3,4 km/h (1 Bft) W-NW 290 ° 0 min 0,000 mm 0,0 UV-I 0 W/m² 6,2 °C 4,8 km/h (1 Bft)
19.10.2016 08:09 7,7 °C 7,7 °C 90 % 1018,5 hPa 0,0 mm 2,9 km/h (1 Bft) W-NW 291 ° 0 min 0,000 mm 0,0 UV-I 0 W/m² 6,2 °C 4,8 km/h (1 Bft)
19.10.2016 08:10 7,7 °C 7,7 °C 90 % 1018,6 hPa 0,0 mm 2,5 km/h (1 Bft) W-NW 282 ° 0 min 0,000 mm 0,0 UV-I 5 W/m² 6,2 °C 4,8 km/h (1 Bft)
19.10.2016 08:11 7,7 °C 7,7 °C 90 % 1018,6 hPa 0,0 mm 4,6 km/h (1 Bft) W 267 ° 0 min 0,000 mm 0,0 UV-I 5 W/m² 6,2 °C 9,7 km/h (2 Bft)
19.10.2016 08:12 7,7 °C 7,7 °C 90 % 1018,7 hPa 0,0 mm 3,4 km/h (1 Bft) W-SW 258 ° 0 min 0,000 mm 0,0 UV-I 7 W/m² 6,2 °C 6,4 km/h (2 Bft)
19.10.2016 08:13 7,7 °C 7,7 °C 90 % 1018,7 hPa 0,0 mm 4,2 km/h (1 Bft) W 279 ° 0 min 0,000 mm 0,0 UV-I 7 W/m² 6,2 °C 9,7 km/h (2 Bft)
19.10.2016 08:14 7,7 °C 7,7 °C 90 % 1018,7 hPa 0,0 mm 4,3 km/h (1 Bft) W 272 ° 0 min 0,000 mm 0,0 UV-I 7 W/m² 6,2 °C 11,3 km/h (2 Bft)
19.10.2016 08:15 7,7 °C 7,7 °C 90 % 1018,7 hPa 0,0 mm 5,0 km/h (1 Bft) W 278 ° 0 min 0,000 mm 0,0 UV-I 7 W/m² 6,2 °C 9,7 km/h (2 Bft)
19.10.2016 08:16 7,7 °C 7,7 °C 90 % 1018,7 hPa 0,0 mm 3,2 km/h (1 Bft) W 261 ° 0 min 0,000 mm 0,0 UV-I 7 W/m² 6,2 °C 4,8 km/h (1 Bft)
19.10.2016 08:17 7,7 °C 7,7 °C 90 % 1018,7 hPa 0,0 mm 2,3 km/h (1 Bft) W 261 ° 0 min 0,000 mm 0,0 UV-I 9 W/m² 6,2 °C 3,2 km/h (1 Bft)
19.10.2016 08:18 7,7 °C 7,7 °C 90 % 1018,7 hPa 0,0 mm 6,0 km/h (2 Bft) W-SW 257 ° 0 min 0,000 mm 0,0 UV-I 9 W/m² 6,2 °C 11,3 km/h (2 Bft)
19.10.2016 08:19 7,6 °C 7,7 °C 91 % 1018,7 hPa 0,0 mm 7,7 km/h (2 Bft) W-SW 254 ° 0 min 0,000 mm 0,0 UV-I 9 W/m² 6,2 °C 12,9 km/h (3 Bft)
19.10.2016 08:20 7,6 °C 7,7 °C 91 % 1018,7 hPa 0,0 mm 5,5 km/h (1 Bft) W-NW 295 ° 0 min 0,000 mm 0,0 UV-I 9 W/m² 6,2 °C 9,7 km/h (2 Bft)
19.10.2016 08:21 7,6 °C 7,7 °C 90 % 1018,7 hPa 0,0 mm 3,0 km/h (1 Bft) W 279 ° 0 min 0,000 mm 0,0 UV-I 11 W/m² 6,1 °C 6,4 km/h (2 Bft)
19.10.2016 08:22 7,6 °C 7,6 °C 91 % 1018,6 hPa 0,0 mm 5,6 km/h (1 Bft) W 263 ° 0 min 0,000 mm 0,0 UV-I 12 W/m² 6,2 °C 11,3 km/h (2 Bft)
19.10.2016 08:23 7,6 °C 7,6 °C 91 % 1018,6 hPa 0,0 mm 5,9 km/h (2 Bft) W 267 ° 0 min 0,000 mm 0,0 UV-I 12 W/m² 6,2 °C 8,0 km/h (2 Bft)
19.10.2016 08:24 7,6 °C 7,7 °C 91 % 1018,6 hPa 0,0 mm 8,3 km/h (2 Bft) W 274 ° 0 min 0,000 mm 0,0 UV-I 14 W/m² 6,2 °C 12,9 km/h (3 Bft)
19.10.2016 08:25 7,6 °C 7,6 °C 90 % 1018,6 hPa 0,0 mm 7,7 km/h (2 Bft) W 267 ° 0 min 0,000 mm 0,0 UV-I 14 W/m² 6,1 °C 11,3 km/h (2 Bft)
19.10.2016 08:26 7,6 °C 7,6 °C 91 % 1018,6 hPa 0,0 mm 5,2 km/h (1 Bft) W 269 ° 0 min 0,000 mm 0,0 UV-I 14 W/m² 6,2 °C 9,7 km/h (2 Bft)
19.10.2016 08:27 7,6 °C 7,6 °C 91 % 1018,6 hPa 0,0 mm 3,2 km/h (1 Bft) W-SW 240 ° 0 min 0,000 mm 0,0 UV-I 14 W/m² 6,2 °C 6,4 km/h (2 Bft)
19.10.2016 08:28 7,6 °C 7,6 °C 91 % 1018,6 hPa 0,0 mm 5,9 km/h (2 Bft) W-SW 252 ° 0 min 0,000 mm 0,0 UV-I 12 W/m² 6,2 °C 9,7 km/h (2 Bft)
19.10.2016 08:29 7,6 °C 7,6 °C 91 % 1018,5 hPa 0,0 mm 5,6 km/h (1 Bft) W-SW 246 ° 0 min 0,000 mm 0,0 UV-I 12 W/m² 6,2 °C 11,3 km/h (2 Bft)
19.10.2016 08:30 7,6 °C 7,6 °C 91 % 1018,5 hPa 0,0 mm 2,3 km/h (1 Bft) W-SW 246 ° 0 min 0,000 mm 0,0 UV-I 12 W/m² 6,2 °C 4,8 km/h (1 Bft)
19.10.2016 08:31 7,6 °C 7,6 °C 91 % 1018,5 hPa 0,0 mm 4,0 km/h (1 Bft) SW 217 ° 0 min 0,000 mm 0,0 UV-I 14 W/m² 6,2 °C 8,0 km/h (2 Bft)
19.10.2016 08:32 7,6 °C 7,6 °C 91 % 1018,7 hPa 0,0 mm 1,9 km/h (1 Bft) SW 217 ° 0 min 0,000 mm 0,0 UV-I 14 W/m² 6,2 °C 3,2 km/h (1 Bft)
19.10.2016 08:33 7,6 °C 7,6 °C 91 % 1018,7 hPa 0,0 mm 6,2 km/h (2 Bft) W 263 ° 0 min 0,000 mm 0,0 UV-I 16 W/m² 6,2 °C 12,9 km/h (3 Bft)
19.10.2016 08:34 7,6 °C 7,6 °C 91 % 1018,7 hPa 0,0 mm 4,7 km/h (1 Bft) W-SW 252 ° 0 min 0,000 mm 0,0 UV-I 16 W/m² 6,2 °C 6,4 km/h (2 Bft)
19.10.2016 08:35 7,6 °C 7,6 °C 91 % 1018,7 hPa 0,0 mm 4,1 km/h (1 Bft) W-NW 288 ° 0 min 0,000 mm 0,0 UV-I 16 W/m² 6,2 °C 6,4 km/h (2 Bft)
19.10.2016 08:36 7,6 °C 7,6 °C 91 % 1018,7 hPa 0,0 mm 2,4 km/h (1 Bft) S-SW 200 ° 0 min 0,000 mm 0,0 UV-I 18 W/m² 6,2 °C 4,8 km/h (1 Bft)
19.10.2016 08:37 7,6 °C 7,6 °C 91 % 1018,7 hPa 0,0 mm 1,9 km/h (1 Bft) SW 229 ° 0 min 0,000 mm 0,0 UV-I 18 W/m² 6,2 °C 3,2 km/h (1 Bft)
19.10.2016 08:38 7,6 °C 7,6 °C 91 % 1018,7 hPa 0,0 mm 2,8 km/h (1 Bft) W-SW 243 ° 0 min 0,000 mm 0,0 UV-I 18 W/m² 6,2 °C 8,0 km/h (2 Bft)
19.10.2016 08:39 7,5 °C 7,6 °C 91 % 1018,7 hPa 0,0 mm 4,6 km/h (1 Bft) W 259 ° 0 min 0,000 mm 0,0 UV-I 18 W/m² 6,1 °C 6,4 km/h (2 Bft)
19.10.2016 08:40 7,6 °C 7,6 °C 91 % 1018,7 hPa 0,0 mm 4,0 km/h (1 Bft) S-SW 205 ° 0 min 0,000 mm 0,0 UV-I 18 W/m² 6,2 °C 6,4 km/h (2 Bft)
19.10.2016 08:41 7,5 °C 7,6 °C 91 % 1018,7 hPa 0,0 mm 4,2 km/h (1 Bft) W 263 ° 0 min 0,000 mm 0,0 UV-I 19 W/m² 6,1 °C 4,8 km/h (1 Bft)
19.10.2016 08:42 7,5 °C 7,5 °C 91 % 1018,7 hPa 0,0 mm 4,5 km/h (1 Bft) W-SW 249 ° 0 min 0,000 mm 0,0 UV-I 19 W/m² 6,1 °C 6,4 km/h (2 Bft)
19.10.2016 08:43 7,4 °C 7,5 °C 91 % 1018,7 hPa 0,0 mm 4,9 km/h (1 Bft) W-SW 258 ° 0 min 0,000 mm 0,0 UV-I 21 W/m² 6,0 °C 11,3 km/h (2 Bft)
19.10.2016 08:44 7,4 °C 7,4 °C 91 % 1018,7 hPa 0,0 mm 4,6 km/h (1 Bft) S 189 ° 0 min 0,000 mm 0,0 UV-I 21 W/m² 6,0 °C 9,7 km/h (2 Bft)
19.10.2016 08:45 7,4 °C 7,4 °C 91 % 1018,7 hPa 0,0 mm 2,8 km/h (1 Bft) W-SW 253 ° 0 min 0,000 mm 0,0 UV-I 25 W/m² 6,0 °C 6,4 km/h (2 Bft)
19.10.2016 08:46 7,4 °C 7,5 °C 91 % 1018,7 hPa 0,0 mm 4,8 km/h (1 Bft) SW 232 ° 0 min 0,000 mm 0,0 UV-I 25 W/m² 6,0 °C 11,3 km/h (2 Bft)
19.10.2016 08:47 7,4 °C 7,4 °C 91 % 1018,8 hPa 0,0 mm 1,1 km/h (1 Bft) SW 232 ° 0 min 0,000 mm 0,0 UV-I 26 W/m² 6,0 °C 3,2 km/h (1 Bft)
19.10.2016 08:48 7,5 °C 7,5 °C 91 % 1018,8 hPa 0,0 mm 3,8 km/h (1 Bft) W-SW 255 ° 0 min 0,000 mm 0,0 UV-I 26 W/m² 6,1 °C 6,4 km/h (2 Bft)
19.10.2016 08:49 7,4 °C 7,5 °C 91 % 1018,8 hPa 0,0 mm 4,5 km/h (1 Bft) W 268 ° 0 min 0,000 mm 0,0 UV-I 28 W/m² 6,0 °C 6,4 km/h (2 Bft)
19.10.2016 08:50 7,4 °C 7,4 °C 91 % 1018,8 hPa 0,0 mm 4,2 km/h (1 Bft) SW 227 ° 0 min 0,000 mm 0,0 UV-I 30 W/m² 6,0 °C 4,8 km/h (1 Bft)
19.10.2016 08:51 7,4 °C 7,4 °C 91 % 1018,8 hPa 0,0 mm 3,8 km/h (1 Bft) W 275 ° 0 min 0,000 mm 0,0 UV-I 35 W/m² 6,0 °C 6,4 km/h (2 Bft)
19.10.2016 08:52 7,4 °C 7,4 °C 91 % 1018,8 hPa 0,0 mm 2,6 km/h (1 Bft) W-SW 241 ° 0 min 0,000 mm 0,0 UV-I 37 W/m² 6,0 °C 4,8 km/h (1 Bft)
19.10.2016 08:53 7,4 °C 7,4 °C 92 % 1018,8 hPa 0,0 mm 3,4 km/h (1 Bft) W 265 ° 0 min 0,000 mm 0,0 UV-I 40 W/m² 6,2 °C 6,4 km/h (2 Bft)
19.10.2016 08:54 7,4 °C 7,4 °C 92 % 1018,7 hPa 0,0 mm 0,6 km/h (0 Bft) W 265 ° 0 min 0,000 mm 0,0 UV-I 42 W/m² 6,2 °C 1,6 km/h (1 Bft)
19.10.2016 08:55 7,4 °C 7,4 °C 92 % 1018,8 hPa 0,0 mm 2,5 km/h (1 Bft) W 263 ° 0 min 0,000 mm 0,0 UV-I 44 W/m² 6,2 °C 6,4 km/h (2 Bft)
19.10.2016 08:56 7,4 °C 7,4 °C 91 % 1018,8 hPa 0,0 mm 7,1 km/h (2 Bft) W 263 ° 0 min 0,000 mm 0,0 UV-I 44 W/m² 6,0 °C 12,9 km/h (3 Bft)
19.10.2016 08:57 7,4 °C 7,4 °C 91 % 1018,8 hPa 0,0 mm 6,2 km/h (2 Bft) W-SW 243 ° 0 min 0,000 mm 0,0 UV-I 47 W/m² 6,0 °C 8,0 km/h (2 Bft)
19.10.2016 08:58 7,5 °C 7,5 °C 91 % 1018,8 hPa 0,0 mm 4,9 km/h (1 Bft) SW 223 ° 0 min 0,000 mm 0,0 UV-I 49 W/m² 6,1 °C 11,3 km/h (2 Bft)
19.10.2016 08:59 7,5 °C 7,5 °C 91 % 1018,8 hPa 0,0 mm 5,1 km/h (1 Bft) W 271 ° 0 min 0,000 mm 0,0 UV-I 49 W/m² 6,1 °C 9,7 km/h (2 Bft)
19.10.2016 09:00 7,6 °C 7,6 °C 91 % 1018,8 hPa 0,0 mm 3,7 km/h (1 Bft) W-SW 255 ° 0 min 0,026 mm 0,0 UV-I 47 W/m² 6,2 °C 6,4 km/h (2 Bft)
19.10.2016 09:01 7,6 °C 7,6 °C 91 % 1018,8 hPa 0,0 mm 4,9 km/h (1 Bft) W 275 ° 0 min 0,000 mm 0,0 UV-I 47 W/m² 6,2 °C 6,4 km/h (2 Bft)
19.10.2016 09:02 7,6 °C 7,6 °C 90 % 1018,9 hPa 0,0 mm 9,7 km/h (2 Bft) W 262 ° 0 min 0,000 mm 0,0 UV-I 46 W/m² 6,1 °C 12,9 km/h (3 Bft)
19.10.2016 09:03 7,6 °C 7,6 °C 89 % 1018,9 hPa 0,0 mm 7,7 km/h (2 Bft) W-SW 257 ° 0 min 0,000 mm 0,0 UV-I 46 W/m² 5,9 °C 14,5 km/h (3 Bft)
19.10.2016 09:04 7,7 °C 7,7 °C 89 % 1018,9 hPa 0,0 mm 9,2 km/h (2 Bft) W 279 ° 0 min 0,000 mm 0,0 UV-I 46 W/m² 6,0 °C 16,1 km/h (3 Bft)
19.10.2016 09:05 7,7 °C 7,7 °C 89 % 1018,9 hPa 0,0 mm 7,3 km/h (2 Bft) W 271 ° 0 min 0,000 mm 0,0 UV-I 46 W/m² 6,0 °C 14,5 km/h (3 Bft)
19.10.2016 09:06 7,7 °C 7,7 °C 88 % 1018,9 hPa 0,0 mm 4,2 km/h (1 Bft) W 273 ° 0 min 0,000 mm 0,0 UV-I 46 W/m² 5,8 °C 8,0 km/h (2 Bft)
19.10.2016 09:07 7,8 °C 7,8 °C 88 % 1019,0 hPa 0,0 mm 5,8 km/h (2 Bft) W-SW 256 ° 0 min 0,000 mm 0,0 UV-I 46 W/m² 5,9 °C 9,7 km/h (2 Bft)
19.10.2016 09:08 7,8 °C 7,8 °C 88 % 1018,9 hPa 0,0 mm 8,8 km/h (2 Bft) W 262 ° 0 min 0,000 mm 0,0 UV-I 44 W/m² 5,9 °C 14,5 km/h (3 Bft)
19.10.2016 09:09 7,8 °C 7,8 °C 87 % 1019,0 hPa 0,0 mm 14,6 km/h (3 Bft) W-NW 303 ° 0 min 0,000 mm 0,0 UV-I 40 W/m² 5,8 °C 19,3 km/h (3 Bft)
19.10.2016 09:10 7,8 °C 7,8 °C 87 % 1019,0 hPa 0,0 mm 15,2 km/h (3 Bft) W-NW 287 ° 0 min 0,000 mm 0,0 UV-I 39 W/m² 5,8 °C 19,3 km/h (3 Bft)
19.10.2016 09:11 7,9 °C 7,9 °C 87 % 1018,9 hPa 0,0 mm 12,5 km/h (3 Bft) W-SW 244 ° 0 min 0,000 mm 0,0 UV-I 39 W/m² 5,9 °C 16,1 km/h (3 Bft)
19.10.2016 09:12 7,8 °C 7,9 °C 87 % 1018,9 hPa 0,0 mm 10,9 km/h (2 Bft) W-NW 286 ° 0 min 0,000 mm 0,0 UV-I 39 W/m² 5,8 °C 17,7 km/h (3 Bft)
19.10.2016 09:13 7,8 °C 7,9 °C 87 % 1018,9 hPa 0,0 mm 7,0 km/h (2 Bft) W 265 ° 0 min 0,000 mm 0,0 UV-I 40 W/m² 5,8 °C 12,9 km/h (3 Bft)
19.10.2016 09:14 7,8 °C 7,9 °C 87 % 1018,8 hPa 0,0 mm 7,7 km/h (2 Bft) W 263 ° 0 min 0,000 mm 0,0 UV-I 40 W/m² 5,8 °C 11,3 km/h (2 Bft)
19.10.2016 09:15 7,8 °C 7,9 °C 87 % 1018,9 hPa 0,0 mm 9,7 km/h (2 Bft) W 264 ° 0 min 0,000 mm 0,0 UV-I 40 W/m² 5,8 °C 14,5 km/h (3 Bft)
19.10.2016 09:16 7,8 °C 7,8 °C 87 % 1018,8 hPa 0,0 mm 11,1 km/h (2 Bft) W 268 ° 0 min 0,000 mm 0,0 UV-I 42 W/m² 5,8 °C 16,1 km/h (3 Bft)
19.10.2016 09:17 7,8 °C 7,8 °C 87 % 1018,8 hPa 0,0 mm 5,6 km/h (1 Bft) W 265 ° 0 min 0,000 mm 0,0 UV-I 42 W/m² 5,8 °C 12,9 km/h (3 Bft)
19.10.2016 09:18 7,8 °C 7,8 °C 87 % 1018,9 hPa 0,0 mm 7,9 km/h (2 Bft) SW 235 ° 0 min 0,000 mm 0,0 UV-I 44 W/m² 5,8 °C 12,9 km/h (3 Bft)
19.10.2016 09:19 7,8 °C 7,8 °C 88 % 1019,0 hPa 0,0 mm 7,9 km/h (2 Bft) W 268 ° 0 min 0,000 mm 0,0 UV-I 46 W/m² 5,9 °C 14,5 km/h (3 Bft)
19.10.2016 09:20 7,8 °C 7,8 °C 87 % 1019,0 hPa 0,0 mm 6,1 km/h (2 Bft) W 266 ° 0 min 0,000 mm 0,0 UV-I 49 W/m² 5,8 °C 11,3 km/h (2 Bft)
19.10.2016 09:21 7,8 °C 7,8 °C 87 % 1019,0 hPa 0,0 mm 4,0 km/h (1 Bft) W 269 ° 0 min 0,000 mm 0,0 UV-I 51 W/m² 5,8 °C 9,7 km/h (2 Bft)
19.10.2016 09:22 7,8 °C 7,8 °C 88 % 1019,0 hPa 0,0 mm 5,5 km/h (1 Bft) W-SW 257 ° 0 min 0,000 mm 0,0 UV-I 53 W/m² 5,9 °C 9,7 km/h (2 Bft)
19.10.2016 09:23 7,8 °C 7,8 °C 88 % 1019,0 hPa 0,0 mm 6,8 km/h (2 Bft) W-NW 300 ° 0 min 0,000 mm 0,0 UV-I 51 W/m² 5,9 °C 11,3 km/h (2 Bft)
19.10.2016 09:24 7,8 °C 7,8 °C 88 % 1019,0 hPa 0,0 mm 3,4 km/h (1 Bft) W-SW 257 ° 0 min 0,000 mm 0,0 UV-I 51 W/m² 5,9 °C 4,8 km/h (1 Bft)
19.10.2016 09:25 7,8 °C 7,8 °C 88 % 1019,0 hPa 0,0 mm 9,4 km/h (2 Bft) W-SW 250 ° 0 min 0,000 mm 0,0 UV-I 49 W/m² 5,9 °C 14,5 km/h (3 Bft)
19.10.2016 09:26 7,8 °C 7,8 °C 88 % 1019,0 hPa 0,0 mm 7,9 km/h (2 Bft) W-NW 292 ° 0 min 0,000 mm 0,0 UV-I 49 W/m² 5,9 °C 11,3 km/h (2 Bft)
19.10.2016 09:27 7,8 °C 7,8 °C 88 % 1019,0 hPa 0,0 mm 5,0 km/h (1 Bft) W 275 ° 0 min 0,000 mm 0,0 UV-I 47 W/m² 5,9 °C 12,9 km/h (3 Bft)
19.10.2016 09:28 7,7 °C 7,8 °C 88 % 1019,0 hPa 0,0 mm 10,5 km/h (2 Bft) W-NW 297 ° 0 min 0,000 mm 0,0 UV-I 47 W/m² 5,8 °C 12,9 km/h (3 Bft)
19.10.2016 09:29 7,8 °C 7,8 °C 88 % 1019,0 hPa 0,0 mm 6,7 km/h (2 Bft) W-SW 248 ° 0 min 0,000 mm 0,0 UV-I 47 W/m² 5,9 °C 11,3 km/h (2 Bft)
19.10.2016 09:30 7,8 °C 7,8 °C 88 % 1019,0 hPa 0,0 mm 7,0 km/h (2 Bft) W-NW 285 ° 0 min 0,000 mm 0,0 UV-I 47 W/m² 5,9 °C 11,3 km/h (2 Bft)
19.10.2016 09:31 7,7 °C 7,8 °C 88 % 1019,1 hPa 0,0 mm 10,4 km/h (2 Bft) W 259 ° 0 min 0,000 mm 0,0 UV-I 47 W/m² 5,8 °C 19,3 km/h (3 Bft)
19.10.2016 09:32 7,7 °C 7,8 °C 88 % 1019,0 hPa 0,0 mm 11,0 km/h (2 Bft) SW 230 ° 0 min 0,000 mm 0,0 UV-I 49 W/m² 5,8 °C 22,5 km/h (4 Bft)
19.10.2016 09:33 7,8 °C 7,8 °C 88 % 1019,0 hPa 0,0 mm 5,2 km/h (1 Bft) W 263 ° 0 min 0,000 mm 0,0 UV-I 49 W/m² 5,9 °C 8,0 km/h (2 Bft)
19.10.2016 09:34 7,7 °C 7,8 °C 88 % 1019,0 hPa 0,0 mm 6,2 km/h (2 Bft) W 260 ° 0 min 0,000 mm 0,0 UV-I 49 W/m² 5,8 °C 11,3 km/h (2 Bft)
19.10.2016 09:35 7,8 °C 7,8 °C 88 % 1019,1 hPa 0,0 mm 8,6 km/h (2 Bft) SW 215 ° 0 min 0,000 mm 0,0 UV-I 49 W/m² 5,9 °C 11,3 km/h (2 Bft)
19.10.2016 09:36 7,8 °C 7,8 °C 88 % 1019,1 hPa 0,0 mm 8,7 km/h (2 Bft) W 277 ° 0 min 0,000 mm 0,0 UV-I 49 W/m² 5,9 °C 12,9 km/h (3 Bft)
19.10.2016 09:37 7,8 °C 7,8 °C 88 % 1019,1 hPa 0,0 mm 7,3 km/h (2 Bft) W-SW 238 ° 0 min 0,000 mm 0,0 UV-I 47 W/m² 5,9 °C 11,3 km/h (2 Bft)
19.10.2016 09:38 7,8 °C 7,8 °C 88 % 1019,1 hPa 0,0 mm 5,1 km/h (1 Bft) W-SW 255 ° 0 min 0,000 mm 0,0 UV-I 46 W/m² 5,9 °C 6,4 km/h (2 Bft)
19.10.2016 09:39 7,8 °C 7,8 °C 87 % 1019,0 hPa 0,0 mm 6,1 km/h (2 Bft) W 261 ° 0 min 0,000 mm 0,0 UV-I 46 W/m² 5,8 °C 9,7 km/h (2 Bft)
19.10.2016 09:40 7,8 °C 7,8 °C 88 % 1019,1 hPa 0,0 mm 4,4 km/h (1 Bft) SW 234 ° 0 min 0,000 mm 0,0 UV-I 46 W/m² 5,9 °C 6,4 km/h (2 Bft)
19.10.2016 09:41 7,8 °C 7,8 °C 88 % 1019,1 hPa 0,0 mm 3,8 km/h (1 Bft) W-SW 250 ° 0 min 0,000 mm 0,0 UV-I 47 W/m² 5,9 °C 4,8 km/h (1 Bft)
19.10.2016 09:42 7,8 °C 7,8 °C 87 % 1019,0 hPa 0,0 mm 3,8 km/h (1 Bft) S 190 ° 0 min 0,000 mm 0,0 UV-I 49 W/m² 5,8 °C 4,8 km/h (1 Bft)
19.10.2016 09:43 7,8 °C 7,8 °C 87 % 1019,0 hPa 0,0 mm 2,7 km/h (1 Bft) SW 227 ° 0 min 0,000 mm 0,0 UV-I 51 W/m² 5,8 °C 6,4 km/h (2 Bft)
19.10.2016 09:44 7,8 °C 7,8 °C 88 % 1019,1 hPa 0,0 mm 3,1 km/h (1 Bft) S-SW 209 ° 0 min 0,000 mm 0,0 UV-I 54 W/m² 5,9 °C 6,4 km/h (2 Bft)
19.10.2016 09:45 7,8 °C 7,8 °C 88 % 1019,1 hPa 0,0 mm 4,4 km/h (1 Bft) SW 221 ° 0 min 0,000 mm 0,0 UV-I 54 W/m² 5,9 °C 8,0 km/h (2 Bft)
19.10.2016 09:46 7,8 °C 7,8 °C 88 % 1019,1 hPa 0,0 mm 3,4 km/h (1 Bft) W 264 ° 0 min 0,000 mm 0,0 UV-I 56 W/m² 5,9 °C 4,8 km/h (1 Bft)
19.10.2016 09:47 7,8 °C 7,8 °C 88 % 1019,1 hPa 0,0 mm 7,2 km/h (2 Bft) S-SW 211 ° 0 min 0,000 mm 0,0 UV-I 56 W/m² 5,9 °C 12,9 km/h (3 Bft)
19.10.2016 09:48 7,8 °C 7,8 °C 88 % 1019,0 hPa 0,0 mm 3,1 km/h (1 Bft) S-SW 194 ° 0 min 0,000 mm 0,0 UV-I 56 W/m² 5,9 °C 6,4 km/h (2 Bft)
19.10.2016 09:49 7,8 °C 7,8 °C 88 % 1019,0 hPa 0,0 mm 3,3 km/h (1 Bft) SW 223 ° 0 min 0,000 mm 0,0 UV-I 56 W/m² 5,9 °C 4,8 km/h (1 Bft)
19.10.2016 09:50 7,8 °C 7,8 °C 88 % 1019,0 hPa 0,0 mm 4,8 km/h (1 Bft) S-SW 210 ° 0 min 0,000 mm 0,0 UV-I 54 W/m² 5,9 °C 6,4 km/h (2 Bft)
19.10.2016 09:51 7,8 °C 7,8 °C 88 % 1019,0 hPa 0,0 mm 5,6 km/h (1 Bft) S-SW 209 ° 0 min 0,000 mm 0,0 UV-I 54 W/m² 5,9 °C 8,0 km/h (2 Bft)
19.10.2016 09:52 7,8 °C 7,8 °C 88 % 1019,0 hPa 0,0 mm 2,5 km/h (1 Bft) S-SW 210 ° 0 min 0,000 mm 0,0 UV-I 54 W/m² 5,9 °C 6,4 km/h (2 Bft)
19.10.2016 09:53 7,8 °C 7,8 °C 88 % 1019,0 hPa 0,0 mm 2,3 km/h (1 Bft) S-SW 213 ° 0 min 0,000 mm 0,0 UV-I 54 W/m² 5,9 °C 4,8 km/h (1 Bft)
19.10.2016 09:54 7,8 °C 7,8 °C 87 % 1019,0 hPa 0,0 mm 1,7 km/h (1 Bft) W 259 ° 0 min 0,000 mm 0,0 UV-I 54 W/m² 5,8 °C 3,2 km/h (1 Bft)
19.10.2016 09:55 7,8 °C 7,8 °C 88 % 1019,0 hPa 0,0 mm 2,4 km/h (1 Bft) S-SO 163 ° 0 min 0,000 mm 0,0 UV-I 56 W/m² 5,9 °C 4,8 km/h (1 Bft)
19.10.2016 09:56 7,8 °C 7,8 °C 88 % 1019,0 hPa 0,0 mm 3,4 km/h (1 Bft) W-SW 250 ° 0 min 0,000 mm 0,0 UV-I 58 W/m² 5,9 °C 6,4 km/h (2 Bft)
19.10.2016 09:57 7,8 °C 7,8 °C 87 % 1019,0 hPa 0,0 mm 2,9 km/h (1 Bft) SW 229 ° 0 min 0,000 mm 0,0 UV-I 60 W/m² 5,8 °C 4,8 km/h (1 Bft)
19.10.2016 09:58 7,8 °C 7,8 °C 88 % 1019,0 hPa 0,0 mm 2,3 km/h (1 Bft) SW 229 ° 0 min 0,000 mm 0,0 UV-I 62 W/m² 5,9 °C 4,8 km/h (1 Bft)
19.10.2016 09:59 7,8 °C 7,8 °C 88 % 1019,0 hPa 0,0 mm 2,6 km/h (1 Bft) SW 232 ° 0 min 0,000 mm 0,0 UV-I 62 W/m² 5,9 °C 3,2 km/h (1 Bft)
19.10.2016 10:00 7,8 °C 7,9 °C 88 % 1018,9 hPa 0,0 mm 5,0 km/h (1 Bft) W 263 ° 0 min 0,025 mm 0,0 UV-I 62 W/m² 5,9 °C 6,4 km/h (2 Bft)
19.10.2016 10:01 7,8 °C 7,8 °C 88 % 1018,9 hPa 0,0 mm 6,8 km/h (2 Bft) W 264 ° 0 min 0,000 mm 0,0 UV-I 62 W/m² 5,9 °C 11,3 km/h (2 Bft)
19.10.2016 10:02 7,8 °C 7,9 °C 88 % 1018,9 hPa 0,0 mm 5,2 km/h (1 Bft) W-SW 258 ° 0 min 0,000 mm 0,0 UV-I 62 W/m² 5,9 °C 6,4 km/h (2 Bft)
19.10.2016 10:03 7,8 °C 7,8 °C 88 % 1018,9 hPa 0,0 mm 4,8 km/h (1 Bft) W-SW 242 ° 0 min 0,000 mm 0,0 UV-I 62 W/m² 5,9 °C 6,4 km/h (2 Bft)
19.10.2016 10:04 7,9 °C 7,9 °C 88 % 1018,9 hPa 0,0 mm 3,9 km/h (1 Bft) W-SW 251 ° 0 min 0,000 mm 0,0 UV-I 62 W/m² 6,0 °C 6,4 km/h (2 Bft)
19.10.2016 10:05 7,8 °C 7,9 °C 88 % 1018,9 hPa 0,0 mm 4,9 km/h (1 Bft) W-SW 241 ° 0 min 0,000 mm 0,0 UV-I 62 W/m² 5,9 °C 8,0 km/h (2 Bft)
19.10.2016 10:06 7,9 °C 7,9 °C 88 % 1018,9 hPa 0,0 mm 2,8 km/h (1 Bft) W-SW 247 ° 0 min 0,000 mm 0,0 UV-I 62 W/m² 6,0 °C 4,8 km/h (1 Bft)
19.10.2016 10:07 7,9 °C 7,9 °C 88 % 1018,9 hPa 0,0 mm 1,5 km/h (1 Bft) S-SW 204 ° 0 min 0,000 mm 0,0 UV-I 63 W/m² 6,0 °C 3,2 km/h (1 Bft)
19.10.2016 10:08 7,9 °C 7,9 °C 88 % 1019,0 hPa 0,0 mm 0,3 km/h (0 Bft) S-SW 204 ° 0 min 0,000 mm 0,0 UV-I 63 W/m² 6,0 °C 1,6 km/h (1 Bft)
19.10.2016 10:09 7,9 °C 7,9 °C 87 % 1019,0 hPa 0,0 mm 0,3 km/h (0 Bft) SW 228 ° 0 min 0,000 mm 0,0 UV-I 63 W/m² 5,9 °C 1,6 km/h (1 Bft)
19.10.2016 10:10 7,9 °C 7,9 °C 87 % 1019,0 hPa 0,0 mm 2,0 km/h (1 Bft) W-SW 247 ° 0 min 0,000 mm 0,0 UV-I 63 W/m² 5,9 °C 4,8 km/h (1 Bft)
19.10.2016 10:11 7,9 °C 7,9 °C 87 % 1019,0 hPa 0,0 mm 2,7 km/h (1 Bft) W-SW 245 ° 0 min 0,000 mm 0,0 UV-I 63 W/m² 5,9 °C 4,8 km/h (1 Bft)
19.10.2016 10:12 8,0 °C 8,0 °C 87 % 1019,0 hPa 0,0 mm 2,5 km/h (1 Bft) W-SW 246 ° 0 min 0,000 mm 0,0 UV-I 63 W/m² 6,0 °C 4,8 km/h (1 Bft)
19.10.2016 10:13 8,0 °C 8,0 °C 87 % 1019,0 hPa 0,0 mm 2,4 km/h (1 Bft) W-SW 248 ° 0 min 0,000 mm 0,0 UV-I 62 W/m² 6,0 °C 4,8 km/h (1 Bft)
19.10.2016 10:14 8,0 °C 8,0 °C 87 % 1019,0 hPa 0,0 mm 2,7 km/h (1 Bft) W-SW 248 ° 0 min 0,000 mm 0,0 UV-I 62 W/m² 6,0 °C 4,8 km/h (1 Bft)
19.10.2016 10:15 8,0 °C 8,1 °C 87 % 1019,0 hPa 0,0 mm 1,7 km/h (1 Bft) W-SW 248 ° 0 min 0,000 mm 0,0 UV-I 62 W/m² 6,0 °C 3,2 km/h (1 Bft)
19.10.2016 10:16 8,0 °C 8,1 °C 88 % 1018,9 hPa 0,0 mm 2,6 km/h (1 Bft) S-SW 198 ° 0 min 0,000 mm 0,0 UV-I 62 W/m² 6,1 °C 4,8 km/h (1 Bft)
19.10.2016 10:17 8,1 °C 8,1 °C 88 % 1019,0 hPa 0,0 mm 4,0 km/h (1 Bft) W 279 ° 0 min 0,000 mm 0,0 UV-I 62 W/m² 6,2 °C 6,4 km/h (2 Bft)
19.10.2016 10:18 8,1 °C 8,1 °C 88 % 1018,9 hPa 0,0 mm 3,0 km/h (1 Bft) SW 236 ° 0 min 0,000 mm 0,0 UV-I 63 W/m² 6,2 °C 4,8 km/h (1 Bft)
19.10.2016 10:19 8,1 °C 8,1 °C 87 % 1019,0 hPa 0,0 mm 2,1 km/h (1 Bft) SW 236 ° 0 min 0,000 mm 0,0 UV-I 63 W/m² 6,1 °C 4,8 km/h (1 Bft)
19.10.2016 10:20 8,1 °C 8,1 °C 87 % 1018,9 hPa 0,0 mm 2,6 km/h (1 Bft) W 265 ° 0 min 0,000 mm 0,0 UV-I 62 W/m² 6,1 °C 4,8 km/h (1 Bft)
19.10.2016 10:21 8,1 °C 8,1 °C 87 % 1018,9 hPa 0,0 mm 4,9 km/h (1 Bft) W 261 ° 0 min 0,000 mm 0,0 UV-I 60 W/m² 6,1 °C 6,4 km/h (2 Bft)
19.10.2016 10:22 8,1 °C 8,1 °C 87 % 1018,9 hPa 0,0 mm 3,6 km/h (1 Bft) W-NW 285 ° 0 min 0,000 mm 0,0 UV-I 60 W/m² 6,1 °C 4,8 km/h (1 Bft)
19.10.2016 10:23 8,1 °C 8,1 °C 87 % 1018,9 hPa 0,0 mm 6,4 km/h (2 Bft) W 265 ° 0 min 0,000 mm 0,0 UV-I 60 W/m² 6,1 °C 11,3 km/h (2 Bft)
19.10.2016 10:24 8,1 °C 8,1 °C 87 % 1018,9 hPa 0,0 mm 5,9 km/h (2 Bft) W-SW 248 ° 0 min 0,000 mm 0,0 UV-I 62 W/m² 6,1 °C 9,7 km/h (2 Bft)
19.10.2016 10:25 8,1 °C 8,1 °C 87 % 1018,9 hPa 0,0 mm 5,1 km/h (1 Bft) W-SW 246 ° 0 min 0,000 mm 0,0 UV-I 67 W/m² 6,1 °C 11,3 km/h (2 Bft)
19.10.2016 10:26 8,1 °C 8,1 °C 87 % 1018,9 hPa 0,0 mm 3,2 km/h (1 Bft) W-SW 246 ° 0 min 0,000 mm 0,5 UV-I 70 W/m² 6,1 °C 4,8 km/h (1 Bft)
19.10.2016 10:27 8,1 °C 8,1 °C 86 % 1019,0 hPa 0,0 mm 5,5 km/h (1 Bft) W-SW 256 ° 0 min 0,000 mm 0,5 UV-I 74 W/m² 5,9 °C 9,7 km/h (2 Bft)
19.10.2016 10:28 8,1 °C 8,2 °C 88 % 1018,9 hPa 0,0 mm 3,1 km/h (1 Bft) W-SW 255 ° 0 min 0,000 mm 0,5 UV-I 77 W/m² 6,2 °C 4,8 km/h (1 Bft)
19.10.2016 10:29 8,1 °C 8,1 °C 87 % 1019,0 hPa 0,0 mm 4,6 km/h (1 Bft) W 281 ° 0 min 0,000 mm 0,5 UV-I 79 W/m² 6,1 °C 6,4 km/h (2 Bft)
19.10.2016 10:30 8,2 °C 8,2 °C 87 % 1019,0 hPa 0,0 mm 2,1 km/h (1 Bft) W-SW 253 ° 0 min 0,000 mm 0,6 UV-I 81 W/m² 6,2 °C 4,8 km/h (1 Bft)
19.10.2016 10:31 8,2 °C 8,2 °C 87 % 1018,9 hPa 0,0 mm 5,3 km/h (1 Bft) W-SW 244 ° 0 min 0,000 mm 0,6 UV-I 83 W/m² 6,2 °C 9,7 km/h (2 Bft)
19.10.2016 10:32 8,2 °C 8,2 °C 85 % 1018,9 hPa 0,0 mm 4,0 km/h (1 Bft) SW 223 ° 0 min 0,000 mm 0,6 UV-I 83 W/m² 5,8 °C 6,4 km/h (2 Bft)
19.10.2016 10:33 8,2 °C 8,2 °C 86 % 1019,0 hPa 0,0 mm 2,7 km/h (1 Bft) SW 225 ° 0 min 0,000 mm 0,6 UV-I 81 W/m² 6,0 °C 4,8 km/h (1 Bft)
19.10.2016 10:34 8,2 °C 8,2 °C 86 % 1018,9 hPa 0,0 mm 4,3 km/h (1 Bft) W-SW 256 ° 0 min 0,000 mm 0,6 UV-I 77 W/m² 6,0 °C 6,4 km/h (2 Bft)
19.10.2016 10:35 8,3 °C 8,3 °C 86 % 1018,9 hPa 0,0 mm 4,4 km/h (1 Bft) SW 234 ° 0 min 0,000 mm 0,6 UV-I 77 W/m² 6,1 °C 8,0 km/h (2 Bft)
19.10.2016 10:36 8,3 °C 8,3 °C 86 % 1019,0 hPa 0,0 mm 6,0 km/h (2 Bft) W 263 ° 0 min 0,000 mm 0,6 UV-I 77 W/m² 6,1 °C 11,3 km/h (2 Bft)
19.10.2016 10:37 8,3 °C 8,3 °C 85 % 1019,0 hPa 0,0 mm 3,2 km/h (1 Bft) W-SW 248 ° 0 min 0,000 mm 0,6 UV-I 81 W/m² 5,9 °C 6,4 km/h (2 Bft)
19.10.2016 10:38 8,3 °C 8,3 °C 86 % 1019,0 hPa 0,0 mm 7,4 km/h (2 Bft) W-SW 249 ° 0 min 0,000 mm 0,6 UV-I 84 W/m² 6,1 °C 11,3 km/h (2 Bft)
19.10.2016 10:39 8,3 °C 8,3 °C 85 % 1018,9 hPa 0,0 mm 4,3 km/h (1 Bft) W 276 ° 0 min 0,000 mm 0,7 UV-I 90 W/m² 5,9 °C 6,4 km/h (2 Bft)
19.10.2016 10:40 8,3 °C 8,3 °C 85 % 1018,9 hPa 0,0 mm 2,2 km/h (1 Bft) W 276 ° 0 min 0,000 mm 0,7 UV-I 95 W/m² 5,9 °C 4,8 km/h (1 Bft)
19.10.2016 10:41 8,3 °C 8,3 °C 86 % 1018,9 hPa 0,0 mm 2,7 km/h (1 Bft) W 279 ° 0 min 0,000 mm 0,7 UV-I 102 W/m² 6,1 °C 4,8 km/h (1 Bft)
19.10.2016 10:42 8,3 °C 8,3 °C 86 % 1018,9 hPa 0,0 mm 3,6 km/h (1 Bft) W-NW 284 ° 0 min 0,000 mm 0,8 UV-I 109 W/m² 6,1 °C 4,8 km/h (1 Bft)
19.10.2016 10:43 8,3 °C 8,3 °C 86 % 1018,9 hPa 0,0 mm 1,5 km/h (1 Bft) W-NW 284 ° 0 min 0,000 mm 0,8 UV-I 113 W/m² 6,1 °C 3,2 km/h (1 Bft)
19.10.2016 10:44 8,4 °C 8,4 °C 85 % 1019,0 hPa 0,0 mm 4,0 km/h (1 Bft) W 259 ° 0 min 0,000 mm 0,8 UV-I 116 W/m² 6,0 °C 4,8 km/h (1 Bft)
19.10.2016 10:45 8,4 °C 8,4 °C 85 % 1018,9 hPa 0,0 mm 4,4 km/h (1 Bft) W-SW 252 ° 0 min 0,000 mm 0,9 UV-I 121 W/m² 6,0 °C 6,4 km/h (2 Bft)
19.10.2016 10:46 8,4 °C 8,4 °C 84 % 1018,9 hPa 0,0 mm 10,0 km/h (2 Bft) W 259 ° 0 min 0,000 mm 0,9 UV-I 127 W/m² 5,9 °C 14,5 km/h (3 Bft)
19.10.2016 10:47 8,4 °C 8,5 °C 85 % 1018,9 hPa 0,0 mm 4,8 km/h (1 Bft) SW 231 ° 0 min 0,000 mm 0,9 UV-I 132 W/m² 6,0 °C 6,4 km/h (2 Bft)
19.10.2016 10:48 8,6 °C 8,6 °C 85 % 1018,9 hPa 0,0 mm 9,9 km/h (2 Bft) W 260 ° 0 min 0,000 mm 0,9 UV-I 139 W/m² 6,2 °C 17,7 km/h (3 Bft)
19.10.2016 10:49 8,6 °C 8,6 °C 83 % 1018,9 hPa 0,0 mm 6,4 km/h (2 Bft) W 261 ° 0 min 0,000 mm 1,0 UV-I 142 W/m² 5,9 °C 9,7 km/h (2 Bft)
19.10.2016 10:50 8,6 °C 8,6 °C 82 % 1018,9 hPa 0,0 mm 12,7 km/h (3 Bft) SW 236 ° 0 min 0,000 mm 1,0 UV-I 148 W/m² 5,7 °C 17,7 km/h (3 Bft)
19.10.2016 10:51 8,6 °C 8,6 °C 83 % 1018,9 hPa 0,0 mm 6,1 km/h (2 Bft) W 263 ° 0 min 0,000 mm 1,1 UV-I 153 W/m² 5,9 °C 9,7 km/h (2 Bft)
19.10.2016 10:52 8,6 °C 8,7 °C 83 % 1018,9 hPa 0,0 mm 4,8 km/h (1 Bft) W-SW 244 ° 0 min 0,000 mm 1,1 UV-I 156 W/m² 5,9 °C 6,4 km/h (2 Bft)
19.10.2016 10:53 8,7 °C 8,7 °C 84 % 1018,9 hPa 0,0 mm 10,1 km/h (2 Bft) SW 225 ° 0 min 0,000 mm 1,1 UV-I 163 W/m² 6,2 °C 17,7 km/h (3 Bft)
19.10.2016 10:54 8,7 °C 8,7 °C 81 % 1018,9 hPa 0,0 mm 9,4 km/h (2 Bft) W 263 ° 0 min 0,000 mm 1,2 UV-I 176 W/m² 5,6 °C 16,1 km/h (3 Bft)
19.10.2016 10:55 8,8 °C 8,8 °C 82 % 1018,9 hPa 0,0 mm 5,2 km/h (1 Bft) W 259 ° 0 min 0,000 mm 1,2 UV-I 181 W/m² 5,9 °C 11,3 km/h (2 Bft)
19.10.2016 10:56 8,8 °C 8,8 °C 82 % 1018,9 hPa 0,0 mm 7,0 km/h (2 Bft) W-SW 242 ° 0 min 0,000 mm 1,2 UV-I 185 W/m² 5,9 °C 11,3 km/h (2 Bft)
19.10.2016 10:57 8,8 °C 8,8 °C 82 % 1018,8 hPa 0,0 mm 7,0 km/h (2 Bft) W-NW 300 ° 0 min 0,000 mm 1,3 UV-I 190 W/m² 5,9 °C 12,9 km/h (3 Bft)
19.10.2016 10:58 8,9 °C 8,9 °C 82 % 1018,9 hPa 0,0 mm 11,0 km/h (2 Bft) W-SW 241 ° 0 min 0,000 mm 1,3 UV-I 192 W/m² 6,0 °C 17,7 km/h (3 Bft)
19.10.2016 10:59 8,9 °C 8,9 °C 81 % 1018,8 hPa 0,0 mm 7,2 km/h (2 Bft) SW 225 ° 0 min 0,000 mm 1,3 UV-I 193 W/m² 5,8 °C 12,9 km/h (3 Bft)
19.10.2016 11:00 8,9 °C 8,9 °C 80 % 1018,8 hPa 0,0 mm 4,0 km/h (1 Bft) S-SW 195 ° 0 min 0,000 mm 1,3 UV-I 193 W/m² 5,6 °C 6,4 km/h (2 Bft)
19.10.2016 11:01 8,9 °C 8,9 °C 78 % 1018,8 hPa 0,0 mm 4,5 km/h (1 Bft) W-SW 253 ° 0 min 0,051 mm 1,3 UV-I 195 W/m² 5,3 °C 11,3 km/h (2 Bft)
19.10.2016 11:02 9,0 °C 9,0 °C 79 % 1018,8 hPa 0,0 mm 7,6 km/h (2 Bft) W-SW 246 ° 0 min 0,000 mm 1,3 UV-I 193 W/m² 5,6 °C 12,9 km/h (3 Bft)
19.10.2016 11:03 9,0 °C 9,0 °C 79 % 1018,8 hPa 0,0 mm 11,1 km/h (2 Bft) W-NW 285 ° 0 min 0,000 mm 1,3 UV-I 192 W/m² 5,6 °C 20,9 km/h (4 Bft)
19.10.2016 11:04 9,0 °C 9,0 °C 80 % 1018,8 hPa 0,0 mm 6,3 km/h (2 Bft) W-SW 246 ° 0 min 0,000 mm 1,3 UV-I 190 W/m² 5,7 °C 11,3 km/h (2 Bft)
19.10.2016 11:05 9,0 °C 9,0 °C 81 % 1018,8 hPa 0,0 mm 6,6 km/h (2 Bft) W-SW 251 ° 0 min 0,000 mm 1,3 UV-I 188 W/m² 5,9 °C 11,3 km/h (2 Bft)
19.10.2016 11:06 9,0 °C 9,1 °C 79 % 1018,8 hPa 0,0 mm 10,4 km/h (2 Bft) W-SW 250 ° 0 min 0,000 mm 1,3 UV-I 183 W/m² 5,6 °C 17,7 km/h (3 Bft)
19.10.2016 11:07 9,1 °C 9,1 °C 81 % 1018,8 hPa 0,0 mm 10,9 km/h (2 Bft) W-SW 253 ° 0 min 0,000 mm 1,3 UV-I 181 W/m² 6,0 °C 17,7 km/h (3 Bft)
19.10.2016 11:08 9,1 °C 9,1 °C 79 % 1018,8 hPa 0,0 mm 10,9 km/h (2 Bft) W 266 ° 0 min 0,000 mm 1,3 UV-I 179 W/m² 5,7 °C 17,7 km/h (3 Bft)
19.10.2016 11:09 9,1 °C 9,1 °C 81 % 1018,8 hPa 0,0 mm 10,8 km/h (2 Bft) W-SW 250 ° 0 min 0,000 mm 1,3 UV-I 174 W/m² 6,0 °C 17,7 km/h (3 Bft)
19.10.2016 11:10 9,1 °C 9,1 °C 81 % 1018,8 hPa 0,0 mm 6,2 km/h (2 Bft) W-NW 294 ° 0 min 0,000 mm 1,3 UV-I 169 W/m² 6,0 °C 11,3 km/h (2 Bft)
19.10.2016 11:11 9,1 °C 9,1 °C 80 % 1018,8 hPa 0,0 mm 7,4 km/h (2 Bft) W-SW 246 ° 0 min 0,000 mm 1,3 UV-I 165 W/m² 5,8 °C 11,3 km/h (2 Bft)
19.10.2016 11:12 9,1 °C 9,1 °C 81 % 1018,8 hPa 0,0 mm 7,7 km/h (2 Bft) W-NW 290 ° 0 min 0,000 mm 1,3 UV-I 156 W/m² 6,0 °C 14,5 km/h (3 Bft)
19.10.2016 11:13 9,1 °C 9,1 °C 80 % 1018,7 hPa 0,0 mm 7,2 km/h (2 Bft) W-NW 288 ° 0 min 0,000 mm 1,3 UV-I 153 W/m² 5,8 °C 11,3 km/h (2 Bft)
19.10.2016 11:14 9,1 °C 9,1 °C 80 % 1018,7 hPa 0,0 mm 9,4 km/h (2 Bft) W 279 ° 0 min 0,000 mm 1,3 UV-I 151 W/m² 5,8 °C 16,1 km/h (3 Bft)
19.10.2016 11:15 9,1 °C 9,1 °C 79 % 1018,8 hPa 0,0 mm 11,7 km/h (2 Bft) W-SW 240 ° 0 min 0,000 mm 1,3 UV-I 148 W/m² 5,7 °C 14,5 km/h (3 Bft)
19.10.2016 11:16 9,1 °C 9,1 °C 78 % 1018,7 hPa 0,0 mm 10,9 km/h (2 Bft) W 263 ° 0 min 0,000 mm 1,3 UV-I 144 W/m² 5,5 °C 17,7 km/h (3 Bft)
19.10.2016 11:17 9,0 °C 9,1 °C 79 % 1018,7 hPa 0,0 mm 7,5 km/h (2 Bft) W-NW 286 ° 0 min 0,000 mm 1,3 UV-I 155 W/m² 5,6 °C 14,5 km/h (3 Bft)
19.10.2016 11:18 9,0 °C 9,1 °C 79 % 1018,7 hPa 0,0 mm 6,2 km/h (2 Bft) W-SW 243 ° 0 min 0,000 mm 1,4 UV-I 169 W/m² 5,6 °C 16,1 km/h (3 Bft)
19.10.2016 11:19 9,1 °C 9,1 °C 79 % 1018,7 hPa 0,0 mm 8,0 km/h (2 Bft) W 269 ° 0 min 0,000 mm 1,5 UV-I 183 W/m² 5,7 °C 12,9 km/h (3 Bft)
19.10.2016 11:20 9,1 °C 9,1 °C 78 % 1018,6 hPa 0,0 mm 6,8 km/h (2 Bft) W-SW 252 ° 0 min 0,000 mm 1,6 UV-I 200 W/m² 5,5 °C 11,3 km/h (2 Bft)
19.10.2016 11:21 9,1 °C 9,1 °C 78 % 1018,6 hPa 0,0 mm 7,1 km/h (2 Bft) W-NW 288 ° 0 min 0,000 mm 1,6 UV-I 216 W/m² 5,5 °C 11,3 km/h (2 Bft)
19.10.2016 11:22 9,1 °C 9,1 °C 78 % 1018,6 hPa 0,0 mm 9,8 km/h (2 Bft) W-NW 289 ° 0 min 0,000 mm 1,6 UV-I 221 W/m² 5,5 °C 17,7 km/h (3 Bft)
19.10.2016 11:23 9,2 °C 9,2 °C 78 % 1018,6 hPa 0,0 mm 10,6 km/h (2 Bft) W 269 ° 0 min 0,000 mm 1,6 UV-I 220 W/m² 5,6 °C 17,7 km/h (3 Bft)
19.10.2016 11:24 9,2 °C 9,2 °C 77 % 1018,6 hPa 0,0 mm 13,5 km/h (3 Bft) W 261 ° 0 min 0,000 mm 1,6 UV-I 209 W/m² 5,4 °C 17,7 km/h (3 Bft)
19.10.2016 11:25 9,2 °C 9,2 °C 76 % 1018,6 hPa 0,0 mm 8,5 km/h (2 Bft) W 273 ° 0 min 0,000 mm 1,6 UV-I 207 W/m² 5,2 °C 11,3 km/h (2 Bft)
19.10.2016 11:26 9,2 °C 9,2 °C 77 % 1018,6 hPa 0,0 mm 9,5 km/h (2 Bft) W-SW 242 ° 0 min 0,000 mm 1,6 UV-I 207 W/m² 5,4 °C 16,1 km/h (3 Bft)
19.10.2016 11:27 9,2 °C 9,2 °C 76 % 1018,5 hPa 0,0 mm 12,7 km/h (3 Bft) W-NW 290 ° 0 min 0,000 mm 1,6 UV-I 206 W/m² 5,2 °C 20,9 km/h (4 Bft)
19.10.2016 11:28 9,3 °C 9,3 °C 77 % 1018,5 hPa 0,0 mm 10,9 km/h (2 Bft) W 271 ° 0 min 0,000 mm 1,6 UV-I 202 W/m² 5,5 °C 20,9 km/h (4 Bft)
19.10.2016 11:29 9,3 °C 9,3 °C 77 % 1018,5 hPa 0,0 mm 12,5 km/h (3 Bft) W-SW 252 ° 0 min 0,000 mm 1,6 UV-I 193 W/m² 5,5 °C 17,7 km/h (3 Bft)
19.10.2016 11:30 9,3 °C 9,3 °C 75 % 1018,5 hPa 0,0 mm 11,3 km/h (2 Bft) W-NW 290 ° 0 min 0,000 mm 1,6 UV-I 195 W/m² 5,1 °C 19,3 km/h (3 Bft)
19.10.2016 11:31 9,3 °C 9,3 °C 76 % 1018,5 hPa 0,0 mm 10,7 km/h (2 Bft) W 264 ° 0 min 0,000 mm 1,6 UV-I 199 W/m² 5,3 °C 14,5 km/h (3 Bft)
19.10.2016 11:32 9,3 °C 9,3 °C 76 % 1018,5 hPa 0,0 mm 7,0 km/h (2 Bft) W 271 ° 0 min 0,000 mm 1,6 UV-I 202 W/m² 5,3 °C 11,3 km/h (2 Bft)
19.10.2016 11:33 9,3 °C 9,3 °C 77 % 1018,5 hPa 0,0 mm 3,7 km/h (1 Bft) W 264 ° 0 min 0,000 mm 1,7 UV-I 207 W/m² 5,5 °C 11,3 km/h (2 Bft)
19.10.2016 11:34 9,3 °C 9,3 °C 78 % 1018,5 hPa 0,0 mm 5,1 km/h (1 Bft) NW 306 ° 0 min 0,000 mm 1,7 UV-I 211 W/m² 5,7 °C 8,0 km/h (2 Bft)
19.10.2016 11:35 9,4 °C 9,4 °C 78 % 1018,5 hPa 0,0 mm 8,9 km/h (2 Bft) W 263 ° 0 min 0,000 mm 1,7 UV-I 216 W/m² 5,8 °C 16,1 km/h (3 Bft)
19.10.2016 11:36 9,4 °C 9,4 °C 76 % 1018,5 hPa 0,0 mm 12,6 km/h (3 Bft) NW 314 ° 0 min 0,000 mm 1,7 UV-I 220 W/m² 5,4 °C 16,1 km/h (3 Bft)
19.10.2016 11:37 9,4 °C 9,4 °C 75 % 1018,5 hPa 0,0 mm 5,7 km/h (1 Bft) W-NW 284 ° 0 min 0,000 mm 1,7 UV-I 223 W/m² 5,2 °C 9,7 km/h (2 Bft)
19.10.2016 11:38 9,4 °C 9,4 °C 78 % 1018,4 hPa 0,0 mm 4,4 km/h (1 Bft) SW 226 ° 0 min 0,000 mm 1,7 UV-I 225 W/m² 5,8 °C 8,0 km/h (2 Bft)
19.10.2016 11:39 9,4 °C 9,4 °C 77 % 1018,4 hPa 0,0 mm 7,7 km/h (2 Bft) NW 306 ° 0 min 0,000 mm 1,8 UV-I 227 W/m² 5,6 °C 12,9 km/h (3 Bft)
19.10.2016 11:40 9,4 °C 9,4 °C 76 % 1018,4 hPa 0,0 mm 6,3 km/h (2 Bft) W-NW 286 ° 0 min 0,000 mm 1,8 UV-I 232 W/m² 5,4 °C 11,3 km/h (2 Bft)
19.10.2016 11:41 9,4 °C 9,5 °C 77 % 1018,3 hPa 0,0 mm 8,6 km/h (2 Bft) W-NW 283 ° 0 min 0,000 mm 1,8 UV-I 239 W/m² 5,6 °C 12,9 km/h (3 Bft)
19.10.2016 11:42 9,6 °C 9,6 °C 78 % 1018,3 hPa 0,0 mm 8,4 km/h (2 Bft) W-NW 292 ° 0 min 0,000 mm 1,8 UV-I 239 W/m² 6,0 °C 14,5 km/h (3 Bft)
19.10.2016 11:43 9,6 °C 9,6 °C 76 % 1018,4 hPa 0,0 mm 8,8 km/h (2 Bft) W-NW 290 ° 0 min 0,000 mm 1,8 UV-I 243 W/m² 5,6 °C 16,1 km/h (3 Bft)
19.10.2016 11:44 9,6 °C 9,6 °C 76 % 1018,3 hPa 0,0 mm 12,8 km/h (3 Bft) W 265 ° 0 min 0,000 mm 1,8 UV-I 246 W/m² 5,6 °C 17,7 km/h (3 Bft)
19.10.2016 11:45 9,7 °C 9,7 °C 74 % 1018,4 hPa 0,0 mm 12,7 km/h (3 Bft) W-NW 288 ° 0 min 0,000 mm 1,8 UV-I 246 W/m² 5,3 °C 19,3 km/h (3 Bft)
19.10.2016 11:46 9,6 °C 9,7 °C 76 % 1018,4 hPa 0,0 mm 11,0 km/h (2 Bft) W-SW 254 ° 0 min 0,000 mm 1,8 UV-I 239 W/m² 5,6 °C 17,7 km/h (3 Bft)
19.10.2016 11:47 9,6 °C 9,6 °C 75 % 1018,4 hPa 0,0 mm 11,1 km/h (2 Bft) S 183 ° 0 min 0,000 mm 1,9 UV-I 244 W/m² 5,4 °C 24,1 km/h (4 Bft)
19.10.2016 11:48 9,6 °C 9,6 °C 77 % 1018,3 hPa 0,0 mm 11,5 km/h (2 Bft) SW 221 ° 0 min 0,000 mm 1,9 UV-I 250 W/m² 5,8 °C 16,1 km/h (3 Bft)
19.10.2016 11:49 9,7 °C 9,7 °C 76 % 1018,4 hPa 0,0 mm 8,0 km/h (2 Bft) W 263 ° 0 min 0,000 mm 1,9 UV-I 274 W/m² 5,7 °C 11,3 km/h (2 Bft)
19.10.2016 11:50 9,7 °C 9,7 °C 75 % 1018,3 hPa 0,0 mm 8,3 km/h (2 Bft) NW 314 ° 0 min 0,000 mm 1,8 UV-I 232 W/m² 5,5 °C 12,9 km/h (3 Bft)
19.10.2016 11:51 9,7 °C 9,7 °C 75 % 1018,3 hPa 0,0 mm 8,5 km/h (2 Bft) W-NW 297 ° 0 min 0,000 mm 1,8 UV-I 234 W/m² 5,5 °C 24,1 km/h (4 Bft)
19.10.2016 11:52 9,7 °C 9,7 °C 74 % 1018,3 hPa 0,0 mm 11,8 km/h (2 Bft) W 278 ° 0 min 0,000 mm 1,8 UV-I 232 W/m² 5,3 °C 20,9 km/h (4 Bft)
19.10.2016 11:53 9,7 °C 9,8 °C 74 % 1018,3 hPa 0,0 mm 13,4 km/h (3 Bft) W 267 ° 0 min 0,000 mm 1,8 UV-I 204 W/m² 5,3 °C 22,5 km/h (4 Bft)
19.10.2016 11:54 9,8 °C 9,8 °C 75 % 1018,3 hPa 0,0 mm 10,1 km/h (2 Bft) N-NW 330 ° 0 min 0,000 mm 1,7 UV-I 195 W/m² 5,6 °C 14,5 km/h (3 Bft)
19.10.2016 11:55 9,7 °C 9,8 °C 75 % 1018,3 hPa 0,0 mm 9,7 km/h (2 Bft) SW 233 ° 0 min 0,000 mm 1,8 UV-I 218 W/m² 5,5 °C 14,5 km/h (3 Bft)
19.10.2016 11:56 9,8 °C 9,8 °C 73 % 1018,3 hPa 0,0 mm 10,1 km/h (2 Bft) W 272 ° 0 min 0,000 mm 1,8 UV-I 209 W/m² 5,2 °C 14,5 km/h (3 Bft)
19.10.2016 11:57 9,7 °C 9,8 °C 72 % 1018,2 hPa 0,0 mm 5,8 km/h (2 Bft) W 276 ° 0 min 0,000 mm 1,8 UV-I 214 W/m² 4,9 °C 9,7 km/h (2 Bft)
19.10.2016 11:58 9,8 °C 9,8 °C 74 % 1018,3 hPa 0,0 mm 4,0 km/h (1 Bft) SW 234 ° 0 min 0,000 mm 1,8 UV-I 197 W/m² 5,4 °C 6,4 km/h (2 Bft)
19.10.2016 11:59 9,8 °C 9,8 °C 75 % 1018,3 hPa 0,0 mm 9,0 km/h (2 Bft) W-SW 257 ° 0 min 0,000 mm 1,8 UV-I 197 W/m² 5,6 °C 14,5 km/h (3 Bft)
19.10.2016 12:00 9,8 °C 9,8 °C 73 % 1018,2 hPa 0,0 mm 6,2 km/h (2 Bft) SW 233 ° 0 min 0,102 mm 1,7 UV-I 178 W/m² 5,2 °C 11,3 km/h (2 Bft)
19.10.2016 12:01 9,7 °C 9,8 °C 73 % 1018,2 hPa 0,0 mm 4,5 km/h (1 Bft) W-SW 238 ° 0 min 0,000 mm 1,7 UV-I 167 W/m² 5,1 °C 9,7 km/h (2 Bft)
19.10.2016 12:02 9,7 °C 9,8 °C 74 % 1018,2 hPa 0,0 mm 14,1 km/h (3 Bft) W 259 ° 0 min 0,000 mm 1,7 UV-I 167 W/m² 5,3 °C 19,3 km/h (3 Bft)
19.10.2016 12:03 9,7 °C 9,7 °C 74 % 1018,2 hPa 0,0 mm 10,6 km/h (2 Bft) SW 233 ° 0 min 0,000 mm 1,7 UV-I 151 W/m² 5,3 °C 16,1 km/h (3 Bft)
19.10.2016 12:04 9,7 °C 9,7 °C 74 % 1018,2 hPa 0,0 mm 8,2 km/h (2 Bft) W 265 ° 0 min 0,000 mm 1,7 UV-I 151 W/m² 5,3 °C 16,1 km/h (3 Bft)
19.10.2016 12:05 9,6 °C 9,7 °C 74 % 1018,3 hPa 0,0 mm 8,1 km/h (2 Bft) W-SW 257 ° 0 min 0,000 mm 1,7 UV-I 178 W/m² 5,2 °C 16,1 km/h (3 Bft)
19.10.2016 12:06 9,6 °C 9,7 °C 74 % 1018,2 hPa 0,0 mm 11,1 km/h (2 Bft) W-SW 255 ° 0 min 0,000 mm 1,9 UV-I 199 W/m² 5,2 °C 17,7 km/h (3 Bft)
19.10.2016 12:07 9,6 °C 9,6 °C 73 % 1018,2 hPa 0,0 mm 8,8 km/h (2 Bft) W-SW 250 ° 0 min 0,000 mm 2,0 UV-I 221 W/m² 5,0 °C 16,1 km/h (3 Bft)
19.10.2016 12:08 9,7 °C 9,7 °C 72 % 1018,2 hPa 0,0 mm 10,2 km/h (2 Bft) W 274 ° 0 min 0,000 mm 2,6 UV-I 221 W/m² 4,9 °C 17,7 km/h (3 Bft)
19.10.2016 12:09 9,7 °C 9,7 °C 73 % 1018,2 hPa 0,0 mm 6,0 km/h (2 Bft) W-SW 242 ° 1 min 0,000 mm 2,9 UV-I 552 W/m² 5,1 °C 12,9 km/h (3 Bft)
19.10.2016 12:10 9,9 °C 9,9 °C 74 % 1018,2 hPa 0,0 mm 7,1 km/h (2 Bft) W 265 ° 1 min 0,000 mm 2,2 UV-I 471 W/m² 5,5 °C 14,5 km/h (3 Bft)
19.10.2016 12:11 10,0 °C 10,0 °C 73 % 1018,2 hPa 0,0 mm 4,8 km/h (1 Bft) W 271 ° 1 min 0,000 mm 3,0 UV-I 603 W/m² 5,4 °C 9,7 km/h (2 Bft)
19.10.2016 12:12 10,2 °C 10,2 °C 73 % 1018,2 hPa 0,0 mm 5,0 km/h (1 Bft) W-SW 247 ° 1 min 0,000 mm 3,0 UV-I 584 W/m² 5,6 °C 9,7 km/h (2 Bft)
19.10.2016 12:13 10,4 °C 10,4 °C 73 % 1018,2 hPa 0,0 mm 11,7 km/h (2 Bft) W 273 ° 1 min 0,000 mm 3,1 UV-I 622 W/m² 5,8 °C 24,1 km/h (4 Bft)
19.10.2016 12:14 10,5 °C 10,5 °C 72 % 1018,2 hPa 0,0 mm 12,9 km/h (3 Bft) W 259 ° 1 min 0,000 mm 3,1 UV-I 680 W/m² 5,7 °C 27,4 km/h (4 Bft)
19.10.2016 12:15 10,6 °C 10,6 °C 73 % 1018,2 hPa 0,0 mm 7,2 km/h (2 Bft) W-NW 299 ° 1 min 0,000 mm 3,1 UV-I 675 W/m² 6,0 °C 11,3 km/h (2 Bft)
19.10.2016 12:16 10,7 °C 10,7 °C 73 % 1018,2 hPa 0,0 mm 8,5 km/h (2 Bft) W 263 ° 1 min 0,000 mm 3,1 UV-I 675 W/m² 6,1 °C 14,5 km/h (3 Bft)
19.10.2016 12:17 10,8 °C 10,8 °C 75 % 1018,1 hPa 0,0 mm 10,2 km/h (2 Bft) W-SW 244 ° 1 min 0,000 mm 3,1 UV-I 675 W/m² 6,5 °C 14,5 km/h (3 Bft)
19.10.2016 12:18 10,9 °C 10,9 °C 71 % 1018,1 hPa 0,0 mm 2,1 km/h (1 Bft) W-NW 291 ° 1 min 0,000 mm 2,6 UV-I 675 W/m² 5,9 °C 3,2 km/h (1 Bft)
19.10.2016 12:19 11,0 °C 11,0 °C 74 % 1018,1 hPa 0,0 mm 4,4 km/h (1 Bft) S 190 ° 1 min 0,000 mm 2,6 UV-I 675 W/m² 6,5 °C 8,0 km/h (2 Bft)
19.10.2016 12:20 11,1 °C 11,1 °C 71 % 1018,1 hPa 0,0 mm 3,8 km/h (1 Bft) W 275 ° 1 min 0,000 mm 2,2 UV-I 675 W/m² 6,0 °C 12,9 km/h (3 Bft)
19.10.2016 12:21 11,1 °C 11,1 °C 71 % 1018,1 hPa 0,0 mm 10,5 km/h (2 Bft) W 276 ° 1 min 0,000 mm 3,3 UV-I 679 W/m² 6,0 °C 16,1 km/h (3 Bft)
19.10.2016 12:22 11,1 °C 11,2 °C 70 % 1018,0 hPa 0,0 mm 7,9 km/h (2 Bft) S-SW 198 ° 1 min 0,000 mm 2,1 UV-I 766 W/m² 5,8 °C 17,7 km/h (3 Bft)
19.10.2016 12:23 11,1 °C 11,2 °C 69 % 1018,0 hPa 0,0 mm 6,9 km/h (2 Bft) W-NW 285 ° 0 min 0,000 mm 2,0 UV-I 251 W/m² 5,6 °C 9,7 km/h (2 Bft)
19.10.2016 12:24 11,1 °C 11,1 °C 71 % 1018,0 hPa 0,0 mm 8,5 km/h (2 Bft) W 270 ° 0 min 0,000 mm 2,6 UV-I 251 W/m² 6,0 °C 14,5 km/h (3 Bft)
19.10.2016 12:25 11,1 °C 11,1 °C 73 % 1018,0 hPa 0,0 mm 6,4 km/h (2 Bft) W 261 ° 0 min 0,000 mm 3,1 UV-I 251 W/m² 6,4 °C 12,9 km/h (3 Bft)
19.10.2016 12:26 11,2 °C 11,2 °C 71 % 1018,0 hPa 0,0 mm 6,9 km/h (2 Bft) W 260 ° 1 min 0,000 mm 2,5 UV-I 705 W/m² 6,1 °C 11,3 km/h (2 Bft)
19.10.2016 12:27 11,2 °C 11,2 °C 74 % 1018,0 hPa 0,0 mm 14,7 km/h (3 Bft) W-SW 240 ° 1 min 0,000 mm 2,9 UV-I 744 W/m² 6,7 °C 24,1 km/h (4 Bft)
19.10.2016 12:28 11,2 °C 11,2 °C 71 % 1018,0 hPa 0,0 mm 15,4 km/h (3 Bft) W-SW 240 ° 1 min 0,000 mm 1,6 UV-I 338 W/m² 6,1 °C 20,9 km/h (4 Bft)
19.10.2016 12:29 11,2 °C 11,2 °C 70 % 1017,9 hPa 0,0 mm 9,1 km/h (2 Bft) NW 318 ° 0 min 0,000 mm 1,6 UV-I 265 W/m² 5,9 °C 16,1 km/h (3 Bft)
19.10.2016 12:30 11,2 °C 11,2 °C 72 % 1017,9 hPa 0,0 mm 10,4 km/h (2 Bft) W 271 ° 0 min 0,000 mm 1,8 UV-I 265 W/m² 6,3 °C 16,1 km/h (3 Bft)
19.10.2016 12:31 11,2 °C 11,2 °C 73 % 1018,0 hPa 0,0 mm 11,8 km/h (2 Bft) SW 216 ° 0 min 0,000 mm 1,4 UV-I 265 W/m² 6,5 °C 17,7 km/h (3 Bft)
19.10.2016 12:32 11,1 °C 11,2 °C 72 % 1017,9 hPa 0,0 mm 13,3 km/h (3 Bft) NW 305 ° 0 min 0,000 mm 1,8 UV-I 265 W/m² 6,2 °C 24,1 km/h (4 Bft)
19.10.2016 12:33 11,0 °C 11,1 °C 68 % 1018,0 hPa 0,0 mm 12,1 km/h (2 Bft) W-NW 296 ° 0 min 0,000 mm 1,7 UV-I 265 W/m² 5,3 °C 19,3 km/h (3 Bft)
19.10.2016 12:34 10,9 °C 11,0 °C 69 % 1018,0 hPa 0,0 mm 13,1 km/h (3 Bft) W 259 ° 0 min 0,000 mm 2,1 UV-I 265 W/m² 5,4 °C 19,3 km/h (3 Bft)
19.10.2016 12:35 10,8 °C 10,9 °C 69 % 1018,0 hPa 0,0 mm 13,5 km/h (3 Bft) W-SW 253 ° 0 min 0,000 mm 1,4 UV-I 178 W/m² 5,3 °C 22,5 km/h (4 Bft)
19.10.2016 12:36 10,8 °C 10,8 °C 70 % 1017,9 hPa 0,0 mm 11,9 km/h (2 Bft) W-NW 300 ° 0 min 0,000 mm 1,5 UV-I 200 W/m² 5,6 °C 17,7 km/h (3 Bft)
19.10.2016 12:37 10,7 °C 10,8 °C 70 % 1017,9 hPa 0,0 mm 10,0 km/h (2 Bft) W-SW 244 ° 0 min 0,000 mm 1,4 UV-I 206 W/m² 5,5 °C 16,1 km/h (3 Bft)
19.10.2016 12:38 10,6 °C 10,7 °C 71 % 1018,0 hPa 0,0 mm 9,1 km/h (2 Bft) W-NW 290 ° 0 min 0,000 mm 1,4 UV-I 192 W/m² 5,6 °C 16,1 km/h (3 Bft)
19.10.2016 12:39 10,6 °C 10,6 °C 71 % 1018,0 hPa 0,0 mm 5,1 km/h (1 Bft) W-SW 239 ° 0 min 0,000 mm 1,5 UV-I 181 W/m² 5,6 °C 6,4 km/h (2 Bft)
19.10.2016 12:40 10,6 °C 10,6 °C 71 % 1018,0 hPa 0,0 mm 13,7 km/h (3 Bft) W 260 ° 0 min 0,000 mm 1,6 UV-I 183 W/m² 5,6 °C 19,3 km/h (3 Bft)
19.10.2016 12:41 10,5 °C 10,6 °C 71 % 1017,8 hPa 0,0 mm 13,7 km/h (3 Bft) W-SW 248 ° 0 min 0,000 mm 1,7 UV-I 179 W/m² 5,5 °C 17,7 km/h (3 Bft)
19.10.2016 12:42 10,4 °C 10,5 °C 71 % 1017,8 hPa 0,0 mm 12,6 km/h (3 Bft) W-NW 297 ° 0 min 0,000 mm 1,8 UV-I 188 W/m² 5,4 °C 17,7 km/h (3 Bft)
19.10.2016 12:43 10,3 °C 10,4 °C 71 % 1017,8 hPa 0,0 mm 6,8 km/h (2 Bft) NW 320 ° 0 min 0,000 mm 1,7 UV-I 155 W/m² 5,3 °C 11,3 km/h (2 Bft)
19.10.2016 12:44 10,3 °C 10,3 °C 73 % 1017,8 hPa 0,0 mm 7,7 km/h (2 Bft) W-NW 301 ° 0 min 0,000 mm 1,7 UV-I 153 W/m² 5,7 °C 12,9 km/h (3 Bft)
19.10.2016 12:45 10,3 °C 10,3 °C 72 % 1017,8 hPa 0,0 mm 7,7 km/h (2 Bft) W-NW 296 ° 0 min 0,000 mm 1,7 UV-I 153 W/m² 5,5 °C 11,3 km/h (2 Bft)
19.10.2016 12:46 10,2 °C 10,3 °C 73 % 1017,8 hPa 0,0 mm 3,8 km/h (1 Bft) W-SW 257 ° 0 min 0,000 mm 1,8 UV-I 183 W/m² 5,6 °C 4,8 km/h (1 Bft)
19.10.2016 12:47 10,2 °C 10,2 °C 76 % 1017,8 hPa 0,0 mm 8,7 km/h (2 Bft) W-SW 252 ° 0 min 0,000 mm 2,0 UV-I 237 W/m² 6,2 °C 14,5 km/h (3 Bft)
19.10.2016 12:48 10,2 °C 10,2 °C 74 % 1017,8 hPa 0,0 mm 11,8 km/h (2 Bft) W-NW 286 ° 0 min 0,000 mm 1,8 UV-I 174 W/m² 5,8 °C 17,7 km/h (3 Bft)
19.10.2016 12:49 10,2 °C 10,2 °C 74 % 1017,8 hPa 0,0 mm 9,7 km/h (2 Bft) W-NW 287 ° 0 min 0,000 mm 1,8 UV-I 169 W/m² 5,8 °C 14,5 km/h (3 Bft)
19.10.2016 12:50 10,2 °C 10,2 °C 73 % 1017,8 hPa 0,0 mm 18,0 km/h (3 Bft) W 265 ° 0 min 0,000 mm 1,9 UV-I 186 W/m² 5,6 °C 25,7 km/h (4 Bft)
19.10.2016 12:51 10,1 °C 10,2 °C 73 % 1017,8 hPa 0,0 mm 12,2 km/h (2 Bft) W 259 ° 0 min 0,000 mm 1,8 UV-I 195 W/m² 5,5 °C 19,3 km/h (3 Bft)
19.10.2016 12:52 10,1 °C 10,1 °C 74 % 1017,8 hPa 0,0 mm 10,9 km/h (2 Bft) W-NW 286 ° 0 min 0,000 mm 1,8 UV-I 193 W/m² 5,7 °C 16,1 km/h (3 Bft)
19.10.2016 12:53 10,1 °C 10,1 °C 74 % 1017,8 hPa 0,0 mm 11,1 km/h (2 Bft) W 263 ° 0 min 0,000 mm 1,8 UV-I 214 W/m² 5,7 °C 17,7 km/h (3 Bft)
19.10.2016 12:54 10,0 °C 10,1 °C 73 % 1017,7 hPa 0,0 mm 16,3 km/h (3 Bft) W-NW 288 ° 0 min 0,000 mm 1,9 UV-I 239 W/m² 5,4 °C 24,1 km/h (4 Bft)
19.10.2016 12:55 10,0 °C 10,1 °C 74 % 1017,7 hPa 0,0 mm 12,5 km/h (3 Bft) NW 309 ° 0 min 0,000 mm 1,7 UV-I 218 W/m² 5,6 °C 22,5 km/h (4 Bft)
19.10.2016 12:56 10,0 °C 10,0 °C 73 % 1017,8 hPa 0,0 mm 13,2 km/h (3 Bft) W-NW 286 ° 0 min 0,000 mm 1,5 UV-I 171 W/m² 5,4 °C 25,7 km/h (4 Bft)
19.10.2016 12:57 10,0 °C 10,0 °C 74 % 1017,8 hPa 0,0 mm 14,3 km/h (3 Bft) W-NW 287 ° 0 min 0,000 mm 1,4 UV-I 185 W/m² 5,6 °C 22,5 km/h (4 Bft)
19.10.2016 12:58 10,0 °C 10,0 °C 74 % 1017,8 hPa 0,0 mm 9,9 km/h (2 Bft) W-NW 301 ° 0 min 0,000 mm 1,4 UV-I 181 W/m² 5,6 °C 19,3 km/h (3 Bft)
19.10.2016 12:59 10,0 °C 10,0 °C 75 % 1017,7 hPa 0,0 mm 10,4 km/h (2 Bft) W 280 ° 0 min 0,000 mm 1,4 UV-I 183 W/m² 5,8 °C 16,1 km/h (3 Bft)
19.10.2016 13:00 9,9 °C 10,0 °C 74 % 1017,8 hPa 0,0 mm 12,2 km/h (2 Bft) W-SW 257 ° 0 min 0,000 mm 1,4 UV-I 195 W/m² 5,5 °C 17,7 km/h (3 Bft)
19.10.2016 13:01 9,9 °C 9,9 °C 75 % 1017,8 hPa 0,0 mm 10,4 km/h (2 Bft) W-NW 291 ° 0 min 0,177 mm 2,0 UV-I 213 W/m² 5,7 °C 20,9 km/h (4 Bft)
19.10.2016 13:02 9,9 °C 9,9 °C 76 % 1017,8 hPa 0,0 mm 10,1 km/h (2 Bft) W-SW 242 ° 0 min 0,000 mm 1,6 UV-I 213 W/m² 5,9 °C 17,7 km/h (3 Bft)
19.10.2016 13:03 9,9 °C 10,0 °C 75 % 1017,7 hPa 0,0 mm 9,8 km/h (2 Bft) W 269 ° 1 min 0,000 mm 2,0 UV-I 346 W/m² 5,7 °C 19,3 km/h (3 Bft)
19.10.2016 13:04 9,9 °C 10,0 °C 75 % 1017,7 hPa 0,0 mm 6,8 km/h (2 Bft) W 277 ° 0 min 0,000 mm 1,6 UV-I 287 W/m² 5,7 °C 11,3 km/h (2 Bft)
19.10.2016 13:05 10,0 °C 10,0 °C 75 % 1017,7 hPa 0,0 mm 10,1 km/h (2 Bft) NW 321 ° 0 min 0,000 mm 2,5 UV-I 287 W/m² 5,8 °C 14,5 km/h (3 Bft)
19.10.2016 13:06 10,1 °C 10,1 °C 75 % 1017,7 hPa 0,0 mm 9,2 km/h (2 Bft) W-NW 289 ° 0 min 0,000 mm 2,3 UV-I 287 W/m² 5,9 °C 16,1 km/h (3 Bft)
19.10.2016 13:07 10,1 °C 10,1 °C 74 % 1017,7 hPa 0,0 mm 7,6 km/h (2 Bft) W-NW 301 ° 0 min 0,000 mm 2,2 UV-I 253 W/m² 5,7 °C 17,7 km/h (3 Bft)
19.10.2016 13:08 10,1 °C 10,1 °C 74 % 1017,6 hPa 0,0 mm 11,9 km/h (2 Bft) W-NW 284 ° 0 min 0,000 mm 2,4 UV-I 253 W/m² 5,7 °C 19,3 km/h (3 Bft)
19.10.2016 13:09 10,2 °C 10,2 °C 75 % 1017,7 hPa 0,0 mm 10,4 km/h (2 Bft) W-NW 286 ° 1 min 0,000 mm 2,3 UV-I 360 W/m² 6,0 °C 16,1 km/h (3 Bft)
19.10.2016 13:10 10,3 °C 10,3 °C 76 % 1017,7 hPa 0,0 mm 9,9 km/h (2 Bft) W-NW 290 ° 1 min 0,000 mm 2,1 UV-I 345 W/m² 6,3 °C 12,9 km/h (3 Bft)
19.10.2016 13:11 10,3 °C 10,3 °C 75 % 1017,6 hPa 0,0 mm 8,3 km/h (2 Bft) NW 307 ° 1 min 0,000 mm 2,2 UV-I 345 W/m² 6,1 °C 11,3 km/h (2 Bft)
19.10.2016 13:12 10,4 °C 10,4 °C 75 % 1017,6 hPa 0,0 mm 7,4 km/h (2 Bft) NW 310 ° 1 min 0,000 mm 2,5 UV-I 504 W/m² 6,2 °C 12,9 km/h (3 Bft)
19.10.2016 13:13 10,5 °C 10,5 °C 74 % 1017,6 hPa 0,0 mm 8,8 km/h (2 Bft) N-NW 333 ° 1 min 0,000 mm 2,2 UV-I 512 W/m² 6,1 °C 12,9 km/h (3 Bft)
19.10.2016 13:14 10,6 °C 10,6 °C 75 % 1017,5 hPa 0,0 mm 7,2 km/h (2 Bft) W 276 ° 1 min 0,000 mm 1,6 UV-I 512 W/m² 6,4 °C 11,3 km/h (2 Bft)
19.10.2016 13:15 10,7 °C 10,7 °C 76 % 1017,6 hPa 0,0 mm 12,5 km/h (3 Bft) W-SW 255 ° 0 min 0,000 mm 1,4 UV-I 171 W/m² 6,6 °C 19,3 km/h (3 Bft)
19.10.2016 13:16 10,7 °C 10,7 °C 73 % 1017,6 hPa 0,0 mm 10,3 km/h (2 Bft) W-NW 300 ° 0 min 0,000 mm 1,0 UV-I 141 W/m² 6,1 °C 17,7 km/h (3 Bft)
19.10.2016 13:17 10,6 °C 10,7 °C 73 % 1017,6 hPa 0,0 mm 10,4 km/h (2 Bft) W 279 ° 0 min 0,000 mm 0,9 UV-I 127 W/m² 6,0 °C 14,5 km/h (3 Bft)
19.10.2016 13:18 10,5 °C 10,6 °C 74 % 1017,6 hPa 0,0 mm 9,1 km/h (2 Bft) W 268 ° 0 min 0,000 mm 0,8 UV-I 114 W/m² 6,1 °C 16,1 km/h (3 Bft)
19.10.2016 13:19 10,4 °C 10,5 °C 74 % 1017,6 hPa 0,0 mm 15,2 km/h (3 Bft) W 279 ° 0 min 0,000 mm 0,8 UV-I 116 W/m² 6,0 °C 19,3 km/h (3 Bft)
19.10.2016 13:20 10,3 °C 10,4 °C 74 % 1017,6 hPa 0,0 mm 13,0 km/h (3 Bft) W 281 ° 0 min 0,000 mm 0,9 UV-I 128 W/m² 5,9 °C 20,9 km/h (4 Bft)
19.10.2016 13:21 10,3 °C 10,3 °C 73 % 1017,6 hPa 0,0 mm 13,5 km/h (3 Bft) NW 309 ° 0 min 0,000 mm 1,2 UV-I 167 W/m² 5,7 °C 20,9 km/h (4 Bft)
19.10.2016 13:22 10,2 °C 10,3 °C 74 % 1017,6 hPa 0,0 mm 9,5 km/h (2 Bft) N-NW 331 ° 0 min 0,000 mm 1,3 UV-I 185 W/m² 5,8 °C 16,1 km/h (3 Bft)
19.10.2016 13:23 10,2 °C 10,2 °C 74 % 1017,5 hPa 0,0 mm 8,0 km/h (2 Bft) W-NW 290 ° 0 min 0,000 mm 1,4 UV-I 195 W/m² 5,8 °C 12,9 km/h (3 Bft)
19.10.2016 13:24 10,2 °C 10,2 °C 76 % 1017,6 hPa 0,0 mm 12,1 km/h (2 Bft) W 270 ° 0 min 0,000 mm 1,5 UV-I 206 W/m² 6,2 °C 19,3 km/h (3 Bft)
19.10.2016 13:25 10,2 °C 10,2 °C 74 % 1017,6 hPa 0,0 mm 12,9 km/h (3 Bft) W 279 ° 0 min 0,000 mm 1,6 UV-I 218 W/m² 5,8 °C 17,7 km/h (3 Bft)
19.10.2016 13:26 10,2 °C 10,2 °C 74 % 1017,6 hPa 0,0 mm 9,6 km/h (2 Bft) W-NW 300 ° 0 min 0,000 mm 1,6 UV-I 206 W/m² 5,8 °C 14,5 km/h (3 Bft)
19.10.2016 13:27 10,2 °C 10,2 °C 74 % 1017,5 hPa 0,0 mm 15,7 km/h (3 Bft) W-NW 286 ° 0 min 0,000 mm 1,6 UV-I 206 W/m² 5,8 °C 19,3 km/h (3 Bft)
19.10.2016 13:28 10,2 °C 10,2 °C 76 % 1017,5 hPa 0,0 mm 8,9 km/h (2 Bft) W-NW 287 ° 0 min 0,000 mm 1,8 UV-I 206 W/m² 6,2 °C 14,5 km/h (3 Bft)
19.10.2016 13:29 10,3 °C 10,3 °C 75 % 1017,4 hPa 0,0 mm 14,9 km/h (3 Bft) W-SW 257 ° 0 min 0,000 mm 1,7 UV-I 206 W/m² 6,1 °C 22,5 km/h (4 Bft)
19.10.2016 13:30 10,3 °C 10,3 °C 75 % 1017,5 hPa 0,0 mm 11,5 km/h (2 Bft) W-SW 252 ° 0 min 0,000 mm 2,0 UV-I 258 W/m² 6,1 °C 20,9 km/h (4 Bft)
19.10.2016 13:31 10,3 °C 10,3 °C 73 % 1017,5 hPa 0,0 mm 9,7 km/h (2 Bft) W-NW 300 ° 0 min 0,000 mm 2,4 UV-I 258 W/m² 5,7 °C 16,1 km/h (3 Bft)
19.10.2016 13:32 10,3 °C 10,3 °C 74 % 1017,5 hPa 0,0 mm 12,3 km/h (3 Bft) W-NW 286 ° 0 min 0,000 mm 1,7 UV-I 206 W/m² 5,9 °C 19,3 km/h (3 Bft)
19.10.2016 13:33 10,3 °C 10,3 °C 73 % 1017,5 hPa 0,0 mm 8,6 km/h (2 Bft) W-SW 239 ° 0 min 0,000 mm 1,7 UV-I 185 W/m² 5,7 °C 14,5 km/h (3 Bft)
19.10.2016 13:34 10,3 °C 10,3 °C 73 % 1017,5 hPa 0,0 mm 8,0 km/h (2 Bft) W-NW 292 ° 0 min 0,000 mm 1,6 UV-I 188 W/m² 5,7 °C 14,5 km/h (3 Bft)
19.10.2016 13:35 10,2 °C 10,3 °C 73 % 1017,5 hPa 0,0 mm 12,9 km/h (3 Bft) W 281 ° 0 min 0,000 mm 1,7 UV-I 200 W/m² 5,6 °C 17,7 km/h (3 Bft)
19.10.2016 13:36 10,2 °C 10,3 °C 74 % 1017,4 hPa 0,0 mm 16,8 km/h (3 Bft) W-NW 286 ° 0 min 0,000 mm 1,7 UV-I 202 W/m² 5,8 °C 20,9 km/h (4 Bft)
19.10.2016 13:37 10,2 °C 10,3 °C 74 % 1017,4 hPa 0,0 mm 9,0 km/h (2 Bft) W 279 ° 0 min 0,000 mm 1,9 UV-I 202 W/m² 5,8 °C 19,3 km/h (3 Bft)
19.10.2016 13:38 10,2 °C 10,2 °C 75 % 1017,4 hPa 0,0 mm 15,1 km/h (3 Bft) W 278 ° 0 min 0,000 mm 2,0 UV-I 202 W/m² 6,0 °C 24,1 km/h (4 Bft)
19.10.2016 13:39 10,2 °C 10,2 °C 74 % 1017,4 hPa 0,0 mm 19,7 km/h (3 Bft) W-NW 287 ° 0 min 0,000 mm 3,0 UV-I 202 W/m² 5,8 °C 29,0 km/h (5 Bft)
19.10.2016 13:40 10,3 °C 10,3 °C 74 % 1017,4 hPa 0,0 mm 17,2 km/h (3 Bft) W 270 ° 1 min 0,000 mm 2,6 UV-I 613 W/m² 5,9 °C 27,4 km/h (4 Bft)
19.10.2016 13:41 10,3 °C 10,3 °C 73 % 1017,4 hPa 0,0 mm 8,2 km/h (2 Bft) W 280 ° 1 min 0,000 mm 3,1 UV-I 686 W/m² 5,7 °C 19,3 km/h (3 Bft)
19.10.2016 13:42 10,4 °C 10,4 °C 74 % 1017,3 hPa 0,0 mm 14,1 km/h (3 Bft) W 280 ° 1 min 0,000 mm 2,4 UV-I 645 W/m² 6,0 °C 24,1 km/h (4 Bft)
19.10.2016 13:43 10,6 °C 10,6 °C 74 % 1017,3 hPa 0,0 mm 11,3 km/h (2 Bft) W-NW 301 ° 1 min 0,000 mm 2,8 UV-I 645 W/m² 6,2 °C 14,5 km/h (3 Bft)
19.10.2016 13:44 10,6 °C 10,6 °C 73 % 1017,3 hPa 0,0 mm 13,8 km/h (3 Bft) W 281 ° 0 min 0,000 mm 2,0 UV-I 243 W/m² 6,0 °C 17,7 km/h (3 Bft)
19.10.2016 13:45 10,6 °C 10,6 °C 74 % 1017,3 hPa 0,0 mm 9,3 km/h (2 Bft) W 268 ° 0 min 0,000 mm 3,1 UV-I 243 W/m² 6,2 °C 14,5 km/h (3 Bft)
19.10.2016 13:46 10,7 °C 10,7 °C 75 % 1017,2 hPa 0,0 mm 12,3 km/h (3 Bft) W-NW 292 ° 1 min 0,000 mm 3,1 UV-I 515 W/m² 6,5 °C 19,3 km/h (3 Bft)
19.10.2016 13:47 10,8 °C 10,8 °C 74 % 1017,2 hPa 0,0 mm 9,0 km/h (2 Bft) W-NW 294 ° 1 min 0,000 mm 2,0 UV-I 515 W/m² 6,4 °C 11,3 km/h (2 Bft)
19.10.2016 13:48 10,8 °C 10,8 °C 74 % 1017,2 hPa 0,0 mm 15,3 km/h (3 Bft) W-NW 285 ° 0 min 0,000 mm 1,9 UV-I 213 W/m² 6,4 °C 22,5 km/h (4 Bft)
19.10.2016 13:49 10,8 °C 10,8 °C 74 % 1017,1 hPa 0,0 mm 16,6 km/h (3 Bft) W 277 ° 0 min 0,000 mm 1,9 UV-I 269 W/m² 6,4 °C 19,3 km/h (3 Bft)
19.10.2016 13:50 10,7 °C 10,8 °C 72 % 1017,1 hPa 0,0 mm 13,1 km/h (3 Bft) W-NW 286 ° 0 min 0,000 mm 3,1 UV-I 269 W/m² 5,9 °C 17,7 km/h (3 Bft)
19.10.2016 13:51 10,7 °C 10,7 °C 73 % 1017,1 hPa 0,0 mm 8,6 km/h (2 Bft) W 270 ° 0 min 0,000 mm 2,5 UV-I 269 W/m² 6,1 °C 11,3 km/h (2 Bft)
19.10.2016 13:52 10,6 °C 10,7 °C 74 % 1017,1 hPa 0,0 mm 11,0 km/h (2 Bft) NW 325 ° 1 min 0,000 mm 3,1 UV-I 352 W/m² 6,2 °C 17,7 km/h (3 Bft)
19.10.2016 13:53 10,7 °C 10,7 °C 74 % 1017,0 hPa 0,0 mm 7,2 km/h (2 Bft) W 275 ° 1 min 0,000 mm 3,1 UV-I 352 W/m² 6,3 °C 11,3 km/h (2 Bft)
19.10.2016 13:54 10,7 °C 10,7 °C 74 % 1017,1 hPa 0,0 mm 14,8 km/h (3 Bft) W-NW 288 ° 1 min 0,000 mm 3,1 UV-I 635 W/m² 6,3 °C 20,9 km/h (4 Bft)
19.10.2016 13:55 10,8 °C 10,8 °C 75 % 1017,0 hPa 0,0 mm 13,1 km/h (3 Bft) W-NW 290 ° 1 min 0,000 mm 3,1 UV-I 582 W/m² 6,5 °C 22,5 km/h (4 Bft)
19.10.2016 13:56 10,8 °C 10,8 °C 73 % 1017,0 hPa 0,0 mm 14,1 km/h (3 Bft) W 266 ° 1 min 0,000 mm 3,0 UV-I 582 W/m² 6,2 °C 20,9 km/h (4 Bft)
19.10.2016 13:57 10,8 °C 10,8 °C 72 % 1017,0 hPa 0,0 mm 15,4 km/h (3 Bft) W 279 ° 1 min 0,000 mm 2,6 UV-I 582 W/m² 6,0 °C 24,1 km/h (4 Bft)
19.10.2016 13:58 10,8 °C 10,8 °C 73 % 1017,1 hPa 0,0 mm 17,2 km/h (3 Bft) W 277 ° 1 min 0,000 mm 1,7 UV-I 582 W/m² 6,2 °C 22,5 km/h (4 Bft)
19.10.2016 13:59 10,7 °C 10,8 °C 71 % 1017,0 hPa 0,0 mm 13,7 km/h (3 Bft) NW 309 ° 0 min 0,000 mm 1,7 UV-I 111 W/m² 5,7 °C 25,7 km/h (4 Bft)
19.10.2016 14:00 10,6 °C 10,7 °C 71 % 1017,0 hPa 0,0 mm 11,3 km/h (2 Bft) W 272 ° 0 min 0,000 mm 1,8 UV-I 127 W/m² 5,6 °C 16,1 km/h (3 Bft)
19.10.2016 14:01 10,4 °C 10,6 °C 72 % 1017,0 hPa 0,0 mm 11,4 km/h (2 Bft) W 278 ° 0 min 0,178 mm 1,8 UV-I 142 W/m² 5,6 °C 16,1 km/h (3 Bft)
19.10.2016 14:02 10,4 °C 10,4 °C 74 % 1017,0 hPa 0,0 mm 10,9 km/h (2 Bft) W-NW 301 ° 1 min 0,000 mm 2,8 UV-I 564 W/m² 6,0 °C 16,1 km/h (3 Bft)
19.10.2016 14:03 10,3 °C 10,4 °C 73 % 1017,0 hPa 0,0 mm 11,9 km/h (2 Bft) NW 308 ° 1 min 0,000 mm 2,8 UV-I 563 W/m² 5,7 °C 17,7 km/h (3 Bft)
19.10.2016 14:04 10,4 °C 10,4 °C 73 % 1017,0 hPa 0,0 mm 13,1 km/h (3 Bft) W 277 ° 1 min 0,000 mm 2,8 UV-I 566 W/m² 5,8 °C 20,9 km/h (4 Bft)
19.10.2016 14:05 10,4 °C 10,4 °C 73 % 1017,0 hPa 0,0 mm 16,4 km/h (3 Bft) W-SW 243 ° 1 min 0,000 mm 2,8 UV-I 566 W/m² 5,8 °C 20,9 km/h (4 Bft)
19.10.2016 14:06 10,4 °C 10,4 °C 73 % 1016,9 hPa 0,0 mm 17,1 km/h (3 Bft) W 259 ° 1 min 0,000 mm 2,8 UV-I 566 W/m² 5,8 °C 24,1 km/h (4 Bft)
19.10.2016 14:07 10,4 °C 10,4 °C 73 % 1017,0 hPa 0,0 mm 17,6 km/h (3 Bft) W-NW 286 ° 1 min 0,000 mm 2,8 UV-I 526 W/m² 5,8 °C 30,6 km/h (5 Bft)
19.10.2016 14:08 10,5 °C 10,5 °C 74 % 1016,9 hPa 0,0 mm 13,4 km/h (3 Bft) W-NW 295 ° 1 min 0,000 mm 2,7 UV-I 566 W/m² 6,1 °C 19,3 km/h (3 Bft)
19.10.2016 14:09 10,6 °C 10,6 °C 74 % 1016,9 hPa 0,0 mm 7,4 km/h (2 Bft) W-NW 290 ° 1 min 0,000 mm 2,7 UV-I 566 W/m² 6,2 °C 12,9 km/h (3 Bft)
19.10.2016 14:10 10,7 °C 10,7 °C 74 % 1017,0 hPa 0,0 mm 14,9 km/h (3 Bft) W-SW 252 ° 0 min 0,000 mm 2,4 UV-I 176 W/m² 6,3 °C 20,9 km/h (4 Bft)
19.10.2016 14:11 10,8 °C 10,8 °C 75 % 1016,9 hPa 0,0 mm 7,6 km/h (2 Bft) W 271 ° 0 min 0,000 mm 2,7 UV-I 176 W/m² 6,5 °C 12,9 km/h (3 Bft)
19.10.2016 14:12 10,8 °C 10,8 °C 73 % 1016,9 hPa 0,0 mm 4,4 km/h (1 Bft) W-SW 258 ° 1 min 0,000 mm 2,5 UV-I 464 W/m² 6,2 °C 11,3 km/h (2 Bft)
19.10.2016 14:13 10,9 °C 10,9 °C 73 % 1016,9 hPa 0,0 mm 12,3 km/h (3 Bft) W-NW 302 ° 1 min 0,000 mm 2,7 UV-I 622 W/m² 6,3 °C 20,9 km/h (4 Bft)
19.10.2016 14:14 10,9 °C 10,9 °C 72 % 1016,9 hPa 0,0 mm 15,2 km/h (3 Bft) W 263 ° 1 min 0,000 mm 2,8 UV-I 610 W/m² 6,1 °C 20,9 km/h (4 Bft)
19.10.2016 14:15 10,9 °C 10,9 °C 73 % 1016,9 hPa 0,0 mm 15,5 km/h (3 Bft) S-SW 200 ° 1 min 0,000 mm 2,8 UV-I 610 W/m² 6,3 °C 20,9 km/h (4 Bft)
19.10.2016 14:16 10,9 °C 11,0 °C 73 % 1016,9 hPa 0,0 mm 11,8 km/h (2 Bft) W 277 ° 1 min 0,000 mm 1,9 UV-I 610 W/m² 6,3 °C 14,5 km/h (3 Bft)
19.10.2016 14:17 10,9 °C 10,9 °C 72 % 1016,8 hPa 0,0 mm 15,4 km/h (3 Bft) SW 228 ° 1 min 0,000 mm 1,9 UV-I 610 W/m² 6,1 °C 20,9 km/h (4 Bft)
19.10.2016 14:18 10,9 °C 10,9 °C 72 % 1016,9 hPa 0,0 mm 13,5 km/h (3 Bft) S 180 ° 1 min 0,000 mm 1,9 UV-I 294 W/m² 6,1 °C 19,3 km/h (3 Bft)
19.10.2016 14:19 10,8 °C 10,9 °C 71 % 1016,9 hPa 0,0 mm 8,9 km/h (2 Bft) SW 220 ° 1 min 0,000 mm 1,6 UV-I 294 W/m² 5,8 °C 19,3 km/h (3 Bft)
19.10.2016 14:20 10,8 °C 10,8 °C 71 % 1016,9 hPa 0,0 mm 16,1 km/h (3 Bft) W-NW 288 ° 1 min 0,000 mm 1,6 UV-I 294 W/m² 5,8 °C 22,5 km/h (4 Bft)
19.10.2016 14:21 10,7 °C 10,8 °C 71 % 1016,9 hPa 0,0 mm 16,4 km/h (3 Bft) W-NW 290 ° 1 min 0,000 mm 2,0 UV-I 294 W/m² 5,7 °C 22,5 km/h (4 Bft)
19.10.2016 14:22 10,6 °C 10,7 °C 71 % 1016,8 hPa 0,0 mm 12,2 km/h (2 Bft) SW 232 ° 1 min 0,000 mm 1,5 UV-I 294 W/m² 5,6 °C 19,3 km/h (3 Bft)
19.10.2016 14:23 10,6 °C 10,7 °C 72 % 1016,9 hPa 0,0 mm 12,7 km/h (3 Bft) S 191 ° 0 min 0,000 mm 1,7 UV-I 269 W/m² 5,8 °C 17,7 km/h (3 Bft)
19.10.2016 14:24 10,6 °C 10,6 °C 72 % 1016,8 hPa 0,0 mm 10,5 km/h (2 Bft) W-SW 246 ° 1 min 0,000 mm 2,1 UV-I 285 W/m² 5,8 °C 16,1 km/h (3 Bft)
19.10.2016 14:25 10,6 °C 10,6 °C 73 % 1016,8 hPa 0,0 mm 11,7 km/h (2 Bft) W 261 ° 1 min 0,000 mm 2,1 UV-I 413 W/m² 6,0 °C 14,5 km/h (3 Bft)
19.10.2016 14:26 10,6 °C 10,7 °C 73 % 1016,7 hPa 0,0 mm 7,9 km/h (2 Bft) W-SW 247 ° 1 min 0,000 mm 2,1 UV-I 385 W/m² 6,0 °C 12,9 km/h (3 Bft)
19.10.2016 14:27 10,7 °C 10,7 °C 75 % 1016,8 hPa 0,0 mm 12,2 km/h (2 Bft) W-SW 253 ° 1 min 0,000 mm 2,2 UV-I 385 W/m² 6,5 °C 20,9 km/h (4 Bft)
19.10.2016 14:28 10,7 °C 10,7 °C 72 % 1016,7 hPa 0,0 mm 17,4 km/h (3 Bft) W-SW 250 ° 1 min 0,000 mm 1,8 UV-I 385 W/m² 5,9 °C 20,9 km/h (4 Bft)
19.10.2016 14:29 10,7 °C 10,7 °C 71 % 1016,7 hPa 0,0 mm 10,1 km/h (2 Bft) W-NW 290 ° 0 min 0,000 mm 1,7 UV-I 195 W/m² 5,7 °C 17,7 km/h (3 Bft)
19.10.2016 14:30 10,7 °C 10,7 °C 72 % 1016,7 hPa 0,0 mm 14,5 km/h (3 Bft) W-NW 292 ° 0 min 0,000 mm 1,8 UV-I 239 W/m² 5,9 °C 22,5 km/h (4 Bft)
19.10.2016 14:31 10,7 °C 10,7 °C 72 % 1016,7 hPa 0,0 mm 12,9 km/h (3 Bft) W-SW 257 ° 0 min 0,000 mm 2,2 UV-I 239 W/m² 5,9 °C 19,3 km/h (3 Bft)
19.10.2016 14:32 10,7 °C 10,7 °C 72 % 1016,7 hPa 0,0 mm 9,5 km/h (2 Bft) W-NW 296 ° 1 min 0,000 mm 1,8 UV-I 325 W/m² 5,9 °C 14,5 km/h (3 Bft)
19.10.2016 14:33 10,7 °C 10,7 °C 72 % 1016,7 hPa 0,0 mm 10,9 km/h (2 Bft) W 264 ° 1 min 0,000 mm 1,7 UV-I 325 W/m² 5,9 °C 16,1 km/h (3 Bft)
19.10.2016 14:34 10,7 °C 10,7 °C 72 % 1016,7 hPa 0,0 mm 8,3 km/h (2 Bft) W 267 ° 0 min 0,000 mm 2,1 UV-I 251 W/m² 5,9 °C 16,1 km/h (3 Bft)
19.10.2016 14:35 10,7 °C 10,7 °C 71 % 1016,7 hPa 0,0 mm 13,3 km/h (3 Bft) W-NW 284 ° 0 min 0,000 mm 1,8 UV-I 237 W/m² 5,7 °C 22,5 km/h (4 Bft)
19.10.2016 14:36 10,7 °C 10,7 °C 72 % 1016,7 hPa 0,0 mm 6,6 km/h (2 Bft) W-NW 287 ° 0 min 0,000 mm 2,3 UV-I 237 W/m² 5,9 °C 12,9 km/h (3 Bft)
19.10.2016 14:37 10,8 °C 10,8 °C 73 % 1016,7 hPa 0,0 mm 12,4 km/h (3 Bft) W-NW 302 ° 0 min 0,000 mm 2,6 UV-I 237 W/m² 6,2 °C 19,3 km/h (3 Bft)
19.10.2016 14:38 10,8 °C 10,8 °C 70 % 1016,7 hPa 0,0 mm 11,7 km/h (2 Bft) W-SW 247 ° 0 min 0,000 mm 1,8 UV-I 241 W/m² 5,6 °C 17,7 km/h (3 Bft)
19.10.2016 14:39 10,7 °C 10,8 °C 71 % 1016,7 hPa 0,0 mm 9,6 km/h (2 Bft) W 280 ° 0 min 0,000 mm 1,8 UV-I 227 W/m² 5,7 °C 14,5 km/h (3 Bft)
19.10.2016 14:40 10,7 °C 10,7 °C 73 % 1016,6 hPa 0,0 mm 9,1 km/h (2 Bft) W 268 ° 0 min 0,000 mm 1,8 UV-I 251 W/m² 6,1 °C 14,5 km/h (3 Bft)
19.10.2016 14:41 10,7 °C 10,7 °C 71 % 1016,7 hPa 0,0 mm 11,7 km/h (2 Bft) SW 221 ° 0 min 0,000 mm 2,0 UV-I 251 W/m² 5,7 °C 16,1 km/h (3 Bft)
19.10.2016 14:42 10,7 °C 10,7 °C 72 % 1016,7 hPa 0,0 mm 10,2 km/h (2 Bft) W 262 ° 0 min 0,000 mm 1,7 UV-I 232 W/m² 5,9 °C 19,3 km/h (3 Bft)
19.10.2016 14:43 10,7 °C 10,7 °C 72 % 1016,7 hPa 0,0 mm 17,6 km/h (3 Bft) W-NW 303 ° 0 min 0,000 mm 1,5 UV-I 192 W/m² 5,9 °C 24,1 km/h (4 Bft)
19.10.2016 14:44 10,7 °C 10,7 °C 71 % 1016,7 hPa 0,0 mm 7,6 km/h (2 Bft) NW 306 ° 0 min 0,000 mm 1,5 UV-I 185 W/m² 5,7 °C 12,9 km/h (3 Bft)
19.10.2016 14:45 10,6 °C 10,7 °C 71 % 1016,7 hPa 0,0 mm 8,6 km/h (2 Bft) W-NW 291 ° 0 min 0,000 mm 1,5 UV-I 179 W/m² 5,6 °C 12,9 km/h (3 Bft)
19.10.2016 14:46 10,6 °C 10,6 °C 71 % 1016,8 hPa 0,0 mm 17,2 km/h (3 Bft) W 281 ° 0 min 0,000 mm 1,5 UV-I 188 W/m² 5,6 °C 27,4 km/h (4 Bft)
19.10.2016 14:47 10,6 °C 10,6 °C 71 % 1016,7 hPa 0,0 mm 10,3 km/h (2 Bft) NW 310 ° 0 min 0,000 mm 1,5 UV-I 202 W/m² 5,6 °C 25,7 km/h (4 Bft)
19.10.2016 14:48 10,5 °C 10,6 °C 72 % 1016,6 hPa 0,0 mm 9,7 km/h (2 Bft) W-NW 286 ° 0 min 0,000 mm 1,5 UV-I 216 W/m² 5,7 °C 17,7 km/h (3 Bft)
19.10.2016 14:49 10,4 °C 10,5 °C 73 % 1016,7 hPa 0,0 mm 9,1 km/h (2 Bft) W-SW 242 ° 0 min 0,000 mm 1,5 UV-I 214 W/m² 5,8 °C 14,5 km/h (3 Bft)
19.10.2016 14:50 10,4 °C 10,4 °C 72 % 1016,7 hPa 0,0 mm 11,1 km/h (2 Bft) NW 318 ° 0 min 0,000 mm 1,5 UV-I 199 W/m² 5,6 °C 20,9 km/h (4 Bft)
19.10.2016 14:51 10,4 °C 10,4 °C 73 % 1016,7 hPa 0,0 mm 8,3 km/h (2 Bft) W 259 ° 0 min 0,000 mm 1,4 UV-I 190 W/m² 5,8 °C 14,5 km/h (3 Bft)
19.10.2016 14:52 10,4 °C 10,4 °C 73 % 1016,7 hPa 0,0 mm 11,8 km/h (2 Bft) W-SW 250 ° 0 min 0,000 mm 1,4 UV-I 185 W/m² 5,8 °C 16,1 km/h (3 Bft)
19.10.2016 14:53 10,4 °C 10,4 °C 73 % 1016,6 hPa 0,0 mm 12,1 km/h (2 Bft) W-NW 284 ° 0 min 0,000 mm 1,4 UV-I 185 W/m² 5,8 °C 17,7 km/h (3 Bft)
19.10.2016 14:54 10,4 °C 10,4 °C 74 % 1016,6 hPa 0,0 mm 9,5 km/h (2 Bft) W 259 ° 0 min 0,000 mm 1,4 UV-I 195 W/m² 6,0 °C 16,1 km/h (3 Bft)
19.10.2016 14:55 10,4 °C 10,4 °C 74 % 1016,7 hPa 0,0 mm 15,6 km/h (3 Bft) W-NW 284 ° 1 min 0,000 mm 1,6 UV-I 265 W/m² 6,0 °C 20,9 km/h (4 Bft)
19.10.2016 14:56 10,4 °C 10,4 °C 74 % 1016,7 hPa 0,0 mm 11,4 km/h (2 Bft) W 263 ° 0 min 0,000 mm 1,5 UV-I 218 W/m² 6,0 °C 16,1 km/h (3 Bft)
19.10.2016 14:57 10,4 °C 10,4 °C 74 % 1016,7 hPa 0,0 mm 9,0 km/h (2 Bft) W-NW 284 ° 1 min 0,000 mm 1,6 UV-I 290 W/m² 6,0 °C 11,3 km/h (2 Bft)
19.10.2016 14:58 10,3 °C 10,4 °C 75 % 1016,6 hPa 0,0 mm 9,1 km/h (2 Bft) W 271 ° 0 min 0,000 mm 1,5 UV-I 211 W/m² 6,1 °C 14,5 km/h (3 Bft)
19.10.2016 14:59 10,3 °C 10,3 °C 74 % 1016,6 hPa 0,0 mm 11,8 km/h (2 Bft) W 265 ° 0 min 0,000 mm 1,5 UV-I 218 W/m² 5,9 °C 20,9 km/h (4 Bft)
19.10.2016 15:00 10,2 °C 10,3 °C 74 % 1016,6 hPa 0,0 mm 9,7 km/h (2 Bft) W 269 ° 1 min 0,000 mm 1,7 UV-I 257 W/m² 5,8 °C 16,1 km/h (3 Bft)
19.10.2016 15:01 10,2 °C 10,2 °C 75 % 1016,6 hPa 0,0 mm 11,1 km/h (2 Bft) NW 320 ° 1 min 0,178 mm 1,8 UV-I 251 W/m² 6,0 °C 17,7 km/h (3 Bft)
19.10.2016 15:02 10,2 °C 10,2 °C 75 % 1016,7 hPa 0,0 mm 10,7 km/h (2 Bft) W 259 ° 1 min 0,000 mm 1,7 UV-I 267 W/m² 6,0 °C 19,3 km/h (3 Bft)
19.10.2016 15:03 10,2 °C 10,2 °C 75 % 1016,6 hPa 0,0 mm 9,5 km/h (2 Bft) W-SW 239 ° 1 min 0,000 mm 1,8 UV-I 281 W/m² 6,0 °C 17,7 km/h (3 Bft)
19.10.2016 15:04 10,2 °C 10,2 °C 76 % 1016,6 hPa 0,0 mm 12,1 km/h (2 Bft) W-NW 303 ° 1 min 0,000 mm 2,3 UV-I 281 W/m² 6,2 °C 17,7 km/h (3 Bft)
19.10.2016 15:05 10,3 °C 10,3 °C 75 % 1016,7 hPa 0,0 mm 10,4 km/h (2 Bft) W 280 ° 1 min 0,000 mm 1,6 UV-I 281 W/m² 6,1 °C 14,5 km/h (3 Bft)
19.10.2016 15:06 10,3 °C 10,3 °C 75 % 1016,6 hPa 0,0 mm 8,2 km/h (2 Bft) W 261 ° 1 min 0,000 mm 2,0 UV-I 596 W/m² 6,1 °C 11,3 km/h (2 Bft)
19.10.2016 15:07 10,3 °C 10,3 °C 74 % 1016,6 hPa 0,0 mm 14,6 km/h (3 Bft) W 276 ° 1 min 0,000 mm 2,4 UV-I 526 W/m² 5,9 °C 24,1 km/h (4 Bft)
19.10.2016 15:08 10,4 °C 10,4 °C 75 % 1016,6 hPa 0,0 mm 11,4 km/h (2 Bft) W 269 ° 1 min 0,000 mm 1,8 UV-I 526 W/m² 6,2 °C 17,7 km/h (3 Bft)
19.10.2016 15:09 10,6 °C 10,6 °C 75 % 1016,6 hPa 0,0 mm 12,9 km/h (3 Bft) NW 306 ° 1 min 0,000 mm 2,1 UV-I 526 W/m² 6,4 °C 22,5 km/h (4 Bft)
19.10.2016 15:10 10,6 °C 10,6 °C 74 % 1016,6 hPa 0,0 mm 13,4 km/h (3 Bft) W-NW 286 ° 1 min 0,000 mm 1,8 UV-I 526 W/m² 6,2 °C 19,3 km/h (3 Bft)
19.10.2016 15:11 10,6 °C 10,7 °C 74 % 1016,6 hPa 0,0 mm 11,7 km/h (2 Bft) W-NW 298 ° 1 min 0,000 mm 1,8 UV-I 357 W/m² 6,2 °C 20,9 km/h (4 Bft)
19.10.2016 15:12 10,6 °C 10,6 °C 73 % 1016,6 hPa 0,0 mm 11,9 km/h (2 Bft) W 267 ° 1 min 0,000 mm 2,1 UV-I 489 W/m² 6,0 °C 19,3 km/h (3 Bft)
19.10.2016 15:13 10,6 °C 10,6 °C 74 % 1016,6 hPa 0,0 mm 11,7 km/h (2 Bft) W-NW 285 ° 1 min 0,000 mm 2,0 UV-I 563 W/m² 6,2 °C 20,9 km/h (4 Bft)
19.10.2016 15:14 10,6 °C 10,6 °C 75 % 1016,6 hPa 0,0 mm 16,6 km/h (3 Bft) W-NW 292 ° 1 min 0,000 mm 1,9 UV-I 466 W/m² 6,4 °C 24,1 km/h (4 Bft)
19.10.2016 15:15 10,6 °C 10,6 °C 74 % 1016,6 hPa 0,0 mm 11,8 km/h (2 Bft) W-NW 295 ° 1 min 0,000 mm 2,0 UV-I 466 W/m² 6,2 °C 16,1 km/h (3 Bft)
19.10.2016 15:16 10,6 °C 10,6 °C 74 % 1016,6 hPa 0,0 mm 10,9 km/h (2 Bft) W 271 ° 1 min 0,000 mm 1,6 UV-I 466 W/m² 6,2 °C 17,7 km/h (3 Bft)
19.10.2016 15:17 10,5 °C 10,6 °C 74 % 1016,6 hPa 0,0 mm 11,1 km/h (2 Bft) W-SW 248 ° 1 min 0,000 mm 1,7 UV-I 466 W/m² 6,1 °C 16,1 km/h (3 Bft)
19.10.2016 15:18 10,4 °C 10,5 °C 74 % 1016,6 hPa 0,0 mm 14,2 km/h (3 Bft) W-NW 302 ° 1 min 0,000 mm 1,7 UV-I 457 W/m² 6,0 °C 17,7 km/h (3 Bft)
19.10.2016 15:19 10,4 °C 10,4 °C 74 % 1016,6 hPa 0,0 mm 10,1 km/h (2 Bft) W-SW 257 ° 1 min 0,000 mm 1,9 UV-I 457 W/m² 6,0 °C 20,9 km/h (4 Bft)
19.10.2016 15:20 10,4 °C 10,4 °C 74 % 1016,6 hPa 0,0 mm 13,7 km/h (3 Bft) W-NW 286 ° 1 min 0,000 mm 1,8 UV-I 524 W/m² 6,0 °C 20,9 km/h (4 Bft)
19.10.2016 15:21 10,4 °C 10,4 °C 75 % 1016,5 hPa 0,0 mm 12,6 km/h (3 Bft) W 261 ° 1 min 0,000 mm 1,7 UV-I 524 W/m² 6,2 °C 20,9 km/h (4 Bft)
19.10.2016 15:22 10,4 °C 10,4 °C 75 % 1016,5 hPa 0,0 mm 13,0 km/h (3 Bft) NW 311 ° 1 min 0,000 mm 1,9 UV-I 524 W/m² 6,2 °C 17,7 km/h (3 Bft)
19.10.2016 15:23 10,4 °C 10,4 °C 75 % 1016,5 hPa 0,0 mm 9,3 km/h (2 Bft) W-NW 296 ° 1 min 0,000 mm 1,6 UV-I 524 W/m² 6,2 °C 14,5 km/h (3 Bft)
19.10.2016 15:24 10,4 °C 10,4 °C 75 % 1016,5 hPa 0,0 mm 8,0 km/h (2 Bft) N 355 ° 1 min 0,000 mm 1,9 UV-I 580 W/m² 6,2 °C 14,5 km/h (3 Bft)
19.10.2016 15:25 10,4 °C 10,4 °C 76 % 1016,5 hPa 0,0 mm 18,8 km/h (3 Bft) W-NW 286 ° 1 min 0,000 mm 1,7 UV-I 575 W/m² 6,4 °C 27,4 km/h (4 Bft)
19.10.2016 15:26 10,4 °C 10,4 °C 75 % 1016,5 hPa 0,0 mm 14,5 km/h (3 Bft) W 278 ° 1 min 0,000 mm 1,9 UV-I 550 W/m² 6,2 °C 25,7 km/h (4 Bft)
19.10.2016 15:27 10,4 °C 10,5 °C 75 % 1016,6 hPa 0,0 mm 14,8 km/h (3 Bft) W-SW 250 ° 1 min 0,000 mm 1,9 UV-I 485 W/m² 6,2 °C 20,9 km/h (4 Bft)
19.10.2016 15:28 10,4 °C 10,5 °C 74 % 1016,5 hPa 0,0 mm 15,0 km/h (3 Bft) W-SW 242 ° 1 min 0,000 mm 1,7 UV-I 404 W/m² 6,0 °C 24,1 km/h (4 Bft)
19.10.2016 15:29 10,4 °C 10,4 °C 75 % 1016,4 hPa 0,0 mm 13,3 km/h (3 Bft) W 279 ° 1 min 0,000 mm 1,8 UV-I 448 W/m² 6,2 °C 16,1 km/h (3 Bft)
19.10.2016 15:30 10,4 °C 10,4 °C 75 % 1016,5 hPa 0,0 mm 11,0 km/h (2 Bft) W 280 ° 1 min 0,000 mm 1,8 UV-I 448 W/m² 6,2 °C 16,1 km/h (3 Bft)
19.10.2016 15:31 10,3 °C 10,4 °C 74 % 1016,5 hPa 0,0 mm 15,8 km/h (3 Bft) W-NW 287 ° 1 min 0,000 mm 1,5 UV-I 257 W/m² 5,9 °C 24,1 km/h (4 Bft)
19.10.2016 15:32 10,3 °C 10,3 °C 75 % 1016,4 hPa 0,0 mm 11,4 km/h (2 Bft) W 271 ° 1 min 0,000 mm 1,5 UV-I 227 W/m² 6,1 °C 19,3 km/h (3 Bft)
19.10.2016 15:33 10,2 °C 10,3 °C 74 % 1016,4 hPa 0,0 mm 10,5 km/h (2 Bft) W 275 ° 1 min 0,000 mm 1,6 UV-I 318 W/m² 5,8 °C 14,5 km/h (3 Bft)
19.10.2016 15:34 10,2 °C 10,2 °C 76 % 1016,4 hPa 0,0 mm 9,2 km/h (2 Bft) W-NW 294 ° 1 min 0,000 mm 1,7 UV-I 367 W/m² 6,2 °C 14,5 km/h (3 Bft)
19.10.2016 15:35 10,2 °C 10,2 °C 76 % 1016,3 hPa 0,0 mm 12,6 km/h (3 Bft) W 275 ° 1 min 0,000 mm 1,6 UV-I 531 W/m² 6,2 °C 19,3 km/h (3 Bft)
19.10.2016 15:36 10,1 °C 10,2 °C 76 % 1016,4 hPa 0,0 mm 10,3 km/h (2 Bft) SW 229 ° 1 min 0,000 mm 1,5 UV-I 531 W/m² 6,1 °C 14,5 km/h (3 Bft)
19.10.2016 15:37 10,1 °C 10,2 °C 76 % 1016,5 hPa 0,0 mm 13,1 km/h (3 Bft) W 266 ° 1 min 0,000 mm 1,4 UV-I 531 W/m² 6,1 °C 17,7 km/h (3 Bft)
19.10.2016 15:38 10,1 °C 10,1 °C 76 % 1016,4 hPa 0,0 mm 8,6 km/h (2 Bft) S 174 ° 0 min 0,000 mm 1,4 UV-I 190 W/m² 6,1 °C 16,1 km/h (3 Bft)
19.10.2016 15:39 10,0 °C 10,1 °C 76 % 1016,4 hPa 0,0 mm 8,0 km/h (2 Bft) W-NW 282 ° 0 min 0,000 mm 1,6 UV-I 190 W/m² 6,0 °C 14,5 km/h (3 Bft)
19.10.2016 15:40 9,9 °C 10,0 °C 76 % 1016,5 hPa 0,0 mm 12,5 km/h (3 Bft) W 271 ° 0 min 0,000 mm 1,7 UV-I 190 W/m² 5,9 °C 17,7 km/h (3 Bft)
19.10.2016 15:41 9,9 °C 9,9 °C 77 % 1016,4 hPa 0,0 mm 8,1 km/h (2 Bft) W-NW 283 ° 1 min 0,000 mm 1,7 UV-I 457 W/m² 6,1 °C 12,9 km/h (3 Bft)
19.10.2016 15:42 10,0 °C 10,0 °C 76 % 1016,3 hPa 0,0 mm 6,8 km/h (2 Bft) W 281 ° 1 min 0,000 mm 1,6 UV-I 381 W/m² 6,0 °C 12,9 km/h (3 Bft)
19.10.2016 15:43 10,0 °C 10,0 °C 77 % 1016,3 hPa 0,0 mm 8,2 km/h (2 Bft) W-SW 255 ° 1 min 0,000 mm 1,7 UV-I 330 W/m² 6,2 °C 12,9 km/h (3 Bft)
19.10.2016 15:44 10,1 °C 10,1 °C 77 % 1016,3 hPa 0,0 mm 6,2 km/h (2 Bft) W 261 ° 1 min 0,000 mm 1,4 UV-I 330 W/m² 6,3 °C 11,3 km/h (2 Bft)
19.10.2016 15:45 10,2 °C 10,2 °C 77 % 1016,3 hPa 0,0 mm 4,7 km/h (1 Bft) W 266 ° 1 min 0,000 mm 1,6 UV-I 441 W/m² 6,4 °C 8,0 km/h (2 Bft)
19.10.2016 15:46 10,2 °C 10,2 °C 78 % 1016,3 hPa 0,0 mm 9,0 km/h (2 Bft) S-SW 202 ° 1 min 0,000 mm 1,6 UV-I 450 W/m² 6,5 °C 16,1 km/h (3 Bft)
19.10.2016 15:47 10,3 °C 10,3 °C 77 % 1016,3 hPa 0,0 mm 8,6 km/h (2 Bft) W 272 ° 1 min 0,000 mm 1,5 UV-I 450 W/m² 6,4 °C 12,9 km/h (3 Bft)
19.10.2016 15:48 10,3 °C 10,3 °C 78 % 1016,3 hPa 0,0 mm 5,0 km/h (1 Bft) W 270 ° 1 min 0,000 mm 1,2 UV-I 248 W/m² 6,6 °C 11,3 km/h (2 Bft)
19.10.2016 15:49 10,3 °C 10,3 °C 78 % 1016,2 hPa 0,0 mm 7,8 km/h (2 Bft) W 270 ° 1 min 0,000 mm 1,4 UV-I 248 W/m² 6,6 °C 11,3 km/h (2 Bft)
19.10.2016 15:50 10,4 °C 10,4 °C 77 % 1016,3 hPa 0,0 mm 8,6 km/h (2 Bft) W-NW 298 ° 1 min 0,000 mm 1,3 UV-I 248 W/m² 6,5 °C 14,5 km/h (3 Bft)
19.10.2016 15:51 10,3 °C 10,4 °C 76 % 1016,3 hPa 0,0 mm 6,3 km/h (2 Bft) W-SW 248 ° 0 min 0,000 mm 1,0 UV-I 197 W/m² 6,3 °C 9,7 km/h (2 Bft)
19.10.2016 15:52 10,3 °C 10,3 °C 76 % 1016,3 hPa 0,0 mm 3,6 km/h (1 Bft) SW 225 ° 0 min 0,000 mm 0,8 UV-I 158 W/m² 6,3 °C 9,7 km/h (2 Bft)
19.10.2016 15:53 10,3 °C 10,3 °C 77 % 1016,2 hPa 0,0 mm 13,5 km/h (3 Bft) W-NW 296 ° 0 min 0,000 mm 0,7 UV-I 114 W/m² 6,4 °C 16,1 km/h (3 Bft)
19.10.2016 15:54 10,3 °C 10,3 °C 76 % 1016,3 hPa 0,0 mm 8,4 km/h (2 Bft) W 266 ° 0 min 0,000 mm 0,6 UV-I 102 W/m² 6,3 °C 12,9 km/h (3 Bft)
19.10.2016 15:55 10,2 °C 10,3 °C 76 % 1016,3 hPa 0,0 mm 9,5 km/h (2 Bft) W-SW 257 ° 0 min 0,000 mm 0,7 UV-I 100 W/m² 6,2 °C 12,9 km/h (3 Bft)
19.10.2016 15:56 10,1 °C 10,2 °C 77 % 1016,3 hPa 0,0 mm 7,1 km/h (2 Bft) W 260 ° 0 min 0,000 mm 0,7 UV-I 111 W/m² 6,3 °C 12,9 km/h (3 Bft)
19.10.2016 15:57 10,1 °C 10,1 °C 76 % 1016,3 hPa 0,0 mm 9,1 km/h (2 Bft) W 259 ° 0 min 0,000 mm 0,8 UV-I 123 W/m² 6,1 °C 12,9 km/h (3 Bft)
19.10.2016 15:58 10,0 °C 10,1 °C 77 % 1016,3 hPa 0,0 mm 6,2 km/h (2 Bft) W-SW 250 ° 0 min 0,000 mm 0,8 UV-I 134 W/m² 6,2 °C 11,3 km/h (2 Bft)
19.10.2016 15:59 10,0 °C 10,0 °C 77 % 1016,3 hPa 0,0 mm 9,0 km/h (2 Bft) W-NW 290 ° 0 min 0,000 mm 0,8 UV-I 120 W/m² 6,2 °C 14,5 km/h (3 Bft)
19.10.2016 16:00 9,9 °C 10,0 °C 76 % 1016,3 hPa 0,0 mm 9,8 km/h (2 Bft) W 269 ° 0 min 0,000 mm 0,7 UV-I 104 W/m² 5,9 °C 14,5 km/h (3 Bft)
19.10.2016 16:01 9,9 °C 9,9 °C 76 % 1016,3 hPa 0,0 mm 14,0 km/h (3 Bft) W 275 ° 0 min 0,203 mm 0,6 UV-I 95 W/m² 5,9 °C 19,3 km/h (3 Bft)
19.10.2016 16:02 9,9 °C 9,9 °C 76 % 1016,3 hPa 0,0 mm 10,6 km/h (2 Bft) NW 313 ° 0 min 0,000 mm 0,6 UV-I 91 W/m² 5,9 °C 16,1 km/h (3 Bft)
19.10.2016 16:03 9,9 °C 9,9 °C 76 % 1016,3 hPa 0,0 mm 6,2 km/h (2 Bft) W-SW 258 ° 0 min 0,000 mm 0,6 UV-I 98 W/m² 5,9 °C 9,7 km/h (2 Bft)
19.10.2016 16:04 9,9 °C 9,9 °C 76 % 1016,3 hPa 0,0 mm 6,9 km/h (2 Bft) W-NW 296 ° 0 min 0,000 mm 0,7 UV-I 98 W/m² 5,9 °C 11,3 km/h (2 Bft)
19.10.2016 16:05 9,8 °C 9,9 °C 77 % 1016,3 hPa 0,0 mm 4,3 km/h (1 Bft) S-SW 195 ° 0 min 0,000 mm 0,7 UV-I 113 W/m² 6,0 °C 6,4 km/h (2 Bft)
19.10.2016 16:06 9,8 °C 9,8 °C 75 % 1016,3 hPa 0,0 mm 9,0 km/h (2 Bft) W-SW 256 ° 0 min 0,000 mm 0,8 UV-I 104 W/m² 5,6 °C 14,5 km/h (3 Bft)
19.10.2016 16:07 9,8 °C 9,8 °C 76 % 1016,3 hPa 0,0 mm 11,3 km/h (2 Bft) W-NW 299 ° 0 min 0,000 mm 0,8 UV-I 97 W/m² 5,8 °C 17,7 km/h (3 Bft)
19.10.2016 16:08 9,7 °C 9,8 °C 75 % 1016,3 hPa 0,0 mm 9,7 km/h (2 Bft) W-NW 292 ° 0 min 0,000 mm 0,8 UV-I 100 W/m² 5,5 °C 17,7 km/h (3 Bft)
19.10.2016 16:09 9,7 °C 9,7 °C 75 % 1016,3 hPa 0,0 mm 11,5 km/h (2 Bft) W-NW 294 ° 0 min 0,000 mm 0,8 UV-I 109 W/m² 5,5 °C 19,3 km/h (3 Bft)
19.10.2016 16:10 9,7 °C 9,7 °C 76 % 1016,3 hPa 0,0 mm 7,8 km/h (2 Bft) NW 317 ° 1 min 0,000 mm 0,8 UV-I 181 W/m² 5,7 °C 14,5 km/h (3 Bft)
19.10.2016 16:11 9,7 °C 9,7 °C 77 % 1016,3 hPa 0,0 mm 7,5 km/h (2 Bft) W-SW 257 ° 1 min 0,000 mm 0,9 UV-I 193 W/m² 5,9 °C 11,3 km/h (2 Bft)
19.10.2016 16:12 9,7 °C 9,7 °C 78 % 1016,3 hPa 0,0 mm 5,5 km/h (1 Bft) W-NW 296 ° 0 min 0,000 mm 0,9 UV-I 104 W/m² 6,1 °C 11,3 km/h (2 Bft)
19.10.2016 16:13 9,7 °C 9,7 °C 77 % 1016,3 hPa 0,0 mm 7,2 km/h (2 Bft) W 281 ° 0 min 0,000 mm 1,0 UV-I 104 W/m² 5,9 °C 11,3 km/h (2 Bft)
19.10.2016 16:14 9,7 °C 9,7 °C 77 % 1016,3 hPa 0,0 mm 5,5 km/h (1 Bft) W 263 ° 0 min 0,000 mm 0,9 UV-I 104 W/m² 5,9 °C 14,5 km/h (3 Bft)
19.10.2016 16:15 9,7 °C 9,7 °C 76 % 1016,3 hPa 0,0 mm 2,2 km/h (1 Bft) W-SW 250 ° 0 min 0,000 mm 1,1 UV-I 104 W/m² 5,7 °C 6,4 km/h (2 Bft)
19.10.2016 16:16 9,7 °C 9,7 °C 76 % 1016,3 hPa 0,0 mm 8,4 km/h (2 Bft) W-NW 299 ° 1 min 0,000 mm 1,1 UV-I 209 W/m² 5,7 °C 16,1 km/h (3 Bft)
19.10.2016 16:17 9,7 °C 9,7 °C 77 % 1016,3 hPa 0,0 mm 6,8 km/h (2 Bft) NW 307 ° 1 min 0,000 mm 0,9 UV-I 209 W/m² 5,9 °C 14,5 km/h (3 Bft)
19.10.2016 16:18 9,7 °C 9,7 °C 77 % 1016,3 hPa 0,0 mm 4,8 km/h (1 Bft) W 265 ° 0 min 0,000 mm 0,8 UV-I 58 W/m² 5,9 °C 9,7 km/h (2 Bft)
19.10.2016 16:19 9,7 °C 9,7 °C 77 % 1016,3 hPa 0,0 mm 5,9 km/h (2 Bft) W-NW 289 ° 0 min 0,000 mm 0,8 UV-I 63 W/m² 5,9 °C 9,7 km/h (2 Bft)
19.10.2016 16:20 9,6 °C 9,7 °C 77 % 1016,3 hPa 0,0 mm 5,9 km/h (2 Bft) W-SW 239 ° 0 min 0,000 mm 0,0 UV-I 54 W/m² 5,8 °C 9,7 km/h (2 Bft)
19.10.2016 16:21 9,6 °C 9,6 °C 77 % 1016,3 hPa 0,0 mm 2,9 km/h (1 Bft) SW 225 ° 0 min 0,000 mm 0,0 UV-I 53 W/m² 5,8 °C 4,8 km/h (1 Bft)
19.10.2016 16:22 9,5 °C 9,6 °C 77 % 1016,3 hPa 0,0 mm 5,6 km/h (1 Bft) W 273 ° 0 min 0,000 mm 0,8 UV-I 54 W/m² 5,7 °C 8,0 km/h (2 Bft)
19.10.2016 16:23 9,4 °C 9,5 °C 78 % 1016,3 hPa 0,0 mm 6,7 km/h (2 Bft) W-SW 245 ° 0 min 0,000 mm 0,0 UV-I 53 W/m² 5,8 °C 11,3 km/h (2 Bft)
19.10.2016 16:24 9,4 °C 9,4 °C 77 % 1016,3 hPa 0,0 mm 5,7 km/h (1 Bft) S-SW 213 ° 0 min 0,000 mm 0,0 UV-I 54 W/m² 5,6 °C 12,9 km/h (3 Bft)
19.10.2016 16:25 9,3 °C 9,4 °C 76 % 1016,3 hPa 0,0 mm 6,8 km/h (2 Bft) SW 225 ° 0 min 0,000 mm 0,0 UV-I 54 W/m² 5,3 °C 11,3 km/h (2 Bft)
19.10.2016 16:26 9,3 °C 9,3 °C 77 % 1016,3 hPa 0,0 mm 6,2 km/h (2 Bft) W 261 ° 0 min 0,000 mm 0,7 UV-I 56 W/m² 5,5 °C 9,7 km/h (2 Bft)
19.10.2016 16:27 9,3 °C 9,3 °C 77 % 1016,3 hPa 0,0 mm 6,8 km/h (2 Bft) W-SW 258 ° 0 min 0,000 mm 0,7 UV-I 58 W/m² 5,5 °C 11,3 km/h (2 Bft)
19.10.2016 16:28 9,2 °C 9,3 °C 78 % 1016,3 hPa 0,0 mm 8,0 km/h (2 Bft) NW 323 ° 0 min 0,000 mm 0,7 UV-I 62 W/m² 5,6 °C 14,5 km/h (3 Bft)
19.10.2016 16:29 9,2 °C 9,2 °C 77 % 1016,3 hPa 0,0 mm 10,0 km/h (2 Bft) W-NW 290 ° 0 min 0,000 mm 0,7 UV-I 63 W/m² 5,4 °C 14,5 km/h (3 Bft)
19.10.2016 16:30 9,2 °C 9,2 °C 78 % 1016,3 hPa 0,0 mm 6,5 km/h (2 Bft) W-NW 292 ° 0 min 0,000 mm 0,7 UV-I 65 W/m² 5,6 °C 12,9 km/h (3 Bft)
19.10.2016 16:31 9,1 °C 9,2 °C 78 % 1016,3 hPa 0,0 mm 6,4 km/h (2 Bft) W-NW 285 ° 0 min 0,000 mm 0,7 UV-I 67 W/m² 5,5 °C 12,9 km/h (3 Bft)
19.10.2016 16:32 9,1 °C 9,1 °C 78 % 1016,3 hPa 0,0 mm 9,3 km/h (2 Bft) W 269 ° 0 min 0,000 mm 0,7 UV-I 62 W/m² 5,5 °C 12,9 km/h (3 Bft)
19.10.2016 16:33 9,1 °C 9,1 °C 78 % 1016,3 hPa 0,0 mm 9,0 km/h (2 Bft) W 276 ° 0 min 0,000 mm 0,7 UV-I 62 W/m² 5,5 °C 16,1 km/h (3 Bft)
19.10.2016 16:34 9,1 °C 9,1 °C 78 % 1016,3 hPa 0,0 mm 7,2 km/h (2 Bft) W 280 ° 0 min 0,000 mm 0,7 UV-I 81 W/m² 5,5 °C 16,1 km/h (3 Bft)
19.10.2016 16:35 9,1 °C 9,1 °C 78 % 1016,4 hPa 0,0 mm 10,9 km/h (2 Bft) W-NW 285 ° 0 min 0,000 mm 0,7 UV-I 90 W/m² 5,5 °C 14,5 km/h (3 Bft)
19.10.2016 16:36 9,1 °C 9,1 °C 79 % 1016,3 hPa 0,0 mm 11,5 km/h (2 Bft) NW 309 ° 0 min 0,000 mm 0,7 UV-I 93 W/m² 5,7 °C 16,1 km/h (3 Bft)
19.10.2016 16:37 9,1 °C 9,1 °C 79 % 1016,4 hPa 0,0 mm 5,7 km/h (1 Bft) W-NW 286 ° 0 min 0,000 mm 0,7 UV-I 88 W/m² 5,7 °C 11,3 km/h (2 Bft)
19.10.2016 16:38 9,1 °C 9,1 °C 79 % 1016,3 hPa 0,0 mm 4,2 km/h (1 Bft) W-NW 300 ° 0 min 0,000 mm 0,7 UV-I 81 W/m² 5,7 °C 6,4 km/h (2 Bft)
19.10.2016 16:39 9,1 °C 9,1 °C 80 % 1016,3 hPa 0,0 mm 5,6 km/h (1 Bft) W-NW 295 ° 0 min 0,000 mm 0,6 UV-I 74 W/m² 5,8 °C 12,9 km/h (3 Bft)
19.10.2016 16:40 9,1 °C 9,1 °C 80 % 1016,3 hPa 0,0 mm 11,0 km/h (2 Bft) W-NW 290 ° 0 min 0,000 mm 0,6 UV-I 62 W/m² 5,8 °C 16,1 km/h (3 Bft)
19.10.2016 16:41 9,0 °C 9,1 °C 79 % 1016,3 hPa 0,0 mm 6,1 km/h (2 Bft) N-NW 330 ° 0 min 0,000 mm 0,6 UV-I 58 W/m² 5,6 °C 9,7 km/h (2 Bft)
19.10.2016 16:42 9,0 °C 9,0 °C 80 % 1016,3 hPa 0,0 mm 4,4 km/h (1 Bft) W-NW 292 ° 0 min 0,000 mm 0,6 UV-I 56 W/m² 5,7 °C 6,4 km/h (2 Bft)
19.10.2016 16:43 8,9 °C 9,0 °C 80 % 1016,3 hPa 0,0 mm 7,8 km/h (2 Bft) NW 306 ° 0 min 0,000 mm 0,6 UV-I 62 W/m² 5,6 °C 14,5 km/h (3 Bft)
19.10.2016 16:44 8,9 °C 8,9 °C 79 % 1016,3 hPa 0,0 mm 10,6 km/h (2 Bft) W-NW 288 ° 0 min 0,000 mm 0,6 UV-I 76 W/m² 5,5 °C 14,5 km/h (3 Bft)
19.10.2016 16:45 8,9 °C 8,9 °C 80 % 1016,3 hPa 0,0 mm 6,2 km/h (2 Bft) W-NW 284 ° 0 min 0,000 mm 0,5 UV-I 91 W/m² 5,6 °C 11,3 km/h (2 Bft)
19.10.2016 16:46 8,9 °C 8,9 °C 80 % 1016,3 hPa 0,0 mm 6,4 km/h (2 Bft) W-NW 298 ° 0 min 0,000 mm 0,6 UV-I 116 W/m² 5,6 °C 9,7 km/h (2 Bft)
19.10.2016 16:47 9,0 °C 9,0 °C 80 % 1016,3 hPa 0,0 mm 5,9 km/h (2 Bft) W-NW 288 ° 0 min 0,000 mm 0,6 UV-I 98 W/m² 5,7 °C 9,7 km/h (2 Bft)
19.10.2016 16:48 9,0 °C 9,0 °C 81 % 1016,2 hPa 0,0 mm 2,4 km/h (1 Bft) SW 221 ° 0 min 0,000 mm 0,6 UV-I 81 W/m² 5,9 °C 3,2 km/h (1 Bft)
19.10.2016 16:49 9,1 °C 9,1 °C 80 % 1016,2 hPa 0,0 mm 3,3 km/h (1 Bft) W 262 ° 0 min 0,000 mm 0,5 UV-I 76 W/m² 5,8 °C 4,8 km/h (1 Bft)
19.10.2016 16:50 9,1 °C 9,1 °C 80 % 1016,3 hPa 0,0 mm 2,8 km/h (1 Bft) W 278 ° 0 min 0,000 mm 0,5 UV-I 81 W/m² 5,8 °C 3,2 km/h (1 Bft)
19.10.2016 16:51 9,1 °C 9,1 °C 80 % 1016,3 hPa 0,0 mm 4,6 km/h (1 Bft) W 267 ° 0 min 0,000 mm 0,0 UV-I 69 W/m² 5,8 °C 8,0 km/h (2 Bft)
19.10.2016 16:52 9,0 °C 9,1 °C 81 % 1016,3 hPa 0,0 mm 5,9 km/h (2 Bft) W 266 ° 0 min 0,000 mm 0,0 UV-I 62 W/m² 5,9 °C 11,3 km/h (2 Bft)
19.10.2016 16:53 9,1 °C 9,1 °C 80 % 1016,3 hPa 0,0 mm 7,4 km/h (2 Bft) W-SW 246 ° 0 min 0,000 mm 0,0 UV-I 58 W/m² 5,8 °C 11,3 km/h (2 Bft)
19.10.2016 16:54 9,1 °C 9,1 °C 80 % 1016,3 hPa 0,0 mm 5,2 km/h (1 Bft) SW 219 ° 0 min 0,000 mm 0,0 UV-I 51 W/m² 5,8 °C 8,0 km/h (2 Bft)
19.10.2016 16:55 9,1 °C 9,1 °C 80 % 1016,3 hPa 0,0 mm 4,8 km/h (1 Bft) W 271 ° 0 min 0,000 mm 0,0 UV-I 46 W/m² 5,8 °C 8,0 km/h (2 Bft)
19.10.2016 16:56 9,1 °C 9,1 °C 81 % 1016,3 hPa 0,0 mm 5,0 km/h (1 Bft) W-SW 245 ° 0 min 0,000 mm 0,0 UV-I 46 W/m² 6,0 °C 12,9 km/h (3 Bft)
19.10.2016 16:57 9,0 °C 9,1 °C 81 % 1016,4 hPa 0,0 mm 8,0 km/h (2 Bft) W 269 ° 0 min 0,000 mm 0,0 UV-I 51 W/m² 5,9 °C 14,5 km/h (3 Bft)
19.10.2016 16:58 9,0 °C 9,1 °C 81 % 1016,3 hPa 0,0 mm 6,4 km/h (2 Bft) NW 315 ° 0 min 0,000 mm 0,0 UV-I 58 W/m² 5,9 °C 9,7 km/h (2 Bft)
19.10.2016 16:59 9,0 °C 9,0 °C 80 % 1016,3 hPa 0,0 mm 7,6 km/h (2 Bft) W-NW 290 ° 0 min 0,000 mm 0,0 UV-I 54 W/m² 5,7 °C 12,9 km/h (3 Bft)
19.10.2016 17:00 9,0 °C 9,0 °C 81 % 1016,3 hPa 0,0 mm 7,6 km/h (2 Bft) W-NW 293 ° 0 min 0,000 mm 0,0 UV-I 51 W/m² 5,9 °C 11,3 km/h (2 Bft)
19.10.2016 17:01 9,0 °C 9,0 °C 81 % 1016,3 hPa 0,0 mm 5,1 km/h (1 Bft) W-NW 296 ° 0 min 0,051 mm 0,0 UV-I 54 W/m² 5,9 °C 6,4 km/h (2 Bft)
19.10.2016 17:02 8,9 °C 9,0 °C 81 % 1016,3 hPa 0,0 mm 1,6 km/h (1 Bft) W 279 ° 0 min 0,000 mm 0,0 UV-I 54 W/m² 5,8 °C 4,8 km/h (1 Bft)
19.10.2016 17:03 8,9 °C 8,9 °C 81 % 1016,3 hPa 0,0 mm 2,1 km/h (1 Bft) W-NW 294 ° 0 min 0,000 mm 0,0 UV-I 51 W/m² 5,8 °C 3,2 km/h (1 Bft)
19.10.2016 17:04 8,9 °C 8,9 °C 81 % 1016,3 hPa 0,0 mm 6,8 km/h (2 Bft) W 274 ° 0 min 0,000 mm 0,0 UV-I 65 W/m² 5,8 °C 11,3 km/h (2 Bft)
19.10.2016 17:05 8,9 °C 8,9 °C 81 % 1016,3 hPa 0,0 mm 6,4 km/h (2 Bft) SW 229 ° 0 min 0,000 mm 0,0 UV-I 56 W/m² 5,8 °C 11,3 km/h (2 Bft)
19.10.2016 17:06 8,8 °C 8,9 °C 81 % 1016,3 hPa 0,0 mm 12,5 km/h (3 Bft) W 264 ° 0 min 0,000 mm 0,0 UV-I 47 W/m² 5,7 °C 17,7 km/h (3 Bft)
19.10.2016 17:07 8,8 °C 8,8 °C 81 % 1016,4 hPa 0,0 mm 9,5 km/h (2 Bft) W-SW 256 ° 0 min 0,000 mm 0,0 UV-I 51 W/m² 5,7 °C 12,9 km/h (3 Bft)
19.10.2016 17:08 8,8 °C 8,8 °C 81 % 1016,4 hPa 0,0 mm 13,5 km/h (3 Bft) W-SW 241 ° 0 min 0,000 mm 0,0 UV-I 60 W/m² 5,7 °C 19,3 km/h (3 Bft)
19.10.2016 17:09 8,7 °C 8,8 °C 81 % 1016,3 hPa 0,0 mm 8,9 km/h (2 Bft) W 265 ° 0 min 0,000 mm 0,0 UV-I 63 W/m² 5,6 °C 12,9 km/h (3 Bft)
19.10.2016 17:10 8,7 °C 8,7 °C 81 % 1016,3 hPa 0,0 mm 8,6 km/h (2 Bft) W 274 ° 0 min 0,000 mm 0,0 UV-I 63 W/m² 5,6 °C 14,5 km/h (3 Bft)
19.10.2016 17:11 8,7 °C 8,7 °C 81 % 1016,3 hPa 0,0 mm 12,7 km/h (3 Bft) W-NW 284 ° 0 min 0,000 mm 0,0 UV-I 58 W/m² 5,6 °C 19,3 km/h (3 Bft)
19.10.2016 17:12 8,7 °C 8,7 °C 81 % 1016,2 hPa 0,0 mm 8,2 km/h (2 Bft) SW 218 ° 0 min 0,000 mm 0,0 UV-I 56 W/m² 5,6 °C 12,9 km/h (3 Bft)
19.10.2016 17:13 8,6 °C 8,7 °C 82 % 1016,3 hPa 0,0 mm 9,8 km/h (2 Bft) W-SW 257 ° 0 min 0,000 mm 0,0 UV-I 53 W/m² 5,7 °C 17,7 km/h (3 Bft)
19.10.2016 17:14 8,6 °C 8,6 °C 81 % 1016,3 hPa 0,0 mm 7,1 km/h (2 Bft) W 275 ° 0 min 0,000 mm 0,0 UV-I 51 W/m² 5,5 °C 12,9 km/h (3 Bft)
19.10.2016 17:15 8,6 °C 8,6 °C 82 % 1016,4 hPa 0,0 mm 9,1 km/h (2 Bft) W-SW 237 ° 0 min 0,000 mm 0,0 UV-I 49 W/m² 5,7 °C 16,1 km/h (3 Bft)
19.10.2016 17:16 8,5 °C 8,6 °C 82 % 1016,4 hPa 0,0 mm 14,8 km/h (3 Bft) W 263 ° 0 min 0,000 mm 0,0 UV-I 44 W/m² 5,6 °C 17,7 km/h (3 Bft)
19.10.2016 17:17 8,5 °C 8,5 °C 81 % 1016,4 hPa 0,0 mm 8,2 km/h (2 Bft) W-SW 250 ° 0 min 0,000 mm 0,0 UV-I 44 W/m² 5,4 °C 12,9 km/h (3 Bft)
19.10.2016 17:18 8,4 °C 8,5 °C 82 % 1016,4 hPa 0,0 mm 10,9 km/h (2 Bft) W 272 ° 0 min 0,000 mm 0,0 UV-I 40 W/m² 5,5 °C 19,3 km/h (3 Bft)
19.10.2016 17:19 8,4 °C 8,4 °C 82 % 1016,4 hPa 0,0 mm 8,0 km/h (2 Bft) W-SW 247 ° 0 min 0,000 mm 0,0 UV-I 37 W/m² 5,5 °C 16,1 km/h (3 Bft)
19.10.2016 17:20 8,4 °C 8,4 °C 82 % 1016,3 hPa 0,0 mm 5,6 km/h (1 Bft) S-SW 199 ° 0 min 0,000 mm 0,0 UV-I 33 W/m² 5,5 °C 11,3 km/h (2 Bft)
19.10.2016 17:21 8,3 °C 8,4 °C 82 % 1016,4 hPa 0,0 mm 6,0 km/h (2 Bft) W-NW 291 ° 0 min 0,000 mm 0,0 UV-I 30 W/m² 5,4 °C 9,7 km/h (2 Bft)
19.10.2016 17:22 8,3 °C 8,3 °C 82 % 1016,4 hPa 0,0 mm 9,6 km/h (2 Bft) W-SW 256 ° 0 min 0,000 mm 0,0 UV-I 28 W/m² 5,4 °C 16,1 km/h (3 Bft)
19.10.2016 17:23 8,3 °C 8,3 °C 82 % 1016,4 hPa 0,0 mm 8,1 km/h (2 Bft) W-SW 253 ° 0 min 0,000 mm 0,0 UV-I 26 W/m² 5,4 °C 16,1 km/h (3 Bft)
19.10.2016 17:24 8,2 °C 8,3 °C 83 % 1016,4 hPa 0,0 mm 7,9 km/h (2 Bft) W-SW 243 ° 0 min 0,000 mm 0,0 UV-I 25 W/m² 5,5 °C 11,3 km/h (2 Bft)
19.10.2016 17:25 8,2 °C 8,2 °C 83 % 1016,4 hPa 0,0 mm 9,2 km/h (2 Bft) SW 227 ° 0 min 0,000 mm 0,0 UV-I 23 W/m² 5,5 °C 14,5 km/h (3 Bft)
19.10.2016 17:26 8,2 °C 8,2 °C 82 % 1016,3 hPa 0,0 mm 4,6 km/h (1 Bft) W-SW 247 ° 0 min 0,000 mm 0,0 UV-I 21 W/m² 5,3 °C 9,7 km/h (2 Bft)
19.10.2016 17:27 8,1 °C 8,2 °C 82 % 1016,3 hPa 0,0 mm 11,2 km/h (2 Bft) SW 223 ° 0 min 0,000 mm 0,0 UV-I 19 W/m² 5,2 °C 14,5 km/h (3 Bft)
19.10.2016 17:28 8,1 °C 8,1 °C 83 % 1016,4 hPa 0,0 mm 8,5 km/h (2 Bft) W-SW 239 ° 0 min 0,000 mm 0,0 UV-I 19 W/m² 5,4 °C 17,7 km/h (3 Bft)
19.10.2016 17:29 8,0 °C 8,1 °C 83 % 1016,4 hPa 0,0 mm 8,2 km/h (2 Bft) W-SW 242 ° 0 min 0,000 mm 0,0 UV-I 19 W/m² 5,3 °C 12,9 km/h (3 Bft)
19.10.2016 17:30 8,0 °C 8,1 °C 83 % 1016,4 hPa 0,0 mm 8,9 km/h (2 Bft) W-SW 251 ° 0 min 0,000 mm 0,0 UV-I 21 W/m² 5,3 °C 12,9 km/h (3 Bft)
19.10.2016 17:31 8,0 °C 8,0 °C 84 % 1016,4 hPa 0,0 mm 6,8 km/h (2 Bft) W 277 ° 0 min 0,000 mm 0,0 UV-I 25 W/m² 5,5 °C 11,3 km/h (2 Bft)
19.10.2016 17:32 8,0 °C 8,0 °C 83 % 1016,4 hPa 0,0 mm 5,5 km/h (1 Bft) N-NW 332 ° 0 min 0,000 mm 0,0 UV-I 26 W/m² 5,3 °C 12,9 km/h (3 Bft)
19.10.2016 17:33 7,9 °C 8,0 °C 83 % 1016,3 hPa 0,0 mm 7,8 km/h (2 Bft) SW 234 ° 0 min 0,000 mm 0,0 UV-I 23 W/m² 5,2 °C 14,5 km/h (3 Bft)
19.10.2016 17:34 7,9 °C 7,9 °C 84 % 1016,3 hPa 0,0 mm 11,1 km/h (2 Bft) W-NW 290 ° 0 min 0,000 mm 0,0 UV-I 21 W/m² 5,4 °C 16,1 km/h (3 Bft)
19.10.2016 17:35 7,9 °C 8,0 °C 83 % 1016,3 hPa 0,0 mm 8,0 km/h (2 Bft) W-SW 257 ° 0 min 0,000 mm 0,0 UV-I 21 W/m² 5,2 °C 11,3 km/h (2 Bft)
19.10.2016 17:36 7,9 °C 7,9 °C 83 % 1016,3 hPa 0,0 mm 5,4 km/h (1 Bft) W 273 ° 0 min 0,000 mm 0,0 UV-I 21 W/m² 5,2 °C 8,0 km/h (2 Bft)
19.10.2016 17:37 7,9 °C 7,9 °C 84 % 1016,4 hPa 0,0 mm 9,5 km/h (2 Bft) W 275 ° 0 min 0,000 mm 0,0 UV-I 23 W/m² 5,4 °C 14,5 km/h (3 Bft)
19.10.2016 17:38 7,9 °C 7,9 °C 84 % 1016,4 hPa 0,0 mm 12,1 km/h (2 Bft) W 281 ° 0 min 0,000 mm 0,0 UV-I 19 W/m² 5,4 °C 16,1 km/h (3 Bft)
19.10.2016 17:39 7,9 °C 7,9 °C 84 % 1016,3 hPa 0,0 mm 6,6 km/h (2 Bft) W-NW 291 ° 0 min 0,000 mm 0,0 UV-I 19 W/m² 5,4 °C 12,9 km/h (3 Bft)
19.10.2016 17:40 7,8 °C 7,9 °C 84 % 1016,2 hPa 0,0 mm 3,2 km/h (1 Bft) SW 236 ° 0 min 0,000 mm 0,0 UV-I 19 W/m² 5,3 °C 4,8 km/h (1 Bft)
19.10.2016 17:41 7,8 °C 7,8 °C 83 % 1016,2 hPa 0,0 mm 8,5 km/h (2 Bft) W-SW 252 ° 0 min 0,000 mm 0,0 UV-I 19 W/m² 5,1 °C 17,7 km/h (3 Bft)
19.10.2016 17:42 7,8 °C 7,8 °C 83 % 1016,2 hPa 0,0 mm 9,8 km/h (2 Bft) W-SW 238 ° 0 min 0,000 mm 0,0 UV-I 19 W/m² 5,1 °C 14,5 km/h (3 Bft)
19.10.2016 17:43 7,8 °C 7,8 °C 83 % 1016,2 hPa 0,0 mm 12,2 km/h (2 Bft) W-NW 283 ° 0 min 0,000 mm 0,0 UV-I 19 W/m² 5,1 °C 17,7 km/h (3 Bft)
19.10.2016 17:44 7,8 °C 7,8 °C 83 % 1016,2 hPa 0,0 mm 4,4 km/h (1 Bft) W-NW 284 ° 0 min 0,000 mm 0,0 UV-I 19 W/m² 5,1 °C 11,3 km/h (2 Bft)
19.10.2016 17:45 7,8 °C 7,8 °C 83 % 1016,2 hPa 0,0 mm 4,6 km/h (1 Bft) W 263 ° 0 min 0,000 mm 0,0 UV-I 19 W/m² 5,1 °C 9,7 km/h (2 Bft)
19.10.2016 17:46 7,8 °C 7,8 °C 84 % 1016,2 hPa 0,0 mm 2,7 km/h (1 Bft) W 264 ° 0 min 0,000 mm 0,0 UV-I 18 W/m² 5,3 °C 4,8 km/h (1 Bft)
19.10.2016 17:47 7,7 °C 7,8 °C 84 % 1016,2 hPa 0,0 mm 2,3 km/h (1 Bft) W-NW 294 ° 0 min 0,000 mm 0,0 UV-I 18 W/m² 5,2 °C 4,8 km/h (1 Bft)
19.10.2016 17:48 7,7 °C 7,7 °C 84 % 1016,2 hPa 0,0 mm 6,6 km/h (2 Bft) W 261 ° 0 min 0,000 mm 0,0 UV-I 18 W/m² 5,2 °C 12,9 km/h (3 Bft)
19.10.2016 17:49 7,7 °C 7,7 °C 84 % 1016,2 hPa 0,0 mm 4,8 km/h (1 Bft) W 275 ° 0 min 0,000 mm 0,0 UV-I 18 W/m² 5,2 °C 6,4 km/h (2 Bft)
19.10.2016 17:50 7,6 °C 7,7 °C 84 % 1016,2 hPa 0,0 mm 10,1 km/h (2 Bft) W 260 ° 0 min 0,000 mm 0,0 UV-I 19 W/m² 5,1 °C 22,5 km/h (4 Bft)
19.10.2016 17:51 7,6 °C 7,6 °C 84 % 1016,2 hPa 0,0 mm 14,0 km/h (3 Bft) SW 230 ° 0 min 0,000 mm 0,0 UV-I 18 W/m² 5,1 °C 20,9 km/h (4 Bft)
19.10.2016 17:52 7,6 °C 7,6 °C 84 % 1016,2 hPa 0,0 mm 9,6 km/h (2 Bft) W-SW 255 ° 0 min 0,000 mm 0,0 UV-I 18 W/m² 5,1 °C 14,5 km/h (3 Bft)
19.10.2016 17:53 7,6 °C 7,6 °C 84 % 1016,2 hPa 0,0 mm 11,0 km/h (2 Bft) W-NW 288 ° 0 min 0,000 mm 0,0 UV-I 18 W/m² 5,1 °C 16,1 km/h (3 Bft)
19.10.2016 17:54 7,6 °C 7,6 °C 84 % 1016,2 hPa 0,0 mm 9,4 km/h (2 Bft) W-NW 287 ° 0 min 0,000 mm 0,0 UV-I 19 W/m² 5,1 °C 12,9 km/h (3 Bft)
19.10.2016 17:55 7,6 °C 7,6 °C 84 % 1016,2 hPa 0,0 mm 7,8 km/h (2 Bft) W-SW 255 ° 0 min 0,000 mm 0,0 UV-I 19 W/m² 5,1 °C 11,3 km/h (2 Bft)
19.10.2016 17:56 7,6 °C 7,6 °C 84 % 1016,2 hPa 0,0 mm 5,6 km/h (1 Bft) W-SW 242 ° 0 min 0,000 mm 0,0 UV-I 19 W/m² 5,1 °C 9,7 km/h (2 Bft)
19.10.2016 17:57 7,5 °C 7,6 °C 84 % 1016,3 hPa 0,0 mm 5,6 km/h (1 Bft) W 280 ° 0 min 0,000 mm 0,0 UV-I 19 W/m² 5,0 °C 11,3 km/h (2 Bft)
19.10.2016 17:58 7,5 °C 7,5 °C 84 % 1016,3 hPa 0,0 mm 8,9 km/h (2 Bft) W 260 ° 0 min 0,000 mm 0,0 UV-I 18 W/m² 5,0 °C 12,9 km/h (3 Bft)
19.10.2016 17:59 7,4 °C 7,5 °C 84 % 1016,3 hPa 0,0 mm 10,7 km/h (2 Bft) W-SW 252 ° 0 min 0,000 mm 0,0 UV-I 18 W/m² 4,9 °C 20,9 km/h (4 Bft)
19.10.2016 18:00 7,4 °C 7,4 °C 84 % 1016,3 hPa 0,0 mm 6,4 km/h (2 Bft) W-NW 294 ° 0 min 0,025 mm 0,0 UV-I 16 W/m² 4,9 °C 12,9 km/h (3 Bft)
19.10.2016 18:01 7,4 °C 7,4 °C 84 % 1016,3 hPa 0,0 mm 7,1 km/h (2 Bft) SW 223 ° 0 min 0,000 mm 0,0 UV-I 14 W/m² 4,9 °C 12,9 km/h (3 Bft)
19.10.2016 18:02 7,4 °C 7,4 °C 85 % 1016,3 hPa 0,0 mm 7,4 km/h (2 Bft) W 276 ° 0 min 0,000 mm 0,0 UV-I 12 W/m² 5,0 °C 11,3 km/h (2 Bft)
19.10.2016 18:03 7,4 °C 7,4 °C 85 % 1016,3 hPa 0,0 mm 9,4 km/h (2 Bft) W 266 ° 0 min 0,000 mm 0,0 UV-I 12 W/m² 5,0 °C 16,1 km/h (3 Bft)
19.10.2016 18:04 7,4 °C 7,4 °C 85 % 1016,3 hPa 0,0 mm 5,6 km/h (1 Bft) W-SW 250 ° 0 min 0,000 mm 0,0 UV-I 11 W/m² 5,0 °C 11,3 km/h (2 Bft)
19.10.2016 18:05 7,3 °C 7,4 °C 85 % 1016,3 hPa 0,0 mm 6,6 km/h (2 Bft) W-SW 257 ° 0 min 0,000 mm 0,0 UV-I 11 W/m² 4,9 °C 11,3 km/h (2 Bft)
19.10.2016 18:06 7,3 °C 7,3 °C 85 % 1016,3 hPa 0,0 mm 4,5 km/h (1 Bft) W 259 ° 0 min 0,000 mm 0,0 UV-I 9 W/m² 4,9 °C 6,4 km/h (2 Bft)
19.10.2016 18:07 7,3 °C 7,3 °C 85 % 1016,3 hPa 0,0 mm 8,1 km/h (2 Bft) W 263 ° 0 min 0,000 mm 0,0 UV-I 9 W/m² 4,9 °C 12,9 km/h (3 Bft)
19.10.2016 18:08 7,3 °C 7,3 °C 85 % 1016,3 hPa 0,0 mm 3,9 km/h (1 Bft) SW 233 ° 0 min 0,000 mm 0,0 UV-I 7 W/m² 4,9 °C 6,4 km/h (2 Bft)
19.10.2016 18:09 7,2 °C 7,3 °C 85 % 1016,3 hPa 0,0 mm 5,2 km/h (1 Bft) W 276 ° 0 min 0,000 mm 0,0 UV-I 7 W/m² 4,9 °C 9,7 km/h (2 Bft)
19.10.2016 18:10 7,2 °C 7,2 °C 85 % 1016,3 hPa 0,0 mm 5,9 km/h (2 Bft) W-SW 254 ° 0 min 0,000 mm 0,0 UV-I 7 W/m² 4,9 °C 11,3 km/h (2 Bft)
19.10.2016 18:11 7,2 °C 7,2 °C 86 % 1016,4 hPa 0,0 mm 8,0 km/h (2 Bft) W 281 ° 0 min 0,000 mm 0,0 UV-I 5 W/m² 5,0 °C 12,9 km/h (3 Bft)
19.10.2016 18:12 7,2 °C 7,2 °C 86 % 1016,4 hPa 0,0 mm 8,5 km/h (2 Bft) W 259 ° 0 min 0,000 mm 0,0 UV-I 5 W/m² 5,0 °C 12,9 km/h (3 Bft)
19.10.2016 18:13 7,2 °C 7,2 °C 86 % 1016,4 hPa 0,0 mm 5,2 km/h (1 Bft) W-SW 244 ° 0 min 0,000 mm 0,0 UV-I 5 W/m² 5,0 °C 11,3 km/h (2 Bft)
19.10.2016 18:14 7,2 °C 7,2 °C 86 % 1016,4 hPa 0,0 mm 4,4 km/h (1 Bft) W 263 ° 0 min 0,000 mm 0,0 UV-I 5 W/m² 5,0 °C 11,3 km/h (2 Bft)
19.10.2016 18:15 7,2 °C 7,2 °C 86 % 1016,4 hPa 0,0 mm 6,7 km/h (2 Bft) W 274 ° 0 min 0,000 mm 0,0 UV-I 5 W/m² 5,0 °C 12,9 km/h (3 Bft)
19.10.2016 18:16 7,2 °C 7,2 °C 86 % 1016,3 hPa 0,0 mm 4,1 km/h (1 Bft) W-SW 252 ° 0 min 0,000 mm 0,0 UV-I 0 W/m² 5,0 °C 9,7 km/h (2 Bft)
19.10.2016 18:17 7,2 °C 7,2 °C 85 % 1016,3 hPa 0,0 mm 5,2 km/h (1 Bft) W-SW 250 ° 0 min 0,000 mm 0,0 UV-I 0 W/m² 4,9 °C 9,7 km/h (2 Bft)
19.10.2016 18:18 7,2 °C 7,2 °C 85 % 1016,3 hPa 0,0 mm 2,6 km/h (1 Bft) W-SW 258 ° 0 min 0,000 mm 0,0 UV-I 0 W/m² 4,9 °C 4,8 km/h (1 Bft)
19.10.2016 18:19 7,2 °C 7,2 °C 85 % 1016,3 hPa 0,0 mm 6,4 km/h (2 Bft) W 270 ° 0 min 0,000 mm 0,0 UV-I 0 W/m² 4,9 °C 11,3 km/h (2 Bft)
19.10.2016 18:20 7,1 °C 7,2 °C 85 % 1016,4 hPa 0,0 mm 6,0 km/h (2 Bft) W-SW 257 ° 0 min 0,000 mm 0,0 UV-I 0 W/m² 4,8 °C 9,7 km/h (2 Bft)
19.10.2016 18:21 7,1 °C 7,1 °C 85 % 1016,3 hPa 0,0 mm 12,4 km/h (3 Bft) NW 305 ° 0 min 0,000 mm 0,0 UV-I 0 W/m² 4,8 °C 17,7 km/h (3 Bft)
19.10.2016 18:22 7,1 °C 7,1 °C 86 % 1016,3 hPa 0,0 mm 8,4 km/h (2 Bft) SW 220 ° 0 min 0,000 mm 0,0 UV-I 0 W/m² 4,9 °C 12,9 km/h (3 Bft)
19.10.2016 18:23 7,1 °C 7,1 °C 86 % 1016,3 hPa 0,0 mm 7,4 km/h (2 Bft) W 267 ° 0 min 0,000 mm 0,0 UV-I 0 W/m² 4,9 °C 14,5 km/h (3 Bft)
19.10.2016 18:24 7,1 °C 7,1 °C 86 % 1016,3 hPa 0,0 mm 7,6 km/h (2 Bft) W-NW 303 ° 0 min 0,000 mm 0,0 UV-I 0 W/m² 4,9 °C 12,9 km/h (3 Bft)
19.10.2016 18:25 7,1 °C 7,1 °C 86 % 1016,4 hPa 0,0 mm 6,5 km/h (2 Bft) W-SW 246 ° 0 min 0,000 mm 0,0 UV-I 0 W/m² 4,9 °C 11,3 km/h (2 Bft)
19.10.2016 18:26 7,1 °C 7,1 °C 86 % 1016,4 hPa 0,0 mm 9,2 km/h (2 Bft) W 261 ° 0 min 0,000 mm 0,0 UV-I 0 W/m² 4,9 °C 16,1 km/h (3 Bft)
19.10.2016 18:27 7,1 °C 7,1 °C 86 % 1016,4 hPa 0,0 mm 10,4 km/h (2 Bft) W 275 ° 0 min 0,000 mm 0,0 UV-I 0 W/m² 4,9 °C 14,5 km/h (3 Bft)
19.10.2016 18:28 7,0 °C 7,1 °C 86 % 1016,3 hPa 0,0 mm 4,0 km/h (1 Bft) W 281 ° 0 min 0,000 mm 0,0 UV-I 0 W/m² 4,8 °C 6,4 km/h (2 Bft)
19.10.2016 18:29 7,0 °C 7,0 °C 86 % 1016,4 hPa 0,0 mm 9,2 km/h (2 Bft) W 259 ° 0 min 0,000 mm 0,0 UV-I 0 W/m² 4,8 °C 14,5 km/h (3 Bft)
19.10.2016 18:30 7,0 °C 7,0 °C 86 % 1016,4 hPa 0,0 mm 4,1 km/h (1 Bft) W-SW 252 ° 0 min 0,000 mm 0,0 UV-I 0 W/m² 4,8 °C 8,0 km/h (2 Bft)
19.10.2016 18:31 7,0 °C 7,1 °C 86 % 1016,4 hPa 0,0 mm 2,2 km/h (1 Bft) W-SW 252 ° 0 min 0,000 mm 0,0 UV-I 0 W/m² 4,8 °C 3,2 km/h (1 Bft)
19.10.2016 18:32 7,1 °C 7,1 °C 86 % 1016,4 hPa 0,0 mm 10,1 km/h (2 Bft) SW 235 ° 0 min 0,000 mm 0,0 UV-I 0 W/m² 4,9 °C 12,9 km/h (3 Bft)
19.10.2016 18:33 7,0 °C 7,1 °C 86 % 1016,4 hPa 0,0 mm 5,2 km/h (1 Bft) W-SW 241 ° 0 min 0,000 mm 0,0 UV-I 0 W/m² 4,8 °C 12,9 km/h (3 Bft)
19.10.2016 18:34 7,0 °C 7,1 °C 86 % 1016,4 hPa 0,0 mm 4,2 km/h (1 Bft) S 190 ° 0 min 0,000 mm 0,0 UV-I 0 W/m² 4,8 °C 6,4 km/h (2 Bft)
19.10.2016 18:35 7,0 °C 7,0 °C 86 % 1016,4 hPa 0,0 mm 2,6 km/h (1 Bft) S 185 ° 0 min 0,000 mm 0,0 UV-I 0 W/m² 4,8 °C 4,8 km/h (1 Bft)
19.10.2016 18:36 7,0 °C 7,0 °C 86 % 1016,4 hPa 0,0 mm 3,4 km/h (1 Bft) W-SW 238 ° 0 min 0,000 mm 0,0 UV-I 0 W/m² 4,8 °C 4,8 km/h (1 Bft)
19.10.2016 18:37 7,0 °C 7,1 °C 86 % 1016,4 hPa 0,0 mm 2,7 km/h (1 Bft) W 264 ° 0 min 0,000 mm 0,0 UV-I 0 W/m² 4,8 °C 6,4 km/h (2 Bft)
19.10.2016 18:38 7,0 °C 7,0 °C 86 % 1016,4 hPa 0,0 mm 1,9 km/h (1 Bft) W-SW 248 ° 0 min 0,000 mm 0,0 UV-I 0 W/m² 4,8 °C 4,8 km/h (1 Bft)
19.10.2016 18:39 7,0 °C 7,0 °C 85 % 1016,4 hPa 0,0 mm 9,1 km/h (2 Bft) W-SW 253 ° 0 min 0,000 mm 0,0 UV-I 0 W/m² 4,7 °C 14,5 km/h (3 Bft)
19.10.2016 18:40 7,0 °C 7,1 °C 85 % 1016,3 hPa 0,0 mm 6,6 km/h (2 Bft) W-NW 288 ° 0 min 0,000 mm 0,0 UV-I 0 W/m² 4,7 °C 12,9 km/h (3 Bft)
19.10.2016 18:41 6,9 °C 7,0 °C 86 % 1016,2 hPa 0,0 mm 6,6 km/h (2 Bft) NW 306 ° 0 min 0,000 mm 0,0 UV-I 0 W/m² 4,7 °C 12,9 km/h (3 Bft)
19.10.2016 18:42 6,9 °C 7,0 °C 86 % 1016,4 hPa 0,0 mm 8,8 km/h (2 Bft) W 263 ° 0 min 0,000 mm 0,0 UV-I 0 W/m² 4,7 °C 11,3 km/h (2 Bft)
19.10.2016 18:43 6,9 °C 6,9 °C 86 % 1016,3 hPa 0,0 mm 8,0 km/h (2 Bft) W-NW 290 ° 0 min 0,000 mm 0,0 UV-I 0 W/m² 4,7 °C 17,7 km/h (3 Bft)
19.10.2016 18:44 6,9 °C 6,9 °C 86 % 1016,2 hPa 0,0 mm 10,2 km/h (2 Bft) W-NW 302 ° 0 min 0,000 mm 0,0 UV-I 0 W/m² 4,7 °C 14,5 km/h (3 Bft)
19.10.2016 18:45 6,9 °C 6,9 °C 86 % 1016,3 hPa 0,0 mm 7,7 km/h (2 Bft) W 278 ° 0 min 0,000 mm 0,0 UV-I 0 W/m² 4,7 °C 14,5 km/h (3 Bft)
19.10.2016 18:46 6,9 °C 6,9 °C 85 % 1016,3 hPa 0,0 mm 4,0 km/h (1 Bft) W 268 ° 0 min 0,000 mm 0,0 UV-I 0 W/m² 4,6 °C 6,4 km/h (2 Bft)
19.10.2016 18:47 6,9 °C 6,9 °C 85 % 1016,3 hPa 0,0 mm 6,4 km/h (2 Bft) W-SW 258 ° 0 min 0,000 mm 0,0 UV-I 0 W/m² 4,6 °C 12,9 km/h (3 Bft)
19.10.2016 18:48 6,9 °C 6,9 °C 85 % 1016,3 hPa 0,0 mm 4,1 km/h (1 Bft) W-SW 257 ° 0 min 0,000 mm 0,0 UV-I 0 W/m² 4,6 °C 9,7 km/h (2 Bft)
19.10.2016 18:49 6,8 °C 6,9 °C 85 % 1016,4 hPa 0,0 mm 9,0 km/h (2 Bft) W-SW 250 ° 0 min 0,000 mm 0,0 UV-I 0 W/m² 4,5 °C 12,9 km/h (3 Bft)
19.10.2016 18:50 6,8 °C 6,8 °C 85 % 1016,3 hPa 0,0 mm 5,4 km/h (1 Bft) W-SW 245 ° 0 min 0,000 mm 0,0 UV-I 0 W/m² 4,5 °C 11,3 km/h (2 Bft)
19.10.2016 18:51 6,8 °C 6,8 °C 85 % 1016,4 hPa 0,0 mm 8,8 km/h (2 Bft) S 185 ° 0 min 0,000 mm 0,0 UV-I 0 W/m² 4,5 °C 12,9 km/h (3 Bft)
19.10.2016 18:52 6,8 °C 6,8 °C 85 % 1016,4 hPa 0,0 mm 5,3 km/h (1 Bft) SW 217 ° 0 min 0,000 mm 0,0 UV-I 0 W/m² 4,5 °C 8,0 km/h (2 Bft)
19.10.2016 18:53 6,8 °C 6,8 °C 85 % 1016,4 hPa 0,0 mm 4,0 km/h (1 Bft) W-SW 245 ° 0 min 0,000 mm 0,0 UV-I 0 W/m² 4,5 °C 6,4 km/h (2 Bft)
19.10.2016 18:54 6,8 °C 6,8 °C 85 % 1016,4 hPa 0,0 mm 3,6 km/h (1 Bft) W 270 ° 0 min 0,000 mm 0,0 UV-I 0 W/m² 4,5 °C 6,4 km/h (2 Bft)
19.10.2016 18:55 6,8 °C 6,8 °C 85 % 1016,4 hPa 0,0 mm 3,4 km/h (1 Bft) SW 227 ° 0 min 0,000 mm 0,0 UV-I 0 W/m² 4,5 °C 6,4 km/h (2 Bft)
19.10.2016 18:56 6,8 °C 6,8 °C 85 % 1016,4 hPa 0,0 mm 2,6 km/h (1 Bft) SW 234 ° 0 min 0,000 mm 0,0 UV-I 0 W/m² 4,5 °C 3,2 km/h (1 Bft)
19.10.2016 18:57 6,8 °C 6,8 °C 85 % 1016,4 hPa 0,0 mm 3,8 km/h (1 Bft) S-SW 210 ° 0 min 0,000 mm 0,0 UV-I 0 W/m² 4,5 °C 6,4 km/h (2 Bft)
19.10.2016 18:58 6,8 °C 6,8 °C 85 % 1016,4 hPa 0,0 mm 5,0 km/h (1 Bft) W-SW 241 ° 0 min 0,000 mm 0,0 UV-I 0 W/m² 4,5 °C 11,3 km/h (2 Bft)
19.10.2016 18:59 6,8 °C 6,8 °C 85 % 1016,4 hPa 0,0 mm 4,2 km/h (1 Bft) W-SW 239 ° 0 min 0,000 mm 0,0 UV-I 0 W/m² 4,5 °C 11,3 km/h (2 Bft)
19.10.2016 19:00 6,8 °C 6,8 °C 85 % 1016,4 hPa 0,0 mm 4,6 km/h (1 Bft) W-SW 248 ° 0 min 0,000 mm 0,0 UV-I 0 W/m² 4,5 °C 11,3 km/h (2 Bft)
19.10.2016 19:01 6,8 °C 6,8 °C 85 % 1016,4 hPa 0,0 mm 4,4 km/h (1 Bft) SW 233 ° 0 min 0,000 mm 0,0 UV-I 0 W/m² 4,5 °C 9,7 km/h (2 Bft)
19.10.2016 19:02 6,8 °C 6,8 °C 85 % 1016,4 hPa 0,0 mm 5,9 km/h (2 Bft) W 268 ° 0 min 0,000 mm 0,0 UV-I 0 W/m² 4,5 °C 12,9 km/h (3 Bft)
19.10.2016 19:03 6,8 °C 6,8 °C 85 % 1016,4 hPa 0,0 mm 4,6 km/h (1 Bft) W-SW 242 ° 0 min 0,000 mm 0,0 UV-I 0 W/m² 4,5 °C 14,5 km/h (3 Bft)
19.10.2016 19:04 6,8 °C 6,8 °C 85 % 1016,4 hPa 0,0 mm 8,0 km/h (2 Bft) W-SW 240 ° 0 min 0,000 mm 0,0 UV-I 0 W/m² 4,5 °C 14,5 km/h (3 Bft)
19.10.2016 19:05 6,8 °C 6,8 °C 85 % 1016,5 hPa 0,0 mm 7,2 km/h (2 Bft) W-SW 250 ° 0 min 0,000 mm 0,0 UV-I 0 W/m² 4,5 °C 12,9 km/h (3 Bft)
19.10.2016 19:06 6,8 °C 6,8 °C 85 % 1016,5 hPa 0,0 mm 2,7 km/h (1 Bft) SW 224 ° 0 min 0,000 mm 0,0 UV-I 0 W/m² 4,5 °C 6,4 km/h (2 Bft)
19.10.2016 19:07 6,8 °C 6,8 °C 85 % 1016,5 hPa 0,0 mm 3,8 km/h (1 Bft) S-SW 207 ° 0 min 0,000 mm 0,0 UV-I 0 W/m² 4,5 °C 6,4 km/h (2 Bft)
19.10.2016 19:08 6,8 °C 6,8 °C 85 % 1016,5 hPa 0,0 mm 2,7 km/h (1 Bft) SW 229 ° 0 min 0,000 mm 0,0 UV-I 0 W/m² 4,5 °C 4,8 km/h (1 Bft)
19.10.2016 19:09 6,8 °C 6,8 °C 85 % 1016,6 hPa 0,0 mm 4,0 km/h (1 Bft) W-SW 248 ° 0 min 0,000 mm 0,0 UV-I 0 W/m² 4,5 °C 6,4 km/h (2 Bft)
19.10.2016 19:10 6,7 °C 6,8 °C 85 % 1016,6 hPa 0,0 mm 3,9 km/h (1 Bft) W-SW 250 ° 0 min 0,000 mm 0,0 UV-I 0 W/m² 4,4 °C 6,4 km/h (2 Bft)
19.10.2016 19:11 6,7 °C 6,8 °C 85 % 1016,6 hPa 0,0 mm 2,5 km/h (1 Bft) W-SW 252 ° 0 min 0,000 mm 0,0 UV-I 0 W/m² 4,4 °C 4,8 km/h (1 Bft)
19.10.2016 19:12 6,7 °C 6,7 °C 85 % 1016,6 hPa 0,0 mm 3,2 km/h (1 Bft) W-SW 257 ° 0 min 0,000 mm 0,0 UV-I 0 W/m² 4,4 °C 6,4 km/h (2 Bft)
19.10.2016 19:13 6,7 °C 6,7 °C 86 % 1016,6 hPa 0,0 mm 2,2 km/h (1 Bft) W-SW 257 ° 0 min 0,000 mm 0,0 UV-I 0 W/m² 4,5 °C 4,8 km/h (1 Bft)
19.10.2016 19:14 6,7 °C 6,7 °C 86 % 1016,6 hPa 0,0 mm 6,2 km/h (2 Bft) W-SW 254 ° 0 min 0,000 mm 0,0 UV-I 0 W/m² 4,5 °C 11,3 km/h (2 Bft)
19.10.2016 19:15 6,7 °C 6,7 °C 86 % 1016,5 hPa 0,0 mm 6,1 km/h (2 Bft) W 261 ° 0 min 0,000 mm 0,0 UV-I 0 W/m² 4,5 °C 11,3 km/h (2 Bft)
19.10.2016 19:16 6,7 °C 6,7 °C 86 % 1016,6 hPa 0,0 mm 3,1 km/h (1 Bft) W 259 ° 0 min 0,000 mm 0,0 UV-I 0 W/m² 4,5 °C 4,8 km/h (1 Bft)
19.10.2016 19:17 6,7 °C 6,7 °C 85 % 1016,6 hPa 0,0 mm 7,0 km/h (2 Bft) W-NW 297 ° 0 min 0,000 mm 0,0 UV-I 0 W/m² 4,4 °C 12,9 km/h (3 Bft)
19.10.2016 19:18 6,6 °C 6,7 °C 86 % 1016,5 hPa 0,0 mm 11,6 km/h (2 Bft) W 271 ° 0 min 0,000 mm 0,0 UV-I 0 W/m² 4,4 °C 22,5 km/h (4 Bft)
19.10.2016 19:19 6,6 °C 6,6 °C 85 % 1016,6 hPa 0,0 mm 7,7 km/h (2 Bft) SW 234 ° 0 min 0,000 mm 0,0 UV-I 0 W/m² 4,3 °C 16,1 km/h (3 Bft)
19.10.2016 19:20 6,6 °C 6,6 °C 85 % 1016,6 hPa 0,0 mm 4,4 km/h (1 Bft) W 263 ° 0 min 0,000 mm 0,0 UV-I 0 W/m² 4,3 °C 6,4 km/h (2 Bft)
19.10.2016 19:21 6,6 °C 6,6 °C 85 % 1016,6 hPa 0,0 mm 8,0 km/h (2 Bft) S-SO 156 ° 0 min 0,000 mm 0,0 UV-I 0 W/m² 4,3 °C 16,1 km/h (3 Bft)
19.10.2016 19:22 6,7 °C 6,7 °C 85 % 1016,5 hPa 0,0 mm 5,3 km/h (1 Bft) W-NW 298 ° 0 min 0,000 mm 0,0 UV-I 0 W/m² 4,4 °C 9,7 km/h (2 Bft)
19.10.2016 19:23 6,7 °C 6,7 °C 85 % 1016,6 hPa 0,0 mm 11,7 km/h (2 Bft) W 281 ° 0 min 0,000 mm 0,0 UV-I 0 W/m² 4,4 °C 16,1 km/h (3 Bft)
19.10.2016 19:24 6,7 °C 6,8 °C 85 % 1016,6 hPa 0,0 mm 6,4 km/h (2 Bft) W 281 ° 0 min 0,000 mm 0,0 UV-I 0 W/m² 4,4 °C 11,3 km/h (2 Bft)
19.10.2016 19:25 6,8 °C 6,8 °C 85 % 1016,6 hPa 0,0 mm 4,0 km/h (1 Bft) W 278 ° 0 min 0,000 mm 0,0 UV-I 0 W/m² 4,5 °C 6,4 km/h (2 Bft)
19.10.2016 19:26 6,7 °C 6,8 °C 84 % 1016,6 hPa 0,0 mm 2,5 km/h (1 Bft) W-NW 291 ° 0 min 0,000 mm 0,0 UV-I 0 W/m² 4,2 °C 4,8 km/h (1 Bft)
19.10.2016 19:27 6,7 °C 6,7 °C 85 % 1016,6 hPa 0,0 mm 3,8 km/h (1 Bft) W 273 ° 0 min 0,000 mm 0,0 UV-I 0 W/m² 4,4 °C 6,4 km/h (2 Bft)
19.10.2016 19:28 6,7 °C 6,7 °C 85 % 1016,6 hPa 0,0 mm 3,3 km/h (1 Bft) W-NW 283 ° 0 min 0,000 mm 0,0 UV-I 0 W/m² 4,4 °C 6,4 km/h (2 Bft)
19.10.2016 19:29 6,7 °C 6,7 °C 85 % 1016,5 hPa 0,0 mm 9,2 km/h (2 Bft) W-SW 241 ° 0 min 0,000 mm 0,0 UV-I 0 W/m² 4,4 °C 12,9 km/h (3 Bft)
19.10.2016 19:30 6,7 °C 6,7 °C 85 % 1016,6 hPa 0,0 mm 7,4 km/h (2 Bft) W-SW 238 ° 0 min 0,000 mm 0,0 UV-I 0 W/m² 4,4 °C 16,1 km/h (3 Bft)
19.10.2016 19:31 6,7 °C 6,7 °C 85 % 1016,5 hPa 0,0 mm 9,3 km/h (2 Bft) W 272 ° 0 min 0,000 mm 0,0 UV-I 0 W/m² 4,4 °C 14,5 km/h (3 Bft)
19.10.2016 19:32 6,7 °C 6,7 °C 85 % 1016,6 hPa 0,0 mm 9,1 km/h (2 Bft) W-SW 248 ° 0 min 0,000 mm 0,0 UV-I 0 W/m² 4,4 °C 14,5 km/h (3 Bft)
19.10.2016 19:33 6,7 °C 6,7 °C 85 % 1016,6 hPa 0,0 mm 10,3 km/h (2 Bft) W 262 ° 0 min 0,000 mm 0,0 UV-I 0 W/m² 4,4 °C 14,5 km/h (3 Bft)
19.10.2016 19:34 6,7 °C 6,7 °C 85 % 1016,6 hPa 0,0 mm 7,9 km/h (2 Bft) W-SW 246 ° 0 min 0,000 mm 0,0 UV-I 0 W/m² 4,4 °C 11,3 km/h (2 Bft)
19.10.2016 19:35 6,8 °C 6,8 °C 85 % 1016,6 hPa 0,0 mm 8,8 km/h (2 Bft) W 262 ° 0 min 0,000 mm 0,0 UV-I 0 W/m² 4,5 °C 14,5 km/h (3 Bft)
19.10.2016 19:36 6,8 °C 6,8 °C 85 % 1016,6 hPa 0,0 mm 6,6 km/h (2 Bft) W 270 ° 0 min 0,000 mm 0,0 UV-I 0 W/m² 4,5 °C 11,3 km/h (2 Bft)
19.10.2016 19:37 6,8 °C 6,8 °C 85 % 1016,6 hPa 0,0 mm 7,5 km/h (2 Bft) W-NW 296 ° 0 min 0,000 mm 0,0 UV-I 0 W/m² 4,5 °C 11,3 km/h (2 Bft)
19.10.2016 19:38 6,8 °C 6,8 °C 84 % 1016,6 hPa 0,0 mm 10,4 km/h (2 Bft) W 261 ° 0 min 0,000 mm 0,0 UV-I 0 W/m² 4,3 °C 14,5 km/h (3 Bft)
19.10.2016 19:39 6,8 °C 6,8 °C 84 % 1016,6 hPa 0,0 mm 10,6 km/h (2 Bft) W-SW 256 ° 0 min 0,000 mm 0,0 UV-I 0 W/m² 4,3 °C 14,5 km/h (3 Bft)
19.10.2016 19:40 6,8 °C 6,8 °C 84 % 1016,6 hPa 0,0 mm 13,0 km/h (3 Bft) W 269 ° 0 min 0,000 mm 0,0 UV-I 0 W/m² 4,3 °C 20,9 km/h (4 Bft)
19.10.2016 19:41 6,8 °C 6,8 °C 84 % 1016,7 hPa 0,0 mm 10,7 km/h (2 Bft) W-NW 294 ° 0 min 0,000 mm 0,0 UV-I 0 W/m² 4,3 °C 16,1 km/h (3 Bft)
19.10.2016 19:42 6,8 °C 6,8 °C 84 % 1016,7 hPa 0,0 mm 5,8 km/h (2 Bft) W 281 ° 0 min 0,000 mm 0,0 UV-I 0 W/m² 4,3 °C 12,9 km/h (3 Bft)
19.10.2016 19:43 6,8 °C 6,8 °C 84 % 1016,6 hPa 0,0 mm 6,4 km/h (2 Bft) W 272 ° 0 min 0,000 mm 0,0 UV-I 0 W/m² 4,3 °C 9,7 km/h (2 Bft)
19.10.2016 19:44 6,8 °C 6,9 °C 84 % 1016,7 hPa 0,0 mm 11,7 km/h (2 Bft) W-NW 290 ° 0 min 0,000 mm 0,0 UV-I 0 W/m² 4,3 °C 16,1 km/h (3 Bft)
19.10.2016 19:45 6,9 °C 6,9 °C 84 % 1016,7 hPa 0,0 mm 7,8 km/h (2 Bft) W 275 ° 0 min 0,000 mm 0,0 UV-I 0 W/m² 4,4 °C 14,5 km/h (3 Bft)
19.10.2016 19:46 6,9 °C 6,9 °C 84 % 1016,6 hPa 0,0 mm 11,3 km/h (2 Bft) W 261 ° 0 min 0,000 mm 0,0 UV-I 0 W/m² 4,4 °C 19,3 km/h (3 Bft)
19.10.2016 19:47 6,9 °C 6,9 °C 84 % 1016,7 hPa 0,0 mm 8,2 km/h (2 Bft) W-SW 248 ° 0 min 0,000 mm 0,0 UV-I 0 W/m² 4,4 °C 14,5 km/h (3 Bft)
19.10.2016 19:48 6,9 °C 6,9 °C 84 % 1016,7 hPa 0,0 mm 10,3 km/h (2 Bft) W-NW 300 ° 0 min 0,000 mm 0,0 UV-I 0 W/m² 4,4 °C 14,5 km/h (3 Bft)
19.10.2016 19:49 6,9 °C 6,9 °C 84 % 1016,6 hPa 0,0 mm 10,2 km/h (2 Bft) W-SW 249 ° 0 min 0,000 mm 0,0 UV-I 0 W/m² 4,4 °C 12,9 km/h (3 Bft)
19.10.2016 19:50 6,9 °C 6,9 °C 84 % 1016,7 hPa 0,0 mm 7,6 km/h (2 Bft) W 277 ° 0 min 0,000 mm 0,0 UV-I 0 W/m² 4,4 °C 11,3 km/h (2 Bft)
19.10.2016 19:51 6,9 °C 6,9 °C 83 % 1016,7 hPa 0,0 mm 9,4 km/h (2 Bft) W 269 ° 0 min 0,000 mm 0,0 UV-I 0 W/m² 4,2 °C 19,3 km/h (3 Bft)
19.10.2016 19:52 6,9 °C 6,9 °C 83 % 1016,7 hPa 0,0 mm 7,1 km/h (2 Bft) SW 232 ° 0 min 0,000 mm 0,0 UV-I 0 W/m² 4,2 °C 17,7 km/h (3 Bft)
19.10.2016 19:53 6,9 °C 6,9 °C 83 % 1016,7 hPa 0,0 mm 10,3 km/h (2 Bft) W 275 ° 0 min 0,000 mm 0,0 UV-I 0 W/m² 4,2 °C 22,5 km/h (4 Bft)
19.10.2016 19:54 6,9 °C 6,9 °C 83 % 1016,6 hPa 0,0 mm 9,4 km/h (2 Bft) W 263 ° 0 min 0,000 mm 0,0 UV-I 0 W/m² 4,2 °C 16,1 km/h (3 Bft)
19.10.2016 19:55 6,9 °C 6,9 °C 83 % 1016,6 hPa 0,0 mm 9,1 km/h (2 Bft) W 269 ° 0 min 0,000 mm 0,0 UV-I 0 W/m² 4,2 °C 14,5 km/h (3 Bft)
19.10.2016 19:56 6,9 °C 6,9 °C 83 % 1016,6 hPa 0,0 mm 10,2 km/h (2 Bft) W 269 ° 0 min 0,000 mm 0,0 UV-I 0 W/m² 4,2 °C 16,1 km/h (3 Bft)
19.10.2016 19:57 6,9 °C 6,9 °C 83 % 1016,6 hPa 0,0 mm 7,3 km/h (2 Bft) W-SW 249 ° 0 min 0,000 mm 0,0 UV-I 0 W/m² 4,2 °C 12,9 km/h (3 Bft)
19.10.2016 19:58 6,9 °C 6,9 °C 83 % 1016,6 hPa 0,0 mm 14,3 km/h (3 Bft) W 259 ° 0 min 0,000 mm 0,0 UV-I 0 W/m² 4,2 °C 20,9 km/h (4 Bft)
19.10.2016 19:59 6,9 °C 6,9 °C 83 % 1016,6 hPa 0,0 mm 8,9 km/h (2 Bft) W-NW 285 ° 0 min 0,000 mm 0,0 UV-I 0 W/m² 4,2 °C 14,5 km/h (3 Bft)
19.10.2016 20:00 6,9 °C 6,9 °C 83 % 1016,7 hPa 0,0 mm 7,0 km/h (2 Bft) W 262 ° 0 min 0,000 mm 0,0 UV-I 0 W/m² 4,2 °C 11,3 km/h (2 Bft)
19.10.2016 20:01 6,9 °C 6,9 °C 83 % 1016,6 hPa 0,0 mm 6,0 km/h (2 Bft) W-SW 243 ° 0 min 0,025 mm 0,0 UV-I 0 W/m² 4,2 °C 9,7 km/h (2 Bft)
19.10.2016 20:02 6,9 °C 6,9 °C 83 % 1016,6 hPa 0,0 mm 9,3 km/h (2 Bft) W-NW 296 ° 0 min 0,001 mm 0,0 UV-I 0 W/m² 4,2 °C 16,1 km/h (3 Bft)
19.10.2016 20:03 6,9 °C 6,9 °C 82 % 1016,6 hPa 0,0 mm 11,3 km/h (2 Bft) W 272 ° 0 min 0,000 mm 0,0 UV-I 0 W/m² 4,0 °C 19,3 km/h (3 Bft)
19.10.2016 20:04 6,9 °C 6,9 °C 82 % 1016,6 hPa 0,0 mm 11,2 km/h (2 Bft) W 277 ° 0 min 0,000 mm 0,0 UV-I 0 W/m² 4,0 °C 17,7 km/h (3 Bft)
19.10.2016 20:05 6,9 °C 6,9 °C 82 % 1016,6 hPa 0,0 mm 17,6 km/h (3 Bft) NW 309 ° 0 min 0,000 mm 0,0 UV-I 0 W/m² 4,0 °C 22,5 km/h (4 Bft)
19.10.2016 20:06 6,9 °C 6,9 °C 82 % 1016,7 hPa 0,0 mm 13,9 km/h (3 Bft) W 281 ° 0 min 0,000 mm 0,0 UV-I 0 W/m² 4,0 °C 22,5 km/h (4 Bft)
19.10.2016 20:07 7,0 °C 7,0 °C 82 % 1016,6 hPa 0,0 mm 10,9 km/h (2 Bft) W-NW 286 ° 0 min 0,000 mm 0,0 UV-I 0 W/m² 4,1 °C 16,1 km/h (3 Bft)
19.10.2016 20:08 6,9 °C 7,0 °C 82 % 1016,5 hPa 0,0 mm 13,9 km/h (3 Bft) W-SW 254 ° 0 min 0,000 mm 0,0 UV-I 0 W/m² 4,0 °C 22,5 km/h (4 Bft)
19.10.2016 20:09 6,9 °C 7,0 °C 82 % 1016,6 hPa 0,0 mm 10,7 km/h (2 Bft) W 279 ° 0 min 0,000 mm 0,0 UV-I 0 W/m² 4,0 °C 16,1 km/h (3 Bft)
19.10.2016 20:10 7,0 °C 7,0 °C 82 % 1016,6 hPa 0,0 mm 10,1 km/h (2 Bft) W 269 ° 0 min 0,000 mm 0,0 UV-I 0 W/m² 4,1 °C 24,1 km/h (4 Bft)
19.10.2016 20:11 6,9 °C 7,0 °C 82 % 1016,6 hPa 0,0 mm 8,5 km/h (2 Bft) W 266 ° 0 min 0,000 mm 0,0 UV-I 0 W/m² 4,0 °C 14,5 km/h (3 Bft)
19.10.2016 20:12 6,9 °C 7,0 °C 82 % 1016,5 hPa 0,0 mm 12,0 km/h (2 Bft) W-SW 242 ° 0 min 0,000 mm 0,0 UV-I 0 W/m² 4,0 °C 17,7 km/h (3 Bft)
19.10.2016 20:13 6,9 °C 7,0 °C 82 % 1016,5 hPa 0,0 mm 12,5 km/h (3 Bft) W-SW 254 ° 0 min 0,000 mm 0,0 UV-I 0 W/m² 4,0 °C 17,7 km/h (3 Bft)
19.10.2016 20:14 6,9 °C 7,0 °C 82 % 1016,5 hPa 0,0 mm 10,1 km/h (2 Bft) W-NW 303 ° 0 min 0,000 mm 0,0 UV-I 0 W/m² 4,0 °C 19,3 km/h (3 Bft)
19.10.2016 20:15 6,9 °C 7,0 °C 82 % 1016,5 hPa 0,0 mm 7,8 km/h (2 Bft) W-NW 284 ° 0 min 0,000 mm 0,0 UV-I 0 W/m² 4,0 °C 11,3 km/h (2 Bft)
19.10.2016 20:16 7,0 °C 7,0 °C 82 % 1016,5 hPa 0,0 mm 11,7 km/h (2 Bft) W 267 ° 0 min 0,000 mm 0,0 UV-I 0 W/m² 4,1 °C 20,9 km/h (4 Bft)
19.10.2016 20:17 7,0 °C 7,0 °C 82 % 1016,5 hPa 0,0 mm 6,2 km/h (2 Bft) W-NW 300 ° 0 min 0,000 mm 0,0 UV-I 0 W/m² 4,1 °C 11,3 km/h (2 Bft)
19.10.2016 20:18 7,0 °C 7,0 °C 82 % 1016,5 hPa 0,0 mm 6,6 km/h (2 Bft) W-NW 292 ° 0 min 0,000 mm 0,0 UV-I 0 W/m² 4,1 °C 9,7 km/h (2 Bft)
19.10.2016 20:19 7,0 °C 7,0 °C 82 % 1016,5 hPa 0,0 mm 9,7 km/h (2 Bft) W-SW 248 ° 0 min 0,000 mm 0,0 UV-I 0 W/m² 4,1 °C 12,9 km/h (3 Bft)
19.10.2016 20:20 7,0 °C 7,0 °C 83 % 1016,4 hPa 0,0 mm 8,9 km/h (2 Bft) W 261 ° 0 min 0,000 mm 0,0 UV-I 0 W/m² 4,3 °C 11,3 km/h (2 Bft)
19.10.2016 20:21 6,9 °C 7,0 °C 83 % 1016,5 hPa 0,0 mm 6,6 km/h (2 Bft) W-SW 250 ° 0 min 0,000 mm 0,0 UV-I 0 W/m² 4,2 °C 11,3 km/h (2 Bft)
19.10.2016 20:22 7,0 °C 7,0 °C 82 % 1016,5 hPa 0,0 mm 13,4 km/h (3 Bft) SW 236 ° 0 min 0,000 mm 0,0 UV-I 0 W/m² 4,1 °C 17,7 km/h (3 Bft)
19.10.2016 20:23 7,0 °C 7,0 °C 82 % 1016,5 hPa 0,0 mm 14,1 km/h (3 Bft) W 271 ° 0 min 0,000 mm 0,0 UV-I 0 W/m² 4,1 °C 19,3 km/h (3 Bft)
19.10.2016 20:24 6,9 °C 7,0 °C 82 % 1016,5 hPa 0,0 mm 6,8 km/h (2 Bft) W-SW 249 ° 0 min 0,000 mm 0,0 UV-I 0 W/m² 4,0 °C 12,9 km/h (3 Bft)
19.10.2016 20:25 7,0 °C 7,0 °C 82 % 1016,5 hPa 0,0 mm 10,3 km/h (2 Bft) W-NW 295 ° 0 min 0,000 mm 0,0 UV-I 0 W/m² 4,1 °C 14,5 km/h (3 Bft)
19.10.2016 20:26 7,0 °C 7,0 °C 82 % 1016,5 hPa 0,0 mm 7,2 km/h (2 Bft) W-NW 284 ° 0 min 0,000 mm 0,0 UV-I 0 W/m² 4,1 °C 12,9 km/h (3 Bft)
19.10.2016 20:27 7,0 °C 7,1 °C 82 % 1016,4 hPa 0,0 mm 6,3 km/h (2 Bft) W-SW 237 ° 0 min 0,000 mm 0,0 UV-I 0 W/m² 4,1 °C 12,9 km/h (3 Bft)
19.10.2016 20:28 7,0 °C 7,0 °C 82 % 1016,4 hPa 0,0 mm 9,7 km/h (2 Bft) W-NW 288 ° 0 min 0,000 mm 0,0 UV-I 0 W/m² 4,1 °C 16,1 km/h (3 Bft)
19.10.2016 20:29 7,0 °C 7,0 °C 82 % 1016,5 hPa 0,0 mm 6,9 km/h (2 Bft) W-NW 289 ° 0 min 0,000 mm 0,0 UV-I 0 W/m² 4,1 °C 11,3 km/h (2 Bft)
19.10.2016 20:30 7,0 °C 7,0 °C 82 % 1016,5 hPa 0,0 mm 5,0 km/h (1 Bft) W 267 ° 0 min 0,000 mm 0,0 UV-I 0 W/m² 4,1 °C 12,9 km/h (3 Bft)
19.10.2016 20:31 6,9 °C 7,0 °C 83 % 1016,4 hPa 0,0 mm 9,6 km/h (2 Bft) W 268 ° 0 min 0,000 mm 0,0 UV-I 0 W/m² 4,2 °C 14,5 km/h (3 Bft)
19.10.2016 20:32 6,9 °C 6,9 °C 82 % 1016,4 hPa 0,0 mm 10,9 km/h (2 Bft) W 260 ° 0 min 0,000 mm 0,0 UV-I 0 W/m² 4,0 °C 16,1 km/h (3 Bft)
19.10.2016 20:33 6,9 °C 6,9 °C 82 % 1016,4 hPa 0,0 mm 10,6 km/h (2 Bft) W 263 ° 0 min 0,000 mm 0,0 UV-I 0 W/m² 4,0 °C 14,5 km/h (3 Bft)
19.10.2016 20:34 6,9 °C 6,9 °C 82 % 1016,4 hPa 0,0 mm 10,7 km/h (2 Bft) W-NW 285 ° 0 min 0,000 mm 0,0 UV-I 0 W/m² 4,0 °C 12,9 km/h (3 Bft)
19.10.2016 20:35 6,9 °C 6,9 °C 82 % 1016,4 hPa 0,0 mm 12,0 km/h (2 Bft) NW 309 ° 0 min 0,000 mm 0,0 UV-I 0 W/m² 4,0 °C 19,3 km/h (3 Bft)
19.10.2016 20:36 6,9 °C 6,9 °C 82 % 1016,4 hPa 0,0 mm 6,0 km/h (2 Bft) W-NW 288 ° 0 min 0,000 mm 0,0 UV-I 0 W/m² 4,0 °C 12,9 km/h (3 Bft)
19.10.2016 20:37 6,9 °C 6,9 °C 82 % 1016,4 hPa 0,0 mm 8,8 km/h (2 Bft) SW 225 ° 0 min 0,000 mm 0,0 UV-I 0 W/m² 4,0 °C 19,3 km/h (3 Bft)
19.10.2016 20:38 6,9 °C 6,9 °C 82 % 1016,4 hPa 0,0 mm 13,3 km/h (3 Bft) W 268 ° 0 min 0,000 mm 0,0 UV-I 0 W/m² 4,0 °C 25,7 km/h (4 Bft)
19.10.2016 20:39 6,9 °C 6,9 °C 81 % 1016,4 hPa 0,0 mm 14,3 km/h (3 Bft) W-SW 244 ° 0 min 0,000 mm 0,0 UV-I 0 W/m² 3,9 °C 22,5 km/h (4 Bft)
19.10.2016 20:40 6,9 °C 6,9 °C 81 % 1016,4 hPa 0,0 mm 4,7 km/h (1 Bft) W 269 ° 0 min 0,000 mm 0,0 UV-I 0 W/m² 3,9 °C 9,7 km/h (2 Bft)
19.10.2016 20:41 6,9 °C 6,9 °C 81 % 1016,4 hPa 0,0 mm 9,6 km/h (2 Bft) W 260 ° 0 min 0,000 mm 0,0 UV-I 0 W/m² 3,9 °C 12,9 km/h (3 Bft)
19.10.2016 20:42 6,9 °C 6,9 °C 82 % 1016,5 hPa 0,0 mm 8,3 km/h (2 Bft) SW 236 ° 0 min 0,000 mm 0,0 UV-I 0 W/m² 4,0 °C 14,5 km/h (3 Bft)
19.10.2016 20:43 6,9 °C 6,9 °C 81 % 1016,4 hPa 0,0 mm 10,4 km/h (2 Bft) W-SW 257 ° 0 min 0,000 mm 0,0 UV-I 0 W/m² 3,9 °C 14,5 km/h (3 Bft)
19.10.2016 20:44 6,9 °C 6,9 °C 81 % 1016,4 hPa 0,0 mm 7,5 km/h (2 Bft) W-NW 283 ° 0 min 0,000 mm 0,0 UV-I 0 W/m² 3,9 °C 14,5 km/h (3 Bft)
19.10.2016 20:45 6,9 °C 6,9 °C 81 % 1016,5 hPa 0,0 mm 4,5 km/h (1 Bft) W-NW 289 ° 0 min 0,000 mm 0,0 UV-I 0 W/m² 3,9 °C 6,4 km/h (2 Bft)
19.10.2016 20:46 6,9 °C 6,9 °C 81 % 1016,5 hPa 0,0 mm 5,8 km/h (2 Bft) SW 229 ° 0 min 0,000 mm 0,0 UV-I 0 W/m² 3,9 °C 14,5 km/h (3 Bft)
19.10.2016 20:47 6,9 °C 6,9 °C 81 % 1016,3 hPa 0,0 mm 7,4 km/h (2 Bft) W-NW 292 ° 0 min 0,000 mm 0,0 UV-I 0 W/m² 3,9 °C 12,9 km/h (3 Bft)
19.10.2016 20:48 6,9 °C 6,9 °C 81 % 1016,3 hPa 0,0 mm 4,1 km/h (1 Bft) W 260 ° 0 min 0,000 mm 0,0 UV-I 0 W/m² 3,9 °C 6,4 km/h (2 Bft)
19.10.2016 20:49 6,9 °C 6,9 °C 80 % 1016,3 hPa 0,0 mm 5,6 km/h (1 Bft) SW 223 ° 0 min 0,000 mm 0,0 UV-I 0 W/m² 3,7 °C 11,3 km/h (2 Bft)
19.10.2016 20:50 6,9 °C 6,9 °C 80 % 1016,3 hPa 0,0 mm 7,7 km/h (2 Bft) W-SW 238 ° 0 min 0,000 mm 0,0 UV-I 0 W/m² 3,7 °C 14,5 km/h (3 Bft)
19.10.2016 20:51 6,9 °C 6,9 °C 80 % 1016,3 hPa 0,0 mm 4,2 km/h (1 Bft) SW 221 ° 0 min 0,000 mm 0,0 UV-I 0 W/m² 3,7 °C 6,4 km/h (2 Bft)
19.10.2016 20:52 6,9 °C 6,9 °C 80 % 1016,4 hPa 0,0 mm 9,8 km/h (2 Bft) W-SW 254 ° 0 min 0,000 mm 0,0 UV-I 0 W/m² 3,7 °C 17,7 km/h (3 Bft)
19.10.2016 20:53 6,9 °C 6,9 °C 80 % 1016,3 hPa 0,0 mm 9,5 km/h (2 Bft) W-NW 288 ° 0 min 0,000 mm 0,0 UV-I 0 W/m² 3,7 °C 14,5 km/h (3 Bft)
19.10.2016 20:54 6,9 °C 6,9 °C 80 % 1016,3 hPa 0,0 mm 8,6 km/h (2 Bft) W-SW 256 ° 0 min 0,000 mm 0,0 UV-I 0 W/m² 3,7 °C 12,9 km/h (3 Bft)
19.10.2016 20:55 7,0 °C 7,0 °C 80 % 1016,4 hPa 0,0 mm 4,7 km/h (1 Bft) W-NW 287 ° 0 min 0,000 mm 0,0 UV-I 0 W/m² 3,8 °C 6,4 km/h (2 Bft)
19.10.2016 20:56 7,0 °C 7,0 °C 80 % 1016,3 hPa 0,0 mm 9,0 km/h (2 Bft) SW 227 ° 0 min 0,000 mm 0,0 UV-I 0 W/m² 3,8 °C 12,9 km/h (3 Bft)
19.10.2016 20:57 7,0 °C 7,0 °C 79 % 1016,3 hPa 0,0 mm 8,9 km/h (2 Bft) W 273 ° 0 min 0,000 mm 0,0 UV-I 0 W/m² 3,6 °C 12,9 km/h (3 Bft)
19.10.2016 20:58 7,0 °C 7,0 °C 79 % 1016,3 hPa 0,0 mm 9,3 km/h (2 Bft) SW 229 ° 0 min 0,000 mm 0,0 UV-I 0 W/m² 3,6 °C 12,9 km/h (3 Bft)
19.10.2016 20:59 7,1 °C 7,1 °C 79 % 1016,3 hPa 0,0 mm 8,2 km/h (2 Bft) W-SW 245 ° 0 min 0,000 mm 0,0 UV-I 0 W/m² 3,7 °C 12,9 km/h (3 Bft)
19.10.2016 21:00 7,1 °C 7,1 °C 79 % 1016,3 hPa 0,0 mm 5,5 km/h (1 Bft) W-SW 249 ° 0 min 0,000 mm 0,0 UV-I 0 W/m² 3,7 °C 9,7 km/h (2 Bft)
19.10.2016 21:01 7,1 °C 7,1 °C 80 % 1016,2 hPa 0,0 mm 5,6 km/h (1 Bft) W 277 ° 0 min 0,025 mm 0,0 UV-I 0 W/m² 3,9 °C 12,9 km/h (3 Bft)
19.10.2016 21:02 7,1 °C 7,1 °C 79 % 1016,3 hPa 0,0 mm 6,9 km/h (2 Bft) W 263 ° 0 min 0,000 mm 0,0 UV-I 0 W/m² 3,7 °C 12,9 km/h (3 Bft)
19.10.2016 21:03 7,1 °C 7,1 °C 79 % 1016,3 hPa 0,0 mm 7,8 km/h (2 Bft) W-NW 286 ° 0 min 0,000 mm 0,0 UV-I 0 W/m² 3,7 °C 12,9 km/h (3 Bft)
19.10.2016 21:04 7,1 °C 7,1 °C 79 % 1016,3 hPa 0,0 mm 5,2 km/h (1 Bft) W 281 ° 0 min 0,000 mm 0,0 UV-I 0 W/m² 3,7 °C 6,4 km/h (2 Bft)
19.10.2016 21:05 7,1 °C 7,1 °C 79 % 1016,3 hPa 0,0 mm 4,8 km/h (1 Bft) W-SW 249 ° 0 min 0,000 mm 0,0 UV-I 0 W/m² 3,7 °C 6,4 km/h (2 Bft)
19.10.2016 21:06 7,1 °C 7,1 °C 79 % 1016,3 hPa 0,0 mm 5,5 km/h (1 Bft) W 274 ° 0 min 0,000 mm 0,0 UV-I 0 W/m² 3,7 °C 9,7 km/h (2 Bft)
19.10.2016 21:07 7,1 °C 7,1 °C 79 % 1016,3 hPa 0,0 mm 5,5 km/h (1 Bft) W 272 ° 0 min 0,000 mm 0,0 UV-I 0 W/m² 3,7 °C 9,7 km/h (2 Bft)
19.10.2016 21:08 7,1 °C 7,1 °C 79 % 1016,4 hPa 0,0 mm 5,0 km/h (1 Bft) W-NW 288 ° 0 min 0,000 mm 0,0 UV-I 0 W/m² 3,7 °C 6,4 km/h (2 Bft)
19.10.2016 21:09 7,1 °C 7,1 °C 79 % 1016,3 hPa 0,0 mm 4,8 km/h (1 Bft) W 271 ° 0 min 0,000 mm 0,0 UV-I 0 W/m² 3,7 °C 6,4 km/h (2 Bft)
19.10.2016 21:10 7,1 °C 7,1 °C 79 % 1016,3 hPa 0,0 mm 6,7 km/h (2 Bft) W-NW 300 ° 0 min 0,000 mm 0,0 UV-I 0 W/m² 3,7 °C 11,3 km/h (2 Bft)
19.10.2016 21:11 7,1 °C 7,1 °C 79 % 1016,4 hPa 0,0 mm 7,2 km/h (2 Bft) W-NW 289 ° 0 min 0,000 mm 0,0 UV-I 0 W/m² 3,7 °C 12,9 km/h (3 Bft)
19.10.2016 21:12 7,1 °C 7,1 °C 79 % 1016,3 hPa 0,0 mm 9,2 km/h (2 Bft) W 261 ° 0 min 0,000 mm 0,0 UV-I 0 W/m² 3,7 °C 12,9 km/h (3 Bft)
19.10.2016 21:13 7,1 °C 7,1 °C 79 % 1016,3 hPa 0,0 mm 6,4 km/h (2 Bft) W-SW 247 ° 0 min 0,000 mm 0,0 UV-I 0 W/m² 3,7 °C 11,3 km/h (2 Bft)
19.10.2016 21:14 7,1 °C 7,1 °C 79 % 1016,3 hPa 0,0 mm 8,4 km/h (2 Bft) W-SW 246 ° 0 min 0,000 mm 0,0 UV-I 0 W/m² 3,7 °C 12,9 km/h (3 Bft)
19.10.2016 21:15 7,1 °C 7,1 °C 79 % 1016,3 hPa 0,0 mm 13,0 km/h (3 Bft) SW 233 ° 0 min 0,000 mm 0,0 UV-I 0 W/m² 3,7 °C 16,1 km/h (3 Bft)
19.10.2016 21:16 7,1 °C 7,2 °C 79 % 1016,2 hPa 0,0 mm 7,7 km/h (2 Bft) W 278 ° 0 min 0,000 mm 0,0 UV-I 0 W/m² 3,7 °C 14,5 km/h (3 Bft)
19.10.2016 21:17 7,2 °C 7,2 °C 78 % 1016,3 hPa 0,0 mm 4,4 km/h (1 Bft) W 266 ° 0 min 0,000 mm 0,0 UV-I 0 W/m² 3,6 °C 6,4 km/h (2 Bft)
19.10.2016 21:18 7,2 °C 7,2 °C 79 % 1016,3 hPa 0,0 mm 10,3 km/h (2 Bft) W 260 ° 0 min 0,000 mm 0,0 UV-I 0 W/m² 3,8 °C 17,7 km/h (3 Bft)
19.10.2016 21:19 7,2 °C 7,2 °C 78 % 1016,2 hPa 0,0 mm 10,3 km/h (2 Bft) W 279 ° 0 min 0,000 mm 0,0 UV-I 0 W/m² 3,6 °C 14,5 km/h (3 Bft)
19.10.2016 21:20 7,2 °C 7,2 °C 78 % 1016,3 hPa 0,0 mm 4,6 km/h (1 Bft) W 262 ° 0 min 0,000 mm 0,0 UV-I 0 W/m² 3,6 °C 8,0 km/h (2 Bft)
19.10.2016 21:21 7,2 °C 7,2 °C 79 % 1016,2 hPa 0,0 mm 7,8 km/h (2 Bft) SW 232 ° 0 min 0,000 mm 0,0 UV-I 0 W/m² 3,8 °C 14,5 km/h (3 Bft)
19.10.2016 21:22 7,2 °C 7,2 °C 79 % 1016,2 hPa 0,0 mm 12,8 km/h (3 Bft) NW 323 ° 0 min 0,000 mm 0,0 UV-I 0 W/m² 3,8 °C 19,3 km/h (3 Bft)
19.10.2016 21:23 7,2 °C 7,2 °C 78 % 1016,3 hPa 0,0 mm 11,5 km/h (2 Bft) W 272 ° 0 min 0,000 mm 0,0 UV-I 0 W/m² 3,6 °C 17,7 km/h (3 Bft)
19.10.2016 21:24 7,2 °C 7,2 °C 78 % 1016,2 hPa 0,0 mm 5,9 km/h (2 Bft) W 266 ° 0 min 0,000 mm 0,0 UV-I 0 W/m² 3,6 °C 8,0 km/h (2 Bft)
19.10.2016 21:25 7,2 °C 7,2 °C 78 % 1016,3 hPa 0,0 mm 5,2 km/h (1 Bft) W 261 ° 0 min 0,000 mm 0,0 UV-I 0 W/m² 3,6 °C 11,3 km/h (2 Bft)
19.10.2016 21:26 7,2 °C 7,2 °C 78 % 1016,2 hPa 0,0 mm 5,1 km/h (1 Bft) W-NW 293 ° 0 min 0,000 mm 0,0 UV-I 0 W/m² 3,6 °C 9,7 km/h (2 Bft)
19.10.2016 21:27 7,2 °C 7,2 °C 79 % 1016,3 hPa 0,0 mm 4,6 km/h (1 Bft) W 278 ° 0 min 0,000 mm 0,0 UV-I 0 W/m² 3,8 °C 9,7 km/h (2 Bft)
19.10.2016 21:28 7,2 °C 7,2 °C 79 % 1016,3 hPa 0,0 mm 3,8 km/h (1 Bft) W 261 ° 0 min 0,000 mm 0,0 UV-I 0 W/m² 3,8 °C 4,8 km/h (1 Bft)
19.10.2016 21:29 7,2 °C 7,2 °C 79 % 1016,3 hPa 0,0 mm 2,4 km/h (1 Bft) W 262 ° 0 min 0,000 mm 0,0 UV-I 0 W/m² 3,8 °C 4,8 km/h (1 Bft)
19.10.2016 21:30 7,1 °C 7,2 °C 79 % 1016,2 hPa 0,0 mm 7,4 km/h (2 Bft) W-NW 282 ° 0 min 0,000 mm 0,0 UV-I 0 W/m² 3,7 °C 12,9 km/h (3 Bft)
19.10.2016 21:31 7,2 °C 7,2 °C 78 % 1016,3 hPa 0,0 mm 8,0 km/h (2 Bft) W 266 ° 0 min 0,000 mm 0,0 UV-I 0 W/m² 3,6 °C 12,9 km/h (3 Bft)
19.10.2016 21:32 7,2 °C 7,2 °C 79 % 1016,3 hPa 0,0 mm 10,4 km/h (2 Bft) W 261 ° 0 min 0,000 mm 0,0 UV-I 0 W/m² 3,8 °C 16,1 km/h (3 Bft)
19.10.2016 21:33 7,1 °C 7,2 °C 79 % 1016,3 hPa 0,0 mm 10,3 km/h (2 Bft) NW 306 ° 0 min 0,000 mm 0,0 UV-I 0 W/m² 3,7 °C 14,5 km/h (3 Bft)
19.10.2016 21:34 7,1 °C 7,2 °C 79 % 1016,2 hPa 0,0 mm 8,6 km/h (2 Bft) W 270 ° 0 min 0,000 mm 0,0 UV-I 0 W/m² 3,7 °C 16,1 km/h (3 Bft)
19.10.2016 21:35 7,1 °C 7,1 °C 79 % 1016,3 hPa 0,0 mm 7,2 km/h (2 Bft) W 277 ° 0 min 0,000 mm 0,0 UV-I 0 W/m² 3,7 °C 11,3 km/h (2 Bft)
19.10.2016 21:36 7,1 °C 7,1 °C 79 % 1016,2 hPa 0,0 mm 7,8 km/h (2 Bft) W-SW 251 ° 0 min 0,000 mm 0,0 UV-I 0 W/m² 3,7 °C 19,3 km/h (3 Bft)
19.10.2016 21:37 7,1 °C 7,1 °C 79 % 1016,2 hPa 0,0 mm 7,0 km/h (2 Bft) W-NW 292 ° 0 min 0,000 mm 0,0 UV-I 0 W/m² 3,7 °C 12,9 km/h (3 Bft)
19.10.2016 21:38 7,1 °C 7,1 °C 79 % 1016,3 hPa 0,0 mm 6,6 km/h (2 Bft) W-SW 241 ° 0 min 0,000 mm 0,0 UV-I 0 W/m² 3,7 °C 11,3 km/h (2 Bft)
19.10.2016 21:39 7,2 °C 7,2 °C 79 % 1016,3 hPa 0,0 mm 11,1 km/h (2 Bft) SW 232 ° 0 min 0,000 mm 0,0 UV-I 0 W/m² 3,8 °C 16,1 km/h (3 Bft)
19.10.2016 21:40 7,1 °C 7,2 °C 79 % 1016,3 hPa 0,0 mm 9,5 km/h (2 Bft) NW 307 ° 0 min 0,000 mm 0,0 UV-I 0 W/m² 3,7 °C 14,5 km/h (3 Bft)
19.10.2016 21:41 7,1 °C 7,1 °C 79 % 1016,3 hPa 0,0 mm 8,2 km/h (2 Bft) NW 304 ° 0 min 0,000 mm 0,0 UV-I 0 W/m² 3,7 °C 12,9 km/h (3 Bft)
19.10.2016 21:42 7,1 °C 7,1 °C 79 % 1016,4 hPa 0,0 mm 8,6 km/h (2 Bft) W 279 ° 0 min 0,000 mm 0,0 UV-I 0 W/m² 3,7 °C 12,9 km/h (3 Bft)
19.10.2016 21:43 7,1 °C 7,2 °C 79 % 1016,3 hPa 0,0 mm 6,5 km/h (2 Bft) W 267 ° 0 min 0,000 mm 0,0 UV-I 0 W/m² 3,7 °C 9,7 km/h (2 Bft)
19.10.2016 21:44 7,2 °C 7,2 °C 78 % 1016,4 hPa 0,0 mm 10,8 km/h (2 Bft) W-SW 257 ° 0 min 0,000 mm 0,0 UV-I 0 W/m² 3,6 °C 14,5 km/h (3 Bft)
19.10.2016 21:45 7,2 °C 7,2 °C 79 % 1016,4 hPa 0,0 mm 11,8 km/h (2 Bft) W 273 ° 0 min 0,000 mm 0,0 UV-I 0 W/m² 3,8 °C 14,5 km/h (3 Bft)
19.10.2016 21:46 7,2 °C 7,2 °C 78 % 1016,4 hPa 0,0 mm 8,3 km/h (2 Bft) W-NW 300 ° 0 min 0,000 mm 0,0 UV-I 0 W/m² 3,6 °C 11,3 km/h (2 Bft)
19.10.2016 21:47 7,2 °C 7,2 °C 78 % 1016,4 hPa 0,0 mm 8,2 km/h (2 Bft) W 271 ° 0 min 0,000 mm 0,0 UV-I 0 W/m² 3,6 °C 14,5 km/h (3 Bft)
19.10.2016 21:48 7,2 °C 7,2 °C 79 % 1016,4 hPa 0,0 mm 10,0 km/h (2 Bft) W-NW 284 ° 0 min 0,000 mm 0,0 UV-I 0 W/m² 3,8 °C 14,5 km/h (3 Bft)
19.10.2016 21:49 7,1 °C 7,2 °C 79 % 1016,4 hPa 0,0 mm 11,3 km/h (2 Bft) W 265 ° 0 min 0,000 mm 0,0 UV-I 0 W/m² 3,7 °C 16,1 km/h (3 Bft)
19.10.2016 21:50 7,1 °C 7,2 °C 79 % 1016,4 hPa 0,0 mm 8,6 km/h (2 Bft) W-NW 291 ° 0 min 0,000 mm 0,0 UV-I 0 W/m² 3,7 °C 16,1 km/h (3 Bft)
19.10.2016 21:51 7,1 °C 7,1 °C 79 % 1016,4 hPa 0,0 mm 9,8 km/h (2 Bft) W-NW 290 ° 0 min 0,000 mm 0,0 UV-I 0 W/m² 3,7 °C 12,9 km/h (3 Bft)
19.10.2016 21:52 7,1 °C 7,1 °C 79 % 1016,4 hPa 0,0 mm 8,0 km/h (2 Bft) W 280 ° 0 min 0,000 mm 0,0 UV-I 0 W/m² 3,7 °C 11,3 km/h (2 Bft)
19.10.2016 21:53 7,1 °C 7,1 °C 79 % 1016,4 hPa 0,0 mm 6,3 km/h (2 Bft) W-NW 300 ° 0 min 0,000 mm 0,0 UV-I 0 W/m² 3,7 °C 9,7 km/h (2 Bft)
19.10.2016 21:54 7,1 °C 7,1 °C 79 % 1016,4 hPa 0,0 mm 8,6 km/h (2 Bft) W-SW 245 ° 0 min 0,000 mm 0,0 UV-I 0 W/m² 3,7 °C 12,9 km/h (3 Bft)
19.10.2016 21:55 7,1 °C 7,1 °C 79 % 1016,4 hPa 0,0 mm 7,2 km/h (2 Bft) W-SW 245 ° 0 min 0,000 mm 0,0 UV-I 0 W/m² 3,7 °C 9,7 km/h (2 Bft)
19.10.2016 21:56 7,0 °C 7,1 °C 79 % 1016,4 hPa 0,0 mm 10,5 km/h (2 Bft) W-NW 293 ° 0 min 0,000 mm 0,0 UV-I 0 W/m² 3,6 °C 14,5 km/h (3 Bft)
19.10.2016 21:57 7,0 °C 7,1 °C 80 % 1016,4 hPa 0,0 mm 9,1 km/h (2 Bft) W 269 ° 0 min 0,000 mm 0,0 UV-I 0 W/m² 3,8 °C 14,5 km/h (3 Bft)
19.10.2016 21:58 6,9 °C 7,0 °C 80 % 1016,4 hPa 0,0 mm 9,1 km/h (2 Bft) W 269 ° 0 min 0,000 mm 0,0 UV-I 0 W/m² 3,7 °C 11,3 km/h (2 Bft)
19.10.2016 21:59 6,9 °C 7,0 °C 80 % 1016,4 hPa 0,0 mm 5,8 km/h (2 Bft) W 280 ° 0 min 0,000 mm 0,0 UV-I 0 W/m² 3,7 °C 9,7 km/h (2 Bft)
19.10.2016 22:00 6,9 °C 7,0 °C 80 % 1016,4 hPa 0,0 mm 10,8 km/h (2 Bft) W 274 ° 0 min 0,026 mm 0,0 UV-I 0 W/m² 3,7 °C 17,7 km/h (3 Bft)
19.10.2016 22:01 6,9 °C 6,9 °C 79 % 1016,4 hPa 0,0 mm 9,4 km/h (2 Bft) W 267 ° 0 min 0,000 mm 0,0 UV-I 0 W/m² 3,5 °C 12,9 km/h (3 Bft)
19.10.2016 22:02 6,9 °C 6,9 °C 80 % 1016,5 hPa 0,0 mm 7,6 km/h (2 Bft) W-SW 249 ° 0 min 0,000 mm 0,0 UV-I 0 W/m² 3,7 °C 17,7 km/h (3 Bft)
19.10.2016 22:03 6,9 °C 6,9 °C 80 % 1016,4 hPa 0,0 mm 6,4 km/h (2 Bft) W-NW 290 ° 0 min 0,000 mm 0,0 UV-I 0 W/m² 3,7 °C 12,9 km/h (3 Bft)
19.10.2016 22:04 6,9 °C 6,9 °C 80 % 1016,4 hPa 0,0 mm 7,6 km/h (2 Bft) W 268 ° 0 min 0,000 mm 0,0 UV-I 0 W/m² 3,7 °C 11,3 km/h (2 Bft)
19.10.2016 22:05 6,9 °C 6,9 °C 79 % 1016,4 hPa 0,0 mm 8,6 km/h (2 Bft) W 281 ° 0 min 0,000 mm 0,0 UV-I 0 W/m² 3,5 °C 14,5 km/h (3 Bft)
19.10.2016 22:06 6,9 °C 6,9 °C 80 % 1016,5 hPa 0,0 mm 9,3 km/h (2 Bft) W-SW 256 ° 0 min 0,000 mm 0,0 UV-I 0 W/m² 3,7 °C 14,5 km/h (3 Bft)
19.10.2016 22:07 6,8 °C 6,9 °C 80 % 1016,5 hPa 0,0 mm 6,4 km/h (2 Bft) W 267 ° 0 min 0,000 mm 0,0 UV-I 0 W/m² 3,6 °C 11,3 km/h (2 Bft)
19.10.2016 22:08 6,8 °C 6,9 °C 81 % 1016,5 hPa 0,0 mm 8,2 km/h (2 Bft) W 269 ° 0 min 0,000 mm 0,0 UV-I 0 W/m² 3,8 °C 16,1 km/h (3 Bft)
19.10.2016 22:09 6,8 °C 6,8 °C 81 % 1016,4 hPa 0,0 mm 4,8 km/h (1 Bft) W-NW 283 ° 0 min 0,000 mm 0,0 UV-I 0 W/m² 3,8 °C 6,4 km/h (2 Bft)
19.10.2016 22:10 6,8 °C 6,8 °C 81 % 1016,5 hPa 0,0 mm 3,7 km/h (1 Bft) W-NW 288 ° 0 min 0,000 mm 0,0 UV-I 0 W/m² 3,8 °C 4,8 km/h (1 Bft)
19.10.2016 22:11 6,7 °C 6,8 °C 82 % 1016,5 hPa 0,0 mm 4,3 km/h (1 Bft) W-SW 257 ° 0 min 0,000 mm 0,0 UV-I 0 W/m² 3,8 °C 6,4 km/h (2 Bft)
19.10.2016 22:12 6,6 °C 6,7 °C 82 % 1016,5 hPa 0,0 mm 5,1 km/h (1 Bft) W 271 ° 0 min 0,000 mm 0,0 UV-I 0 W/m² 3,8 °C 9,7 km/h (2 Bft)
19.10.2016 22:13 6,6 °C 6,6 °C 83 % 1016,5 hPa 0,0 mm 6,8 km/h (2 Bft) W-SW 249 ° 0 min 0,000 mm 0,0 UV-I 0 W/m² 3,9 °C 9,7 km/h (2 Bft)
19.10.2016 22:14 6,5 °C 6,6 °C 83 % 1016,4 hPa 0,0 mm 8,0 km/h (2 Bft) W-NW 285 ° 0 min 0,000 mm 0,0 UV-I 0 W/m² 3,8 °C 12,9 km/h (3 Bft)
19.10.2016 22:15 6,4 °C 6,5 °C 83 % 1016,4 hPa 0,0 mm 8,4 km/h (2 Bft) W 262 ° 0 min 0,000 mm 0,0 UV-I 0 W/m² 3,7 °C 14,5 km/h (3 Bft)
19.10.2016 22:16 6,4 °C 6,5 °C 83 % 1016,4 hPa 0,0 mm 7,6 km/h (2 Bft) W-SW 252 ° 0 min 0,000 mm 0,0 UV-I 0 W/m² 3,7 °C 12,9 km/h (3 Bft)
19.10.2016 22:17 6,4 °C 6,4 °C 84 % 1016,4 hPa 0,0 mm 7,4 km/h (2 Bft) W 273 ° 0 min 0,000 mm 0,0 UV-I 0 W/m² 3,9 °C 11,3 km/h (2 Bft)
19.10.2016 22:18 6,3 °C 6,4 °C 84 % 1016,4 hPa 0,0 mm 9,0 km/h (2 Bft) W-SW 257 ° 0 min 0,000 mm 0,0 UV-I 0 W/m² 3,8 °C 14,5 km/h (3 Bft)
19.10.2016 22:19 6,3 °C 6,4 °C 84 % 1016,4 hPa 0,0 mm 5,7 km/h (1 Bft) W 275 ° 0 min 0,000 mm 0,0 UV-I 0 W/m² 3,8 °C 11,3 km/h (2 Bft)
19.10.2016 22:20 6,3 °C 6,3 °C 84 % 1016,4 hPa 0,0 mm 3,9 km/h (1 Bft) SW 226 ° 0 min 0,000 mm 0,0 UV-I 0 W/m² 3,8 °C 4,8 km/h (1 Bft)
19.10.2016 22:21 6,2 °C 6,3 °C 84 % 1016,4 hPa 0,0 mm 2,0 km/h (1 Bft) SW 227 ° 0 min 0,000 mm 0,0 UV-I 0 W/m² 3,7 °C 4,8 km/h (1 Bft)
19.10.2016 22:22 6,2 °C 6,2 °C 84 % 1016,4 hPa 0,0 mm 2,0 km/h (1 Bft) W-SW 238 ° 0 min 0,000 mm 0,0 UV-I 0 W/m² 3,7 °C 4,8 km/h (1 Bft)
19.10.2016 22:23 6,2 °C 6,2 °C 85 % 1016,5 hPa 0,0 mm 2,7 km/h (1 Bft) W-SW 238 ° 0 min 0,000 mm 0,0 UV-I 0 W/m² 3,9 °C 4,8 km/h (1 Bft)
19.10.2016 22:24 6,1 °C 6,2 °C 85 % 1016,5 hPa 0,0 mm 2,7 km/h (1 Bft) SW 234 ° 0 min 0,000 mm 0,0 UV-I 0 W/m² 3,8 °C 4,8 km/h (1 Bft)
19.10.2016 22:25 6,1 °C 6,1 °C 85 % 1016,4 hPa 0,0 mm 1,8 km/h (1 Bft) SW 234 ° 0 min 0,000 mm 0,0 UV-I 0 W/m² 3,8 °C 3,2 km/h (1 Bft)
19.10.2016 22:26 6,1 °C 6,1 °C 86 % 1016,4 hPa 0,0 mm 3,4 km/h (1 Bft) SW 234 ° 0 min 0,000 mm 0,0 UV-I 0 W/m² 3,9 °C 4,8 km/h (1 Bft)
19.10.2016 22:27 5,9 °C 6,1 °C 86 % 1016,4 hPa 0,0 mm 5,2 km/h (1 Bft) W-SW 246 ° 0 min 0,000 mm 0,0 UV-I 0 W/m² 3,7 °C 9,7 km/h (2 Bft)
19.10.2016 22:28 5,9 °C 5,9 °C 86 % 1016,4 hPa 0,0 mm 3,4 km/h (1 Bft) W-SW 246 ° 0 min 0,000 mm 0,0 UV-I 0 W/m² 3,7 °C 4,8 km/h (1 Bft)
19.10.2016 22:29 5,9 °C 5,9 °C 86 % 1016,4 hPa 0,0 mm 5,3 km/h (1 Bft) W 280 ° 0 min 0,000 mm 0,0 UV-I 0 W/m² 3,7 °C 8,0 km/h (2 Bft)
19.10.2016 22:30 5,8 °C 5,9 °C 86 % 1016,4 hPa 0,0 mm 3,8 km/h (1 Bft) W-SW 247 ° 0 min 0,000 mm 0,0 UV-I 0 W/m² 3,6 °C 6,4 km/h (2 Bft)
19.10.2016 22:31 5,8 °C 5,8 °C 86 % 1016,4 hPa 0,0 mm 5,2 km/h (1 Bft) W-SW 258 ° 0 min 0,000 mm 0,0 UV-I 0 W/m² 3,6 °C 8,0 km/h (2 Bft)
19.10.2016 22:32 5,8 °C 5,8 °C 86 % 1016,3 hPa 0,0 mm 3,2 km/h (1 Bft) W 277 ° 0 min 0,000 mm 0,0 UV-I 0 W/m² 3,6 °C 6,4 km/h (2 Bft)
19.10.2016 22:33 5,8 °C 5,8 °C 86 % 1016,4 hPa 0,0 mm 6,9 km/h (2 Bft) W 278 ° 0 min 0,000 mm 0,0 UV-I 0 W/m² 3,6 °C 14,5 km/h (3 Bft)
19.10.2016 22:34 5,8 °C 5,8 °C 86 % 1016,4 hPa 0,0 mm 8,0 km/h (2 Bft) W-SW 247 ° 0 min 0,000 mm 0,0 UV-I 0 W/m² 3,6 °C 12,9 km/h (3 Bft)
19.10.2016 22:35 5,8 °C 5,8 °C 86 % 1016,4 hPa 0,0 mm 5,6 km/h (1 Bft) W-SW 248 ° 0 min 0,000 mm 0,0 UV-I 0 W/m² 3,6 °C 12,9 km/h (3 Bft)
19.10.2016 22:36 5,8 °C 5,8 °C 86 % 1016,3 hPa 0,0 mm 8,5 km/h (2 Bft) W-SW 237 ° 0 min 0,000 mm 0,0 UV-I 0 W/m² 3,6 °C 11,3 km/h (2 Bft)
19.10.2016 22:37 5,8 °C 5,8 °C 85 % 1016,3 hPa 0,0 mm 5,8 km/h (2 Bft) W-NW 294 ° 0 min 0,000 mm 0,0 UV-I 0 W/m² 3,5 °C 9,7 km/h (2 Bft)
19.10.2016 22:38 5,8 °C 5,8 °C 85 % 1016,2 hPa 0,0 mm 5,6 km/h (1 Bft) W-SW 258 ° 0 min 0,000 mm 0,0 UV-I 0 W/m² 3,5 °C 8,0 km/h (2 Bft)
19.10.2016 22:39 5,8 °C 5,8 °C 85 % 1016,2 hPa 0,0 mm 11,4 km/h (2 Bft) W 276 ° 0 min 0,000 mm 0,0 UV-I 0 W/m² 3,5 °C 16,1 km/h (3 Bft)
19.10.2016 22:40 5,8 °C 5,8 °C 85 % 1016,3 hPa 0,0 mm 6,4 km/h (2 Bft) W-SW 241 ° 0 min 0,000 mm 0,0 UV-I 0 W/m² 3,5 °C 12,9 km/h (3 Bft)
19.10.2016 22:41 5,8 °C 5,8 °C 85 % 1016,2 hPa 0,0 mm 5,8 km/h (2 Bft) W-SW 242 ° 0 min 0,000 mm 0,0 UV-I 0 W/m² 3,5 °C 8,0 km/h (2 Bft)
19.10.2016 22:42 5,8 °C 5,8 °C 84 % 1016,2 hPa 0,0 mm 2,9 km/h (1 Bft) S-SW 205 ° 0 min 0,000 mm 0,0 UV-I 0 W/m² 3,3 °C 6,4 km/h (2 Bft)
19.10.2016 22:43 5,9 °C 5,9 °C 83 % 1016,2 hPa 0,0 mm 3,6 km/h (1 Bft) S-SW 209 ° 0 min 0,000 mm 0,0 UV-I 0 W/m² 3,2 °C 6,4 km/h (2 Bft)
19.10.2016 22:44 5,9 °C 5,9 °C 84 % 1016,2 hPa 0,0 mm 3,7 km/h (1 Bft) W-SW 252 ° 0 min 0,000 mm 0,0 UV-I 0 W/m² 3,4 °C 6,4 km/h (2 Bft)
19.10.2016 22:45 5,9 °C 5,9 °C 83 % 1016,2 hPa 0,0 mm 4,3 km/h (1 Bft) W-SW 245 ° 0 min 0,000 mm 0,0 UV-I 0 W/m² 3,2 °C 6,4 km/h (2 Bft)
19.10.2016 22:46 5,9 °C 5,9 °C 83 % 1016,2 hPa 0,0 mm 2,8 km/h (1 Bft) S 186 ° 0 min 0,000 mm 0,0 UV-I 0 W/m² 3,2 °C 6,4 km/h (2 Bft)
19.10.2016 22:47 5,9 °C 5,9 °C 84 % 1016,2 hPa 0,0 mm 3,7 km/h (1 Bft) SW 214 ° 0 min 0,000 mm 0,0 UV-I 0 W/m² 3,4 °C 6,4 km/h (2 Bft)
19.10.2016 22:48 5,9 °C 5,9 °C 84 % 1016,2 hPa 0,0 mm 3,0 km/h (1 Bft) W-SW 252 ° 0 min 0,000 mm 0,0 UV-I 0 W/m² 3,4 °C 4,8 km/h (1 Bft)
19.10.2016 22:49 5,9 °C 6,0 °C 84 % 1016,2 hPa 0,0 mm 3,4 km/h (1 Bft) SW 234 ° 0 min 0,000 mm 0,0 UV-I 0 W/m² 3,4 °C 6,4 km/h (2 Bft)
19.10.2016 22:50 5,9 °C 5,9 °C 84 % 1016,2 hPa 0,0 mm 5,6 km/h (1 Bft) W 259 ° 0 min 0,000 mm 0,0 UV-I 0 W/m² 3,4 °C 8,0 km/h (2 Bft)
19.10.2016 22:51 5,9 °C 5,9 °C 83 % 1016,2 hPa 0,0 mm 4,8 km/h (1 Bft) SW 222 ° 0 min 0,000 mm 0,0 UV-I 0 W/m² 3,2 °C 12,9 km/h (3 Bft)
19.10.2016 22:52 5,9 °C 5,9 °C 83 % 1016,2 hPa 0,0 mm 3,6 km/h (1 Bft) W-SW 245 ° 0 min 0,000 mm 0,0 UV-I 0 W/m² 3,2 °C 8,0 km/h (2 Bft)
19.10.2016 22:53 5,9 °C 5,9 °C 83 % 1016,2 hPa 0,0 mm 6,2 km/h (2 Bft) W 269 ° 0 min 0,000 mm 0,0 UV-I 0 W/m² 3,2 °C 12,9 km/h (3 Bft)
19.10.2016 22:54 5,9 °C 5,9 °C 84 % 1016,2 hPa 0,0 mm 4,6 km/h (1 Bft) W-SW 252 ° 0 min 0,000 mm 0,0 UV-I 0 W/m² 3,4 °C 8,0 km/h (2 Bft)
19.10.2016 22:55 5,9 °C 5,9 °C 83 % 1016,2 hPa 0,0 mm 5,1 km/h (1 Bft) W-SW 254 ° 0 min 0,000 mm 0,0 UV-I 0 W/m² 3,2 °C 11,3 km/h (2 Bft)
19.10.2016 22:56 5,9 °C 5,9 °C 83 % 1016,3 hPa 0,0 mm 6,7 km/h (2 Bft) W-SW 248 ° 0 min 0,000 mm 0,0 UV-I 0 W/m² 3,2 °C 11,3 km/h (2 Bft)
19.10.2016 22:57 5,9 °C 5,9 °C 83 % 1016,2 hPa 0,0 mm 3,8 km/h (1 Bft) W 265 ° 0 min 0,000 mm 0,0 UV-I 0 W/m² 3,2 °C 6,4 km/h (2 Bft)
19.10.2016 22:58 5,9 °C 5,9 °C 83 % 1016,2 hPa 0,0 mm 4,1 km/h (1 Bft) SW 215 ° 0 min 0,000 mm 0,0 UV-I 0 W/m² 3,2 °C 6,4 km/h (2 Bft)
19.10.2016 22:59 5,9 °C 5,9 °C 83 % 1016,2 hPa 0,0 mm 1,9 km/h (1 Bft) S 186 ° 0 min 0,000 mm 0,0 UV-I 0 W/m² 3,2 °C 3,2 km/h (1 Bft)
19.10.2016 23:00 5,9 °C 5,9 °C 83 % 1016,2 hPa 0,0 mm 1,6 km/h (1 Bft) S-SW 208 ° 0 min 0,000 mm 0,0 UV-I 0 W/m² 3,2 °C 4,8 km/h (1 Bft)
19.10.2016 23:01 5,9 °C 5,9 °C 83 % 1016,2 hPa 0,0 mm 2,5 km/h (1 Bft) W-SW 251 ° 0 min 0,025 mm 0,0 UV-I 0 W/m² 3,2 °C 4,8 km/h (1 Bft)
19.10.2016 23:02 5,9 °C 5,9 °C 84 % 1016,2 hPa 0,0 mm 7,1 km/h (2 Bft) W 259 ° 0 min 0,000 mm 0,0 UV-I 0 W/m² 3,4 °C 12,9 km/h (3 Bft)
19.10.2016 23:03 5,9 °C 5,9 °C 83 % 1016,2 hPa 0,0 mm 2,7 km/h (1 Bft) W 261 ° 0 min 0,000 mm 0,0 UV-I 0 W/m² 3,2 °C 12,9 km/h (3 Bft)
19.10.2016 23:04 5,9 °C 5,9 °C 83 % 1016,2 hPa 0,0 mm 7,8 km/h (2 Bft) W-SW 247 ° 0 min 0,000 mm 0,0 UV-I 0 W/m² 3,2 °C 16,1 km/h (3 Bft)
19.10.2016 23:05 5,9 °C 5,9 °C 83 % 1016,2 hPa 0,0 mm 4,3 km/h (1 Bft) W-NW 294 ° 0 min 0,000 mm 0,0 UV-I 0 W/m² 3,2 °C 8,0 km/h (2 Bft)
19.10.2016 23:06 5,9 °C 5,9 °C 83 % 1016,2 hPa 0,0 mm 2,6 km/h (1 Bft) SW 217 ° 0 min 0,000 mm 0,0 UV-I 0 W/m² 3,2 °C 4,8 km/h (1 Bft)
19.10.2016 23:07 5,9 °C 5,9 °C 83 % 1016,1 hPa 0,0 mm 5,9 km/h (2 Bft) W 273 ° 0 min 0,000 mm 0,0 UV-I 0 W/m² 3,2 °C 9,7 km/h (2 Bft)
19.10.2016 23:08 5,9 °C 5,9 °C 84 % 1016,2 hPa 0,0 mm 3,7 km/h (1 Bft) W-SW 248 ° 0 min 0,000 mm 0,0 UV-I 0 W/m² 3,4 °C 6,4 km/h (2 Bft)
19.10.2016 23:09 5,9 °C 5,9 °C 83 % 1016,1 hPa 0,0 mm 1,9 km/h (1 Bft) W-SW 254 ° 0 min 0,000 mm 0,0 UV-I 0 W/m² 3,2 °C 4,8 km/h (1 Bft)
19.10.2016 23:10 5,8 °C 5,9 °C 83 % 1016,1 hPa 0,0 mm 3,3 km/h (1 Bft) W-SW 254 ° 0 min 0,000 mm 0,0 UV-I 0 W/m² 3,1 °C 4,8 km/h (1 Bft)
19.10.2016 23:11 5,8 °C 5,8 °C 84 % 1016,1 hPa 0,0 mm 2,3 km/h (1 Bft) W-SW 250 ° 0 min 0,000 mm 0,0 UV-I 0 W/m² 3,3 °C 3,2 km/h (1 Bft)
19.10.2016 23:12 5,8 °C 5,8 °C 83 % 1016,1 hPa 0,0 mm 2,7 km/h (1 Bft) W-SW 250 ° 0 min 0,000 mm 0,0 UV-I 0 W/m² 3,1 °C 4,8 km/h (1 Bft)
19.10.2016 23:13 5,8 °C 5,8 °C 84 % 1016,1 hPa 0,0 mm 2,9 km/h (1 Bft) W-SW 240 ° 0 min 0,000 mm 0,0 UV-I 0 W/m² 3,3 °C 4,8 km/h (1 Bft)
19.10.2016 23:14 5,7 °C 5,8 °C 84 % 1016,1 hPa 0,0 mm 0,9 km/h (0 Bft) W-SW 240 ° 0 min 0,000 mm 0,0 UV-I 0 W/m² 3,2 °C 4,8 km/h (1 Bft)
19.10.2016 23:15 5,7 °C 5,7 °C 84 % 1016,1 hPa 0,0 mm 1,5 km/h (1 Bft) W-SW 240 ° 0 min 0,000 mm 0,0 UV-I 0 W/m² 3,2 °C 3,2 km/h (1 Bft)
19.10.2016 23:16 5,7 °C 5,7 °C 84 % 1016,0 hPa 0,0 mm 2,8 km/h (1 Bft) W-SW 240 ° 0 min 0,000 mm 0,0 UV-I 0 W/m² 3,2 °C 3,2 km/h (1 Bft)
19.10.2016 23:17 5,7 °C 5,7 °C 84 % 1016,0 hPa 0,0 mm 2,0 km/h (1 Bft) W-SW 240 ° 0 min 0,000 mm 0,0 UV-I 0 W/m² 3,2 °C 3,2 km/h (1 Bft)
19.10.2016 23:18 5,7 °C 5,7 °C 84 % 1016,0 hPa 0,0 mm 1,6 km/h (1 Bft) W-SW 240 ° 0 min 0,000 mm 0,0 UV-I 0 W/m² 3,2 °C 3,2 km/h (1 Bft)
19.10.2016 23:19 5,7 °C 5,7 °C 84 % 1016,0 hPa 0,0 mm 2,2 km/h (1 Bft) S 180 ° 0 min 0,000 mm 0,0 UV-I 0 W/m² 3,2 °C 3,2 km/h (1 Bft)
19.10.2016 23:20 5,7 °C 5,8 °C 84 % 1016,0 hPa 0,0 mm 4,2 km/h (1 Bft) S 181 ° 0 min 0,000 mm 0,0 UV-I 0 W/m² 3,2 °C 4,8 km/h (1 Bft)
19.10.2016 23:21 5,8 °C 5,8 °C 84 % 1016,1 hPa 0,0 mm 3,1 km/h (1 Bft) S 181 ° 0 min 0,000 mm 0,0 UV-I 0 W/m² 3,3 °C 4,8 km/h (1 Bft)
19.10.2016 23:22 5,8 °C 5,8 °C 83 % 1016,0 hPa 0,0 mm 2,5 km/h (1 Bft) S 185 ° 0 min 0,000 mm 0,0 UV-I 0 W/m² 3,1 °C 4,8 km/h (1 Bft)
19.10.2016 23:23 5,8 °C 5,8 °C 83 % 1016,1 hPa 0,0 mm 2,7 km/h (1 Bft) S 173 ° 0 min 0,000 mm 0,0 UV-I 0 W/m² 3,1 °C 3,2 km/h (1 Bft)
19.10.2016 23:24 5,8 °C 5,8 °C 83 % 1016,0 hPa 0,0 mm 4,0 km/h (1 Bft) S-SW 194 ° 0 min 0,000 mm 0,0 UV-I 0 W/m² 3,1 °C 6,4 km/h (2 Bft)
19.10.2016 23:25 5,8 °C 5,8 °C 83 % 1016,0 hPa 0,0 mm 3,9 km/h (1 Bft) S-SW 199 ° 0 min 0,000 mm 0,0 UV-I 0 W/m² 3,1 °C 6,4 km/h (2 Bft)
19.10.2016 23:26 5,8 °C 5,8 °C 83 % 1016,0 hPa 0,0 mm 3,4 km/h (1 Bft) S 182 ° 0 min 0,000 mm 0,0 UV-I 0 W/m² 3,1 °C 6,4 km/h (2 Bft)
19.10.2016 23:27 5,8 °C 5,8 °C 83 % 1016,0 hPa 0,0 mm 3,8 km/h (1 Bft) S-SW 194 ° 0 min 0,000 mm 0,0 UV-I 0 W/m² 3,1 °C 6,4 km/h (2 Bft)
19.10.2016 23:28 5,8 °C 5,8 °C 83 % 1016,1 hPa 0,0 mm 4,3 km/h (1 Bft) S 186 ° 0 min 0,000 mm 0,0 UV-I 0 W/m² 3,1 °C 4,8 km/h (1 Bft)
19.10.2016 23:29 5,8 °C 5,8 °C 83 % 1016,0 hPa 0,0 mm 6,1 km/h (2 Bft) S 176 ° 0 min 0,000 mm 0,0 UV-I 0 W/m² 3,1 °C 8,0 km/h (2 Bft)
19.10.2016 23:30 5,8 °C 5,8 °C 83 % 1016,0 hPa 0,0 mm 6,2 km/h (2 Bft) S-SW 205 ° 0 min 0,000 mm 0,0 UV-I 0 W/m² 3,1 °C 9,7 km/h (2 Bft)
19.10.2016 23:31 5,8 °C 5,8 °C 83 % 1016,0 hPa 0,0 mm 5,3 km/h (1 Bft) S 169 ° 0 min 0,000 mm 0,0 UV-I 0 W/m² 3,1 °C 9,7 km/h (2 Bft)
19.10.2016 23:32 5,9 °C 5,9 °C 82 % 1016,0 hPa 0,0 mm 4,9 km/h (1 Bft) S 186 ° 0 min 0,000 mm 0,0 UV-I 0 W/m² 3,1 °C 6,4 km/h (2 Bft)
19.10.2016 23:33 5,8 °C 5,9 °C 82 % 1016,0 hPa 0,0 mm 4,3 km/h (1 Bft) S-SW 209 ° 0 min 0,000 mm 0,0 UV-I 0 W/m² 3,0 °C 6,4 km/h (2 Bft)
19.10.2016 23:34 5,8 °C 5,9 °C 83 % 1016,0 hPa 0,0 mm 3,9 km/h (1 Bft) S 177 ° 0 min 0,000 mm 0,0 UV-I 0 W/m² 3,1 °C 8,0 km/h (2 Bft)
19.10.2016 23:35 5,9 °C 5,9 °C 83 % 1016,0 hPa 0,0 mm 4,5 km/h (1 Bft) S-SO 167 ° 0 min 0,000 mm 0,0 UV-I 0 W/m² 3,2 °C 6,4 km/h (2 Bft)
19.10.2016 23:36 5,8 °C 5,9 °C 82 % 1016,0 hPa 0,0 mm 3,6 km/h (1 Bft) S-SW 192 ° 0 min 0,000 mm 0,0 UV-I 0 W/m² 3,0 °C 4,8 km/h (1 Bft)
19.10.2016 23:37 5,9 °C 5,9 °C 82 % 1016,0 hPa 0,0 mm 4,6 km/h (1 Bft) S-SW 192 ° 0 min 0,000 mm 0,0 UV-I 0 W/m² 3,1 °C 6,4 km/h (2 Bft)
19.10.2016 23:38 5,9 °C 5,9 °C 82 % 1016,0 hPa 0,0 mm 4,7 km/h (1 Bft) S-SW 198 ° 0 min 0,000 mm 0,0 UV-I 0 W/m² 3,1 °C 6,4 km/h (2 Bft)
19.10.2016 23:39 5,8 °C 5,9 °C 83 % 1016,0 hPa 0,0 mm 3,6 km/h (1 Bft) S 178 ° 0 min 0,000 mm 0,0 UV-I 0 W/m² 3,1 °C 6,4 km/h (2 Bft)
19.10.2016 23:40 5,8 °C 5,8 °C 82 % 1016,0 hPa 0,0 mm 5,6 km/h (1 Bft) S 183 ° 0 min 0,000 mm 0,0 UV-I 0 W/m² 3,0 °C 8,0 km/h (2 Bft)
19.10.2016 23:41 5,8 °C 5,8 °C 82 % 1016,1 hPa 0,0 mm 5,4 km/h (1 Bft) SW 227 ° 0 min 0,000 mm 0,0 UV-I 0 W/m² 3,0 °C 8,0 km/h (2 Bft)
19.10.2016 23:42 5,9 °C 5,9 °C 82 % 1016,1 hPa 0,0 mm 4,1 km/h (1 Bft) S 188 ° 0 min 0,000 mm 0,0 UV-I 0 W/m² 3,1 °C 8,0 km/h (2 Bft)
19.10.2016 23:43 5,9 °C 5,9 °C 82 % 1016,1 hPa 0,0 mm 3,4 km/h (1 Bft) SW 233 ° 0 min 0,000 mm 0,0 UV-I 0 W/m² 3,1 °C 6,4 km/h (2 Bft)
19.10.2016 23:44 5,9 °C 5,9 °C 82 % 1016,1 hPa 0,0 mm 1,7 km/h (1 Bft) SW 225 ° 0 min 0,000 mm 0,0 UV-I 0 W/m² 3,1 °C 3,2 km/h (1 Bft)
19.10.2016 23:45 5,9 °C 5,9 °C 82 % 1016,1 hPa 0,0 mm 3,2 km/h (1 Bft) S-SW 204 ° 0 min 0,000 mm 0,0 UV-I 0 W/m² 3,1 °C 4,8 km/h (1 Bft)
19.10.2016 23:46 5,9 °C 5,9 °C 82 % 1016,1 hPa 0,0 mm 5,8 km/h (2 Bft) S-SO 157 ° 0 min 0,000 mm 0,0 UV-I 0 W/m² 3,1 °C 8,0 km/h (2 Bft)
19.10.2016 23:47 5,8 °C 5,9 °C 82 % 1016,1 hPa 0,0 mm 5,3 km/h (1 Bft) S-SW 194 ° 0 min 0,000 mm 0,0 UV-I 0 W/m² 3,0 °C 8,0 km/h (2 Bft)
19.10.2016 23:48 5,9 °C 5,9 °C 83 % 1016,0 hPa 0,0 mm 4,6 km/h (1 Bft) S 190 ° 0 min 0,000 mm 0,0 UV-I 0 W/m² 3,2 °C 6,4 km/h (2 Bft)
19.10.2016 23:49 5,8 °C 5,9 °C 83 % 1016,0 hPa 0,0 mm 4,3 km/h (1 Bft) S 184 ° 0 min 0,000 mm 0,0 UV-I 0 W/m² 3,1 °C 4,8 km/h (1 Bft)
19.10.2016 23:50 5,8 °C 5,8 °C 83 % 1016,1 hPa 0,0 mm 5,3 km/h (1 Bft) S 187 ° 0 min 0,000 mm 0,0 UV-I 0 W/m² 3,1 °C 9,7 km/h (2 Bft)
19.10.2016 23:51 5,8 °C 5,8 °C 83 % 1016,1 hPa 0,0 mm 4,6 km/h (1 Bft) S-SW 194 ° 0 min 0,000 mm 0,0 UV-I 0 W/m² 3,1 °C 8,0 km/h (2 Bft)
19.10.2016 23:52 5,9 °C 5,9 °C 82 % 1016,1 hPa 0,0 mm 3,8 km/h (1 Bft) S-SW 196 ° 0 min 0,000 mm 0,0 UV-I 0 W/m² 3,1 °C 6,4 km/h (2 Bft)
19.10.2016 23:53 5,9 °C 5,9 °C 82 % 1016,1 hPa 0,0 mm 4,0 km/h (1 Bft) S 182 ° 0 min 0,000 mm 0,0 UV-I 0 W/m² 3,1 °C 4,8 km/h (1 Bft)
19.10.2016 23:54 5,9 °C 5,9 °C 82 % 1016,0 hPa 0,0 mm 3,8 km/h (1 Bft) S 173 ° 0 min 0,000 mm 0,0 UV-I 0 W/m² 3,1 °C 6,4 km/h (2 Bft)
19.10.2016 23:55 5,9 °C 5,9 °C 82 % 1016,0 hPa 0,0 mm 4,7 km/h (1 Bft) S 180 ° 0 min 0,000 mm 0,0 UV-I 0 W/m² 3,1 °C 8,0 km/h (2 Bft)
19.10.2016 23:56 5,9 °C 5,9 °C 83 % 1016,0 hPa 0,0 mm 3,7 km/h (1 Bft) S 187 ° 0 min 0,000 mm 0,0 UV-I 0 W/m² 3,2 °C 4,8 km/h (1 Bft)
19.10.2016 23:57 5,9 °C 5,9 °C 83 % 1016,0 hPa 0,0 mm 5,3 km/h (1 Bft) S-SO 160 ° 0 min 0,000 mm 0,0 UV-I 0 W/m² 3,2 °C 8,0 km/h (2 Bft)
19.10.2016 23:58 5,9 °C 5,9 °C 83 % 1015,9 hPa 0,0 mm 4,2 km/h (1 Bft) S-SW 207 ° 0 min 0,000 mm 0,0 UV-I 0 W/m² 3,2 °C 8,0 km/h (2 Bft)
19.10.2016 23:59 5,9 °C 5,9 °C 83 % 1015,9 hPa 0,0 mm 3,5 km/h (1 Bft) S-SO 157 ° 0 min 0,000 mm 0,0 UV-I 0 W/m² 3,2 °C 4,8 km/h (1 Bft)
_ Min-Zeit 23:20 23:19 12:33 23:59 - 02:49 - - - - - - 23:47 02:49
Minimum _ 5,7 °C 5,7 °C 68 % 1015,9 hPa - 0,0 km/h (0 Bft) - - - - - - 3,0 °C 0,0 km/h (0 Bft)
_ Max-Zeit 12:31 12:32 00:17 00:11 03:52 13:39 - - 16:17 16:01 12:21 12:22 00:24 14:07
Maximum _ 11,2 °C 11,2 °C 93 % 1021,1 hPa 0,2 mm 19,7 km/h
W-NW (3 Bft)
- - 1 min 0,203 mm 3,3 UV-I 766 W/m² 6,8 °C 30,6 km/h
W (5 Bft)
Durchschnitt _ 8,1 °C 8,1 °C 83 % 1017,9 hPa #0,2 mm 6,3 km/h (2 Bft) W-SW - #1:57 h #1,143 mm 1,6 UV-I 75 W/m² 5,5 °C 10,4 km/h (2 Bft)